﻿<?xml version="1.0" encoding="UTF-8" standalone="no"?>
<gpx xmlns="http://www.topografix.com/GPX/1/1" xmlns:gpxtpx="http://www.garmin.com/xmlschemas/TrackPointExtension/v1" xmlns:xsi="http://www.w3.org/2001/XMLSchema-instance" creator="Hribi.net" version="1.1" xsi:schemaLocation="http://www.topografix.com/GPX/1/1 http://www.topografix.com/GPX/1/1/gpx.xsd http://www.garmin.com/xmlschemas/TrackPointExtension/v1 http://www.garmin.com/xmlschemas/TrackPointExtensionv1.xsd">
  <metadata>
    <name>GPS sled</name>
    <desc>www.hribi.net</desc>
    <author>
      <name>hribi.net</name>
    </author>
    <link href="http://www.hribi.net">
      <text>Hribi.net</text>
    </link>
  </metadata>
  <trk>
    <trkseg>
      <trkpt lat="46.215082" lon="13.940163">
        <ele>812.5968</ele>
        <time>2011-05-29T05:13:06Z</time>
      </trkpt>
      <trkpt lat="46.215137" lon="13.940277">
        <ele>812.5968</ele>
        <time>2011-05-29T05:13:44Z</time>
      </trkpt>
      <trkpt lat="46.215201" lon="13.940455">
        <ele>812.9016</ele>
        <time>2011-05-29T05:13:55Z</time>
      </trkpt>
      <trkpt lat="46.215206" lon="13.940373">
        <ele>815.34</ele>
        <time>2011-05-29T05:14:11Z</time>
      </trkpt>
      <trkpt lat="46.215258" lon="13.940490">
        <ele>812.5968</ele>
        <time>2011-05-29T05:14:58Z</time>
      </trkpt>
      <trkpt lat="46.215361" lon="13.940561">
        <ele>813.816</ele>
        <time>2011-05-29T05:15:05Z</time>
      </trkpt>
      <trkpt lat="46.215571" lon="13.940685">
        <ele>817.1688</ele>
        <time>2011-05-29T05:15:21Z</time>
      </trkpt>
      <trkpt lat="46.215647" lon="13.940832">
        <ele>816.864</ele>
        <time>2011-05-29T05:15:29Z</time>
      </trkpt>
      <trkpt lat="46.215852" lon="13.941059">
        <ele>812.9016</ele>
        <time>2011-05-29T05:15:48Z</time>
      </trkpt>
      <trkpt lat="46.215936" lon="13.941119">
        <ele>822.6552</ele>
        <time>2011-05-29T05:15:54Z</time>
      </trkpt>
      <trkpt lat="46.216124" lon="13.941197">
        <ele>823.8744</ele>
        <time>2011-05-29T05:16:11Z</time>
      </trkpt>
      <trkpt lat="46.216276" lon="13.941260">
        <ele>826.008</ele>
        <time>2011-05-29T05:16:25Z</time>
      </trkpt>
      <trkpt lat="46.216456" lon="13.941287">
        <ele>829.3608</ele>
        <time>2011-05-29T05:16:42Z</time>
      </trkpt>
      <trkpt lat="46.216553" lon="13.941306">
        <ele>824.484</ele>
        <time>2011-05-29T05:16:50Z</time>
      </trkpt>
      <trkpt lat="46.216645" lon="13.941363">
        <ele>833.0184</ele>
        <time>2011-05-29T05:16:58Z</time>
      </trkpt>
      <trkpt lat="46.216743" lon="13.941397">
        <ele>835.152</ele>
        <time>2011-05-29T05:17:08Z</time>
      </trkpt>
      <trkpt lat="46.216850" lon="13.941422">
        <ele>836.3712</ele>
        <time>2011-05-29T05:17:15Z</time>
      </trkpt>
      <trkpt lat="46.216940" lon="13.941456">
        <ele>831.1896</ele>
        <time>2011-05-29T05:17:23Z</time>
      </trkpt>
      <trkpt lat="46.217044" lon="13.941481">
        <ele>836.0664</ele>
        <time>2011-05-29T05:17:32Z</time>
      </trkpt>
      <trkpt lat="46.217144" lon="13.941492">
        <ele>841.248</ele>
        <time>2011-05-29T05:17:40Z</time>
      </trkpt>
      <trkpt lat="46.217267" lon="13.941431">
        <ele>840.3336</ele>
        <time>2011-05-29T05:17:51Z</time>
      </trkpt>
      <trkpt lat="46.217352" lon="13.941386">
        <ele>839.4192</ele>
        <time>2011-05-29T05:18:02Z</time>
      </trkpt>
      <trkpt lat="46.217451" lon="13.941300">
        <ele>842.772</ele>
        <time>2011-05-29T05:18:19Z</time>
      </trkpt>
      <trkpt lat="46.217527" lon="13.941223">
        <ele>849.4776</ele>
        <time>2011-05-29T05:18:27Z</time>
      </trkpt>
      <trkpt lat="46.217608" lon="13.941152">
        <ele>845.2104</ele>
        <time>2011-05-29T05:18:32Z</time>
      </trkpt>
      <trkpt lat="46.217702" lon="13.941093">
        <ele>852.2208</ele>
        <time>2011-05-29T05:18:50Z</time>
      </trkpt>
      <trkpt lat="46.217830" lon="13.941021">
        <ele>853.44</ele>
        <time>2011-05-29T05:18:57Z</time>
      </trkpt>
      <trkpt lat="46.218002" lon="13.940939">
        <ele>854.6592</ele>
        <time>2011-05-29T05:19:04Z</time>
      </trkpt>
      <trkpt lat="46.218117" lon="13.940988">
        <ele>851.0016</ele>
        <time>2011-05-29T05:19:15Z</time>
      </trkpt>
      <trkpt lat="46.218228" lon="13.940979">
        <ele>854.3544</ele>
        <time>2011-05-29T05:19:28Z</time>
      </trkpt>
      <trkpt lat="46.218326" lon="13.940939">
        <ele>857.7072</ele>
        <time>2011-05-29T05:19:32Z</time>
      </trkpt>
      <trkpt lat="46.218408" lon="13.940842">
        <ele>854.3544</ele>
        <time>2011-05-29T05:19:42Z</time>
      </trkpt>
      <trkpt lat="46.218527" lon="13.940747">
        <ele>859.536</ele>
        <time>2011-05-29T05:19:53Z</time>
      </trkpt>
      <trkpt lat="46.218642" lon="13.940861">
        <ele>867.156</ele>
        <time>2011-05-29T05:20:10Z</time>
      </trkpt>
      <trkpt lat="46.218656" lon="13.941005">
        <ele>867.7656</ele>
        <time>2011-05-29T05:20:21Z</time>
      </trkpt>
      <trkpt lat="46.218687" lon="13.941194">
        <ele>864.4128</ele>
        <time>2011-05-29T05:20:29Z</time>
      </trkpt>
      <trkpt lat="46.218730" lon="13.941341">
        <ele>871.1184</ele>
        <time>2011-05-29T05:20:40Z</time>
      </trkpt>
      <trkpt lat="46.218778" lon="13.941530">
        <ele>867.7656</ele>
        <time>2011-05-29T05:20:49Z</time>
      </trkpt>
      <trkpt lat="46.218841" lon="13.941632">
        <ele>872.6424</ele>
        <time>2011-05-29T05:20:56Z</time>
      </trkpt>
      <trkpt lat="46.218939" lon="13.941701">
        <ele>870.5088</ele>
        <time>2011-05-29T05:21:04Z</time>
      </trkpt>
      <trkpt lat="46.219055" lon="13.941728">
        <ele>875.9952</ele>
        <time>2011-05-29T05:21:15Z</time>
      </trkpt>
      <trkpt lat="46.219153" lon="13.941715">
        <ele>877.2144</ele>
        <time>2011-05-29T05:21:27Z</time>
      </trkpt>
      <trkpt lat="46.219251" lon="13.941666">
        <ele>884.5296</ele>
        <time>2011-05-29T05:21:38Z</time>
      </trkpt>
      <trkpt lat="46.219391" lon="13.941757">
        <ele>885.444</ele>
        <time>2011-05-29T05:21:50Z</time>
      </trkpt>
      <trkpt lat="46.219389" lon="13.941895">
        <ele>884.5296</ele>
        <time>2011-05-29T05:21:59Z</time>
      </trkpt>
      <trkpt lat="46.219383" lon="13.942040">
        <ele>887.8824</ele>
        <time>2011-05-29T05:22:10Z</time>
      </trkpt>
      <trkpt lat="46.219339" lon="13.942182">
        <ele>888.7968</ele>
        <time>2011-05-29T05:22:21Z</time>
      </trkpt>
      <trkpt lat="46.219268" lon="13.942315">
        <ele>889.4064</ele>
        <time>2011-05-29T05:22:30Z</time>
      </trkpt>
      <trkpt lat="46.219206" lon="13.942413">
        <ele>897.636</ele>
        <time>2011-05-29T05:22:40Z</time>
      </trkpt>
      <trkpt lat="46.219141" lon="13.942510">
        <ele>900.0744</ele>
        <time>2011-05-29T05:22:48Z</time>
      </trkpt>
      <trkpt lat="46.219118" lon="13.942635">
        <ele>899.4648</ele>
        <time>2011-05-29T05:23:02Z</time>
      </trkpt>
      <trkpt lat="46.219127" lon="13.942780">
        <ele>906.1704</ele>
        <time>2011-05-29T05:23:19Z</time>
      </trkpt>
      <trkpt lat="46.219143" lon="13.942925">
        <ele>901.9032</ele>
        <time>2011-05-29T05:23:24Z</time>
      </trkpt>
      <trkpt lat="46.219174" lon="13.943059">
        <ele>908.6088</ele>
        <time>2011-05-29T05:23:31Z</time>
      </trkpt>
      <trkpt lat="46.219196" lon="13.943185">
        <ele>911.352</ele>
        <time>2011-05-29T05:23:42Z</time>
      </trkpt>
      <trkpt lat="46.219269" lon="13.943278">
        <ele>907.6944</ele>
        <time>2011-05-29T05:23:50Z</time>
      </trkpt>
      <trkpt lat="46.219358" lon="13.943430">
        <ele>914.4</ele>
        <time>2011-05-29T05:24:05Z</time>
      </trkpt>
      <trkpt lat="46.219443" lon="13.943586">
        <ele>915.924</ele>
        <time>2011-05-29T05:24:29Z</time>
      </trkpt>
      <trkpt lat="46.219572" lon="13.943680">
        <ele>912.876</ele>
        <time>2011-05-29T05:24:43Z</time>
      </trkpt>
      <trkpt lat="46.219649" lon="13.943733">
        <ele>915.3144</ele>
        <time>2011-05-29T05:24:54Z</time>
      </trkpt>
      <trkpt lat="46.219645" lon="13.943927">
        <ele>918.0576</ele>
        <time>2011-05-29T05:24:59Z</time>
      </trkpt>
      <trkpt lat="46.219622" lon="13.944078">
        <ele>915.924</ele>
        <time>2011-05-29T05:25:03Z</time>
      </trkpt>
      <trkpt lat="46.219545" lon="13.944159">
        <ele>916.8384</ele>
        <time>2011-05-29T05:25:10Z</time>
      </trkpt>
      <trkpt lat="46.219458" lon="13.944259">
        <ele>915.3144</ele>
        <time>2011-05-29T05:25:17Z</time>
      </trkpt>
      <trkpt lat="46.219376" lon="13.944365">
        <ele>916.8384</ele>
        <time>2011-05-29T05:25:25Z</time>
      </trkpt>
      <trkpt lat="46.219357" lon="13.944499">
        <ele>918.0576</ele>
        <time>2011-05-29T05:25:33Z</time>
      </trkpt>
      <trkpt lat="46.219407" lon="13.944645">
        <ele>923.544</ele>
        <time>2011-05-29T05:25:41Z</time>
      </trkpt>
      <trkpt lat="46.219472" lon="13.944772">
        <ele>924.4584</ele>
        <time>2011-05-29T05:25:49Z</time>
      </trkpt>
      <trkpt lat="46.219572" lon="13.944927">
        <ele>922.02</ele>
        <time>2011-05-29T05:26:02Z</time>
      </trkpt>
      <trkpt lat="46.219564" lon="13.945058">
        <ele>922.6296</ele>
        <time>2011-05-29T05:26:09Z</time>
      </trkpt>
      <trkpt lat="46.219456" lon="13.945283">
        <ele>923.8488</ele>
        <time>2011-05-29T05:26:17Z</time>
      </trkpt>
      <trkpt lat="46.219363" lon="13.945277">
        <ele>927.2016</ele>
        <time>2011-05-29T05:26:25Z</time>
      </trkpt>
      <trkpt lat="46.219234" lon="13.945276">
        <ele>924.4584</ele>
        <time>2011-05-29T05:26:33Z</time>
      </trkpt>
      <trkpt lat="46.219078" lon="13.945314">
        <ele>925.068</ele>
        <time>2011-05-29T05:26:44Z</time>
      </trkpt>
      <trkpt lat="46.218962" lon="13.945386">
        <ele>925.9824</ele>
        <time>2011-05-29T05:26:51Z</time>
      </trkpt>
      <trkpt lat="46.218865" lon="13.945520">
        <ele>929.64</ele>
        <time>2011-05-29T05:27:02Z</time>
      </trkpt>
      <trkpt lat="46.218783" lon="13.945695">
        <ele>934.212</ele>
        <time>2011-05-29T05:27:14Z</time>
      </trkpt>
      <trkpt lat="46.218707" lon="13.945797">
        <ele>935.4312</ele>
        <time>2011-05-29T05:27:26Z</time>
      </trkpt>
      <trkpt lat="46.218654" lon="13.945964">
        <ele>936.3456</ele>
        <time>2011-05-29T05:27:34Z</time>
      </trkpt>
      <trkpt lat="46.218616" lon="13.946100">
        <ele>937.8696</ele>
        <time>2011-05-29T05:27:45Z</time>
      </trkpt>
      <trkpt lat="46.218540" lon="13.946283">
        <ele>939.3936</ele>
        <time>2011-05-29T05:27:56Z</time>
      </trkpt>
      <trkpt lat="46.218408" lon="13.946362">
        <ele>936.9552</ele>
        <time>2011-05-29T05:28:05Z</time>
      </trkpt>
      <trkpt lat="46.218332" lon="13.946464">
        <ele>938.784</ele>
        <time>2011-05-29T05:28:16Z</time>
      </trkpt>
      <trkpt lat="46.218246" lon="13.946583">
        <ele>944.2704</ele>
        <time>2011-05-29T05:28:24Z</time>
      </trkpt>
      <trkpt lat="46.218224" lon="13.946709">
        <ele>944.5752</ele>
        <time>2011-05-29T05:28:32Z</time>
      </trkpt>
      <trkpt lat="46.218208" lon="13.946846">
        <ele>943.6608</ele>
        <time>2011-05-29T05:28:42Z</time>
      </trkpt>
      <trkpt lat="46.218115" lon="13.946850">
        <ele>948.5376</ele>
        <time>2011-05-29T05:28:47Z</time>
      </trkpt>
      <trkpt lat="46.218030" lon="13.946889">
        <ele>952.1952</ele>
        <time>2011-05-29T05:28:54Z</time>
      </trkpt>
      <trkpt lat="46.217981" lon="13.946998">
        <ele>951.8904</ele>
        <time>2011-05-29T05:29:02Z</time>
      </trkpt>
      <trkpt lat="46.218026" lon="13.947185">
        <ele>947.928</ele>
        <time>2011-05-29T05:29:14Z</time>
      </trkpt>
      <trkpt lat="46.218093" lon="13.947306">
        <ele>950.976</ele>
        <time>2011-05-29T05:29:24Z</time>
      </trkpt>
      <trkpt lat="46.218169" lon="13.947393">
        <ele>954.6336</ele>
        <time>2011-05-29T05:29:34Z</time>
      </trkpt>
      <trkpt lat="46.218111" lon="13.947620">
        <ele>951.8904</ele>
        <time>2011-05-29T05:29:45Z</time>
      </trkpt>
      <trkpt lat="46.218118" lon="13.947765">
        <ele>954.6336</ele>
        <time>2011-05-29T05:29:56Z</time>
      </trkpt>
      <trkpt lat="46.218125" lon="13.947920">
        <ele>961.0344</ele>
        <time>2011-05-29T05:30:04Z</time>
      </trkpt>
      <trkpt lat="46.218132" lon="13.948058">
        <ele>958.596</ele>
        <time>2011-05-29T05:30:14Z</time>
      </trkpt>
      <trkpt lat="46.218136" lon="13.948189">
        <ele>961.3392</ele>
        <time>2011-05-29T05:30:23Z</time>
      </trkpt>
      <trkpt lat="46.218146" lon="13.948318">
        <ele>959.5104</ele>
        <time>2011-05-29T05:30:30Z</time>
      </trkpt>
      <trkpt lat="46.218152" lon="13.948488">
        <ele>961.3392</ele>
        <time>2011-05-29T05:30:43Z</time>
      </trkpt>
      <trkpt lat="46.218104" lon="13.948628">
        <ele>962.8632</ele>
        <time>2011-05-29T05:30:47Z</time>
      </trkpt>
      <trkpt lat="46.218076" lon="13.948761">
        <ele>972.9216</ele>
        <time>2011-05-29T05:30:55Z</time>
      </trkpt>
      <trkpt lat="46.218086" lon="13.948888">
        <ele>967.74</ele>
        <time>2011-05-29T05:31:13Z</time>
      </trkpt>
      <trkpt lat="46.218059" lon="13.949036">
        <ele>979.3224</ele>
        <time>2011-05-29T05:31:24Z</time>
      </trkpt>
      <trkpt lat="46.218145" lon="13.949100">
        <ele>976.884</ele>
        <time>2011-05-29T05:31:52Z</time>
      </trkpt>
      <trkpt lat="46.218214" lon="13.948992">
        <ele>982.6752</ele>
        <time>2011-05-29T05:32:02Z</time>
      </trkpt>
      <trkpt lat="46.218289" lon="13.948884">
        <ele>982.6752</ele>
        <time>2011-05-29T05:32:10Z</time>
      </trkpt>
      <trkpt lat="46.218374" lon="13.948765">
        <ele>979.3224</ele>
        <time>2011-05-29T05:32:23Z</time>
      </trkpt>
      <trkpt lat="46.218452" lon="13.948670">
        <ele>989.3808</ele>
        <time>2011-05-29T05:32:38Z</time>
      </trkpt>
      <trkpt lat="46.218513" lon="13.948575">
        <ele>985.1136</ele>
        <time>2011-05-29T05:32:46Z</time>
      </trkpt>
      <trkpt lat="46.218574" lon="13.948458">
        <ele>984.1992</ele>
        <time>2011-05-29T05:32:57Z</time>
      </trkpt>
      <trkpt lat="46.218640" lon="13.948242">
        <ele>986.028</ele>
        <time>2011-05-29T05:33:05Z</time>
      </trkpt>
      <trkpt lat="46.218647" lon="13.948111">
        <ele>989.3808</ele>
        <time>2011-05-29T05:33:25Z</time>
      </trkpt>
      <trkpt lat="46.218820" lon="13.947875">
        <ele>997.9152</ele>
        <time>2011-05-29T05:34:03Z</time>
      </trkpt>
      <trkpt lat="46.218910" lon="13.947851">
        <ele>1008.5832</ele>
        <time>2011-05-29T05:34:15Z</time>
      </trkpt>
      <trkpt lat="46.219019" lon="13.947757">
        <ele>1007.9736</ele>
        <time>2011-05-29T05:34:35Z</time>
      </trkpt>
      <trkpt lat="46.219173" lon="13.947544">
        <ele>1007.0592</ele>
        <time>2011-05-29T05:34:56Z</time>
      </trkpt>
      <trkpt lat="46.219261" lon="13.947463">
        <ele>1014.6792</ele>
        <time>2011-05-29T05:35:16Z</time>
      </trkpt>
      <trkpt lat="46.219310" lon="13.947224">
        <ele>1022.604</ele>
        <time>2011-05-29T05:35:36Z</time>
      </trkpt>
      <trkpt lat="46.219466" lon="13.947108">
        <ele>1023.8232</ele>
        <time>2011-05-29T05:36:19Z</time>
      </trkpt>
      <trkpt lat="46.219582" lon="13.947087">
        <ele>1026.8712</ele>
        <time>2011-05-29T05:36:22Z</time>
      </trkpt>
      <trkpt lat="46.219676" lon="13.947158">
        <ele>1032.6624</ele>
        <time>2011-05-29T05:36:33Z</time>
      </trkpt>
      <trkpt lat="46.219722" lon="13.947274">
        <ele>1033.5768</ele>
        <time>2011-05-29T05:36:45Z</time>
      </trkpt>
      <trkpt lat="46.219741" lon="13.947426">
        <ele>1032.9672</ele>
        <time>2011-05-29T05:37:04Z</time>
      </trkpt>
      <trkpt lat="46.219802" lon="13.947387">
        <ele>1044.2448</ele>
        <time>2011-05-29T05:37:32Z</time>
      </trkpt>
      <trkpt lat="46.219889" lon="13.947445">
        <ele>1045.464</ele>
        <time>2011-05-29T05:37:39Z</time>
      </trkpt>
      <trkpt lat="46.219967" lon="13.947522">
        <ele>1043.0256</ele>
        <time>2011-05-29T05:37:51Z</time>
      </trkpt>
      <trkpt lat="46.220052" lon="13.947579">
        <ele>1050.3408</ele>
        <time>2011-05-29T05:38:01Z</time>
      </trkpt>
      <trkpt lat="46.220134" lon="13.947521">
        <ele>1050.036</ele>
        <time>2011-05-29T05:38:22Z</time>
      </trkpt>
      <trkpt lat="46.220122" lon="13.947346">
        <ele>1052.1696</ele>
        <time>2011-05-29T05:38:38Z</time>
      </trkpt>
      <trkpt lat="46.220142" lon="13.947204">
        <ele>1056.132</ele>
        <time>2011-05-29T05:39:03Z</time>
      </trkpt>
      <trkpt lat="46.220194" lon="13.947126">
        <ele>1070.4576</ele>
        <time>2011-05-29T05:39:58Z</time>
      </trkpt>
      <trkpt lat="46.220287" lon="13.947081">
        <ele>1070.4576</ele>
        <time>2011-05-29T05:40:02Z</time>
      </trkpt>
      <trkpt lat="46.220378" lon="13.947090">
        <ele>1071.0672</ele>
        <time>2011-05-29T05:40:21Z</time>
      </trkpt>
      <trkpt lat="46.220564" lon="13.946991">
        <ele>1081.7352</ele>
        <time>2011-05-29T05:40:28Z</time>
      </trkpt>
      <trkpt lat="46.220693" lon="13.946930">
        <ele>1075.944</ele>
        <time>2011-05-29T05:40:37Z</time>
      </trkpt>
      <trkpt lat="46.220765" lon="13.946859">
        <ele>1092.708</ele>
        <time>2011-05-29T05:41:37Z</time>
      </trkpt>
      <trkpt lat="46.220866" lon="13.946837">
        <ele>1089.66</ele>
        <time>2011-05-29T05:41:41Z</time>
      </trkpt>
      <trkpt lat="46.220995" lon="13.946750">
        <ele>1097.5848</ele>
        <time>2011-05-29T05:42:20Z</time>
      </trkpt>
      <trkpt lat="46.221063" lon="13.946747">
        <ele>1106.7288</ele>
        <time>2011-05-29T05:42:40Z</time>
      </trkpt>
      <trkpt lat="46.221153" lon="13.946796">
        <ele>1116.7872</ele>
        <time>2011-05-29T05:43:19Z</time>
      </trkpt>
      <trkpt lat="46.221096" lon="13.946914">
        <ele>1111.3008</ele>
        <time>2011-05-29T05:43:34Z</time>
      </trkpt>
      <trkpt lat="46.221204" lon="13.946787">
        <ele>1111.9104</ele>
        <time>2011-05-29T05:43:42Z</time>
      </trkpt>
      <trkpt lat="46.221304" lon="13.946711">
        <ele>1112.8248</ele>
        <time>2011-05-29T05:43:46Z</time>
      </trkpt>
      <trkpt lat="46.221416" lon="13.946635">
        <ele>1119.2256</ele>
        <time>2011-05-29T05:43:53Z</time>
      </trkpt>
      <trkpt lat="46.221561" lon="13.946505">
        <ele>1125.0168</ele>
        <time>2011-05-29T05:44:11Z</time>
      </trkpt>
      <trkpt lat="46.221661" lon="13.946395">
        <ele>1120.4448</ele>
        <time>2011-05-29T05:44:13Z</time>
      </trkpt>
      <trkpt lat="46.221612" lon="13.946389">
        <ele>1124.4072</ele>
        <time>2011-05-29T05:44:24Z</time>
      </trkpt>
      <trkpt lat="46.221583" lon="13.946299">
        <ele>1135.0752</ele>
        <time>2011-05-29T05:45:07Z</time>
      </trkpt>
      <trkpt lat="46.221702" lon="13.946226">
        <ele>1131.7224</ele>
        <time>2011-05-29T05:45:17Z</time>
      </trkpt>
      <trkpt lat="46.221816" lon="13.946163">
        <ele>1132.6368</ele>
        <time>2011-05-29T05:45:19Z</time>
      </trkpt>
      <trkpt lat="46.221927" lon="13.946099">
        <ele>1141.7808</ele>
        <time>2011-05-29T05:45:40Z</time>
      </trkpt>
      <trkpt lat="46.222011" lon="13.946025">
        <ele>1143</ele>
        <time>2011-05-29T05:45:44Z</time>
      </trkpt>
      <trkpt lat="46.222099" lon="13.945932">
        <ele>1141.1712</ele>
        <time>2011-05-29T05:45:54Z</time>
      </trkpt>
      <trkpt lat="46.222203" lon="13.945820">
        <ele>1142.0856</ele>
        <time>2011-05-29T05:46:00Z</time>
      </trkpt>
      <trkpt lat="46.222269" lon="13.945722">
        <ele>1146.9624</ele>
        <time>2011-05-29T05:46:04Z</time>
      </trkpt>
      <trkpt lat="46.222302" lon="13.945595">
        <ele>1150.0104</ele>
        <time>2011-05-29T05:46:28Z</time>
      </trkpt>
      <trkpt lat="46.222370" lon="13.945519">
        <ele>1148.7912</ele>
        <time>2011-05-29T05:46:39Z</time>
      </trkpt>
      <trkpt lat="46.222458" lon="13.945385">
        <ele>1150.0104</ele>
        <time>2011-05-29T05:46:55Z</time>
      </trkpt>
      <trkpt lat="46.222517" lon="13.945287">
        <ele>1152.7536</ele>
        <time>2011-05-29T05:47:01Z</time>
      </trkpt>
      <trkpt lat="46.222601" lon="13.945211">
        <ele>1154.2776</ele>
        <time>2011-05-29T05:47:29Z</time>
      </trkpt>
      <trkpt lat="46.222653" lon="13.945152">
        <ele>1162.812</ele>
        <time>2011-05-29T05:47:45Z</time>
      </trkpt>
      <trkpt lat="46.222730" lon="13.945011">
        <ele>1167.9936</ele>
        <time>2011-05-29T05:47:53Z</time>
      </trkpt>
      <trkpt lat="46.222822" lon="13.944885">
        <ele>1161.8976</ele>
        <time>2011-05-29T05:48:14Z</time>
      </trkpt>
      <trkpt lat="46.222942" lon="13.944738">
        <ele>1165.2504</ele>
        <time>2011-05-29T05:48:20Z</time>
      </trkpt>
      <trkpt lat="46.223007" lon="13.944635">
        <ele>1175.004</ele>
        <time>2011-05-29T05:48:39Z</time>
      </trkpt>
      <trkpt lat="46.223116" lon="13.944636">
        <ele>1173.7848</ele>
        <time>2011-05-29T05:49:06Z</time>
      </trkpt>
      <trkpt lat="46.223196" lon="13.944635">
        <ele>1184.4528</ele>
        <time>2011-05-29T05:49:25Z</time>
      </trkpt>
      <trkpt lat="46.223232" lon="13.944526">
        <ele>1181.7096</ele>
        <time>2011-05-29T05:49:33Z</time>
      </trkpt>
      <trkpt lat="46.223253" lon="13.944398">
        <ele>1180.4904</ele>
        <time>2011-05-29T05:49:44Z</time>
      </trkpt>
      <trkpt lat="46.223221" lon="13.944384">
        <ele>1193.5968</ele>
        <time>2011-05-29T05:50:16Z</time>
      </trkpt>
      <trkpt lat="46.223157" lon="13.944301">
        <ele>1199.388</ele>
        <time>2011-05-29T05:50:46Z</time>
      </trkpt>
      <trkpt lat="46.223220" lon="13.944108">
        <ele>1206.7032</ele>
        <time>2011-05-29T05:51:05Z</time>
      </trkpt>
      <trkpt lat="46.223308" lon="13.944010">
        <ele>1202.1312</ele>
        <time>2011-05-29T05:51:17Z</time>
      </trkpt>
      <trkpt lat="46.223386" lon="13.943951">
        <ele>1212.7992</ele>
        <time>2011-05-29T05:51:52Z</time>
      </trkpt>
      <trkpt lat="46.223510" lon="13.943856">
        <ele>1212.7992</ele>
        <time>2011-05-29T05:51:55Z</time>
      </trkpt>
      <trkpt lat="46.223598" lon="13.943787">
        <ele>1207.9224</ele>
        <time>2011-05-29T05:52:03Z</time>
      </trkpt>
      <trkpt lat="46.223649" lon="13.943691">
        <ele>1216.7616</ele>
        <time>2011-05-29T05:52:15Z</time>
      </trkpt>
      <trkpt lat="46.223756" lon="13.943644">
        <ele>1215.8472</ele>
        <time>2011-05-29T05:52:19Z</time>
      </trkpt>
      <trkpt lat="46.223810" lon="13.943536">
        <ele>1227.7344</ele>
        <time>2011-05-29T05:53:02Z</time>
      </trkpt>
      <trkpt lat="46.223868" lon="13.943437">
        <ele>1227.7344</ele>
        <time>2011-05-29T05:53:16Z</time>
      </trkpt>
      <trkpt lat="46.223960" lon="13.943314">
        <ele>1233.5256</ele>
        <time>2011-05-29T05:53:20Z</time>
      </trkpt>
      <trkpt lat="46.224086" lon="13.943174">
        <ele>1223.772</ele>
        <time>2011-05-29T05:53:25Z</time>
      </trkpt>
      <trkpt lat="46.224130" lon="13.943059">
        <ele>1235.3544</ele>
        <time>2011-05-29T05:54:00Z</time>
      </trkpt>
      <trkpt lat="46.224182" lon="13.942963">
        <ele>1235.964</ele>
        <time>2011-05-29T05:54:41Z</time>
      </trkpt>
      <trkpt lat="46.224174" lon="13.942875">
        <ele>1244.4984</ele>
        <time>2011-05-29T05:55:20Z</time>
      </trkpt>
      <trkpt lat="46.224090" lon="13.942833">
        <ele>1247.5464</ele>
        <time>2011-05-29T05:55:28Z</time>
      </trkpt>
      <trkpt lat="46.223997" lon="13.942863">
        <ele>1255.4712</ele>
        <time>2011-05-29T05:55:47Z</time>
      </trkpt>
      <trkpt lat="46.223955" lon="13.942760">
        <ele>1257.9096</ele>
        <time>2011-05-29T05:56:10Z</time>
      </trkpt>
      <trkpt lat="46.223857" lon="13.942784">
        <ele>1254.5568</ele>
        <time>2011-05-29T05:56:20Z</time>
      </trkpt>
      <trkpt lat="46.223774" lon="13.942835">
        <ele>1259.4336</ele>
        <time>2011-05-29T05:56:25Z</time>
      </trkpt>
      <trkpt lat="46.223690" lon="13.942889">
        <ele>1262.4816</ele>
        <time>2011-05-29T05:56:41Z</time>
      </trkpt>
      <trkpt lat="46.223607" lon="13.942959">
        <ele>1266.1392</ele>
        <time>2011-05-29T05:56:57Z</time>
      </trkpt>
      <trkpt lat="46.223503" lon="13.943092">
        <ele>1271.9304</ele>
        <time>2011-05-29T05:57:08Z</time>
      </trkpt>
      <trkpt lat="46.223485" lon="13.943030">
        <ele>1265.2248</ele>
        <time>2011-05-29T05:59:04Z</time>
      </trkpt>
      <trkpt lat="46.223495" lon="13.942943">
        <ele>1280.4648</ele>
        <time>2011-05-29T05:59:37Z</time>
      </trkpt>
      <trkpt lat="46.223578" lon="13.942793">
        <ele>1273.7592</ele>
        <time>2011-05-29T05:59:46Z</time>
      </trkpt>
      <trkpt lat="46.223670" lon="13.942594">
        <ele>1277.7216</ele>
        <time>2011-05-29T06:00:17Z</time>
      </trkpt>
      <trkpt lat="46.223750" lon="13.942434">
        <ele>1281.9888</ele>
        <time>2011-05-29T06:00:28Z</time>
      </trkpt>
      <trkpt lat="46.223852" lon="13.942286">
        <ele>1287.78</ele>
        <time>2011-05-29T06:00:59Z</time>
      </trkpt>
      <trkpt lat="46.223920" lon="13.942179">
        <ele>1291.1328</ele>
        <time>2011-05-29T06:00:59Z</time>
      </trkpt>
      <trkpt lat="46.224027" lon="13.942111">
        <ele>1293.5712</ele>
        <time>2011-05-29T06:01:06Z</time>
      </trkpt>
      <trkpt lat="46.224123" lon="13.942065">
        <ele>1297.8384</ele>
        <time>2011-05-29T06:01:10Z</time>
      </trkpt>
      <trkpt lat="46.224219" lon="13.941990">
        <ele>1287.78</ele>
        <time>2011-05-29T06:01:14Z</time>
      </trkpt>
      <trkpt lat="46.224305" lon="13.941987">
        <ele>1295.4</ele>
        <time>2011-05-29T06:01:30Z</time>
      </trkpt>
      <trkpt lat="46.224374" lon="13.941982">
        <ele>1303.3248</ele>
        <time>2011-05-29T06:01:53Z</time>
      </trkpt>
      <trkpt lat="46.224447" lon="13.942065">
        <ele>1299.972</ele>
        <time>2011-05-29T06:02:09Z</time>
      </trkpt>
      <trkpt lat="46.224461" lon="13.941935">
        <ele>1310.3352</ele>
        <time>2011-05-29T06:02:25Z</time>
      </trkpt>
      <trkpt lat="46.224550" lon="13.941924">
        <ele>1309.4208</ele>
        <time>2011-05-29T06:02:52Z</time>
      </trkpt>
      <trkpt lat="46.224616" lon="13.941885">
        <ele>1321.9176</ele>
        <time>2011-05-29T06:03:45Z</time>
      </trkpt>
      <trkpt lat="46.224758" lon="13.941796">
        <ele>1320.3936</ele>
        <time>2011-05-29T06:04:00Z</time>
      </trkpt>
      <trkpt lat="46.224868" lon="13.941740">
        <ele>1323.4416</ele>
        <time>2011-05-29T06:04:21Z</time>
      </trkpt>
      <trkpt lat="46.224906" lon="13.941568">
        <ele>1335.3288</ele>
        <time>2011-05-29T06:04:40Z</time>
      </trkpt>
      <trkpt lat="46.224941" lon="13.941386">
        <ele>1338.3768</ele>
        <time>2011-05-29T06:04:57Z</time>
      </trkpt>
      <trkpt lat="46.225000" lon="13.941276">
        <ele>1332.5856</ele>
        <time>2011-05-29T06:05:17Z</time>
      </trkpt>
      <trkpt lat="46.225060" lon="13.941188">
        <ele>1348.4352</ele>
        <time>2011-05-29T06:05:51Z</time>
      </trkpt>
      <trkpt lat="46.225051" lon="13.941030">
        <ele>1344.168</ele>
        <time>2011-05-29T06:06:08Z</time>
      </trkpt>
      <trkpt lat="46.225053" lon="13.940905">
        <ele>1347.5208</ele>
        <time>2011-05-29T06:06:43Z</time>
      </trkpt>
      <trkpt lat="46.224998" lon="13.940813">
        <ele>1364.2848</ele>
        <time>2011-05-29T06:06:59Z</time>
      </trkpt>
      <trkpt lat="46.224864" lon="13.940700">
        <ele>1362.7608</ele>
        <time>2011-05-29T06:07:28Z</time>
      </trkpt>
      <trkpt lat="46.224912" lon="13.940617">
        <ele>1361.2368</ele>
        <time>2011-05-29T06:08:15Z</time>
      </trkpt>
      <trkpt lat="46.224999" lon="13.940586">
        <ele>1371.6</ele>
        <time>2011-05-29T06:08:24Z</time>
      </trkpt>
      <trkpt lat="46.225068" lon="13.940595">
        <ele>1376.172</ele>
        <time>2011-05-29T06:08:51Z</time>
      </trkpt>
      <trkpt lat="46.225126" lon="13.940716">
        <ele>1374.3432</ele>
        <time>2011-05-29T06:09:09Z</time>
      </trkpt>
      <trkpt lat="46.225138" lon="13.940574">
        <ele>1377.696</ele>
        <time>2011-05-29T06:09:23Z</time>
      </trkpt>
      <trkpt lat="46.225142" lon="13.940428">
        <ele>1379.22</ele>
        <time>2011-05-29T06:09:37Z</time>
      </trkpt>
      <trkpt lat="46.225201" lon="13.940333">
        <ele>1376.172</ele>
        <time>2011-05-29T06:09:48Z</time>
      </trkpt>
      <trkpt lat="46.225306" lon="13.940231">
        <ele>1383.4872</ele>
        <time>2011-05-29T06:09:54Z</time>
      </trkpt>
      <trkpt lat="46.225402" lon="13.940150">
        <ele>1387.7544</ele>
        <time>2011-05-29T06:10:00Z</time>
      </trkpt>
      <trkpt lat="46.225428" lon="13.940060">
        <ele>1388.6688</ele>
        <time>2011-05-29T06:10:27Z</time>
      </trkpt>
      <trkpt lat="46.225520" lon="13.940055">
        <ele>1387.4496</ele>
        <time>2011-05-29T06:10:46Z</time>
      </trkpt>
      <trkpt lat="46.225605" lon="13.940019">
        <ele>1394.46</ele>
        <time>2011-05-29T06:11:04Z</time>
      </trkpt>
      <trkpt lat="46.225670" lon="13.940082">
        <ele>1393.5456</ele>
        <time>2011-05-29T06:11:24Z</time>
      </trkpt>
      <trkpt lat="46.225700" lon="13.939975">
        <ele>1403.2992</ele>
        <time>2011-05-29T06:12:07Z</time>
      </trkpt>
      <trkpt lat="46.225794" lon="13.939902">
        <ele>1403.604</ele>
        <time>2011-05-29T06:12:14Z</time>
      </trkpt>
      <trkpt lat="46.225900" lon="13.939766">
        <ele>1410.9192</ele>
        <time>2011-05-29T06:12:22Z</time>
      </trkpt>
      <trkpt lat="46.225976" lon="13.939690">
        <ele>1405.128</ele>
        <time>2011-05-29T06:12:26Z</time>
      </trkpt>
      <trkpt lat="46.226022" lon="13.939555">
        <ele>1405.128</ele>
        <time>2011-05-29T06:12:36Z</time>
      </trkpt>
      <trkpt lat="46.226044" lon="13.939461">
        <ele>1409.0904</ele>
        <time>2011-05-29T06:12:48Z</time>
      </trkpt>
      <trkpt lat="46.226048" lon="13.939622">
        <ele>1409.3952</ele>
        <time>2011-05-29T06:13:04Z</time>
      </trkpt>
      <trkpt lat="46.226073" lon="13.939743">
        <ele>1417.9296</ele>
        <time>2011-05-29T06:13:19Z</time>
      </trkpt>
      <trkpt lat="46.226095" lon="13.939760">
        <ele>1426.1592</ele>
        <time>2011-05-29T06:14:13Z</time>
      </trkpt>
      <trkpt lat="46.226182" lon="13.939649">
        <ele>1423.7208</ele>
        <time>2011-05-29T06:14:25Z</time>
      </trkpt>
      <trkpt lat="46.226296" lon="13.939562">
        <ele>1422.5016</ele>
        <time>2011-05-29T06:14:29Z</time>
      </trkpt>
      <trkpt lat="46.226363" lon="13.939442">
        <ele>1434.9984</ele>
        <time>2011-05-29T06:14:36Z</time>
      </trkpt>
      <trkpt lat="46.226426" lon="13.939317">
        <ele>1433.4744</ele>
        <time>2011-05-29T06:14:45Z</time>
      </trkpt>
      <trkpt lat="46.226465" lon="13.939262">
        <ele>1435.3032</ele>
        <time>2011-05-29T06:14:56Z</time>
      </trkpt>
      <trkpt lat="46.226499" lon="13.939386">
        <ele>1439.2656</ele>
        <time>2011-05-29T06:15:16Z</time>
      </trkpt>
      <trkpt lat="46.226545" lon="13.939510">
        <ele>1443.228</ele>
        <time>2011-05-29T06:15:27Z</time>
      </trkpt>
      <trkpt lat="46.226626" lon="13.939504">
        <ele>1440.18</ele>
        <time>2011-05-29T06:16:05Z</time>
      </trkpt>
      <trkpt lat="46.226629" lon="13.939375">
        <ele>1449.324</ele>
        <time>2011-05-29T06:16:24Z</time>
      </trkpt>
      <trkpt lat="46.226669" lon="13.939258">
        <ele>1452.0672</ele>
        <time>2011-05-29T06:16:37Z</time>
      </trkpt>
      <trkpt lat="46.226715" lon="13.939216">
        <ele>1455.42</ele>
        <time>2011-05-29T06:17:23Z</time>
      </trkpt>
      <trkpt lat="46.226799" lon="13.939138">
        <ele>1452.6768</ele>
        <time>2011-05-29T06:17:45Z</time>
      </trkpt>
      <trkpt lat="46.226812" lon="13.939008">
        <ele>1463.6496</ele>
        <time>2011-05-29T06:18:05Z</time>
      </trkpt>
      <trkpt lat="46.226801" lon="13.938886">
        <ele>1465.7832</ele>
        <time>2011-05-29T06:18:13Z</time>
      </trkpt>
      <trkpt lat="46.226765" lon="13.938740">
        <ele>1470.3552</ele>
        <time>2011-05-29T06:18:28Z</time>
      </trkpt>
      <trkpt lat="46.226774" lon="13.938604">
        <ele>1467.0024</ele>
        <time>2011-05-29T06:18:43Z</time>
      </trkpt>
      <trkpt lat="46.226740" lon="13.938484">
        <ele>1474.3176</ele>
        <time>2011-05-29T06:19:00Z</time>
      </trkpt>
      <trkpt lat="46.226810" lon="13.938453">
        <ele>1476.756</ele>
        <time>2011-05-29T06:19:15Z</time>
      </trkpt>
      <trkpt lat="46.226912" lon="13.938519">
        <ele>1479.4992</ele>
        <time>2011-05-29T06:19:30Z</time>
      </trkpt>
      <trkpt lat="46.226921" lon="13.938450">
        <ele>1477.6704</ele>
        <time>2011-05-29T06:19:46Z</time>
      </trkpt>
      <trkpt lat="46.226883" lon="13.938338">
        <ele>1478.5848</ele>
        <time>2011-05-29T06:19:57Z</time>
      </trkpt>
      <trkpt lat="46.226972" lon="13.938296">
        <ele>1488.3384</ele>
        <time>2011-05-29T06:20:19Z</time>
      </trkpt>
      <trkpt lat="46.227030" lon="13.938321">
        <ele>1494.1296</ele>
        <time>2011-05-29T06:21:41Z</time>
      </trkpt>
      <trkpt lat="46.226999" lon="13.938243">
        <ele>1492.9104</ele>
        <time>2011-05-29T06:22:00Z</time>
      </trkpt>
      <trkpt lat="46.226931" lon="13.938119">
        <ele>1487.424</ele>
        <time>2011-05-29T06:22:09Z</time>
      </trkpt>
      <trkpt lat="46.226927" lon="13.937968">
        <ele>1499.3112</ele>
        <time>2011-05-29T06:22:30Z</time>
      </trkpt>
      <trkpt lat="46.226957" lon="13.937845">
        <ele>1500.2256</ele>
        <time>2011-05-29T06:23:49Z</time>
      </trkpt>
      <trkpt lat="46.226967" lon="13.937793">
        <ele>1503.5784</ele>
        <time>2011-05-29T06:27:18Z</time>
      </trkpt>
      <trkpt lat="46.226994" lon="13.937833">
        <ele>1509.9792</ele>
        <time>2011-05-29T06:29:08Z</time>
      </trkpt>
      <trkpt lat="46.227073" lon="13.937913">
        <ele>1500.2256</ele>
        <time>2011-05-29T06:29:16Z</time>
      </trkpt>
      <trkpt lat="46.227057" lon="13.937808">
        <ele>1517.5992</ele>
        <time>2011-05-29T06:29:29Z</time>
      </trkpt>
      <trkpt lat="46.227142" lon="13.937843">
        <ele>1514.5512</ele>
        <time>2011-05-29T06:29:43Z</time>
      </trkpt>
      <trkpt lat="46.227229" lon="13.937923">
        <ele>1517.5992</ele>
        <time>2011-05-29T06:29:52Z</time>
      </trkpt>
      <trkpt lat="46.227309" lon="13.937997">
        <ele>1519.428</ele>
        <time>2011-05-29T06:30:03Z</time>
      </trkpt>
      <trkpt lat="46.227404" lon="13.937996">
        <ele>1516.0752</ele>
        <time>2011-05-29T06:30:17Z</time>
      </trkpt>
      <trkpt lat="46.227503" lon="13.937987">
        <ele>1520.0376</ele>
        <time>2011-05-29T06:30:30Z</time>
      </trkpt>
      <trkpt lat="46.227593" lon="13.938001">
        <ele>1532.8392</ele>
        <time>2011-05-29T06:30:49Z</time>
      </trkpt>
      <trkpt lat="46.227681" lon="13.938018">
        <ele>1531.9248</ele>
        <time>2011-05-29T06:31:07Z</time>
      </trkpt>
      <trkpt lat="46.227756" lon="13.938092">
        <ele>1531.9248</ele>
        <time>2011-05-29T06:31:28Z</time>
      </trkpt>
      <trkpt lat="46.227832" lon="13.938143">
        <ele>1546.86</ele>
        <time>2011-05-29T06:32:57Z</time>
      </trkpt>
      <trkpt lat="46.227914" lon="13.938216">
        <ele>1559.3568</ele>
        <time>2011-05-29T06:33:07Z</time>
      </trkpt>
      <trkpt lat="46.227993" lon="13.938274">
        <ele>1551.7368</ele>
        <time>2011-05-29T06:33:16Z</time>
      </trkpt>
      <trkpt lat="46.228111" lon="13.938331">
        <ele>1558.4424</ele>
        <time>2011-05-29T06:33:54Z</time>
      </trkpt>
      <trkpt lat="46.228176" lon="13.938437">
        <ele>1558.4424</ele>
        <time>2011-05-29T06:34:03Z</time>
      </trkpt>
      <trkpt lat="46.228217" lon="13.938562">
        <ele>1569.1104</ele>
        <time>2011-05-29T06:34:24Z</time>
      </trkpt>
      <trkpt lat="46.228231" lon="13.938692">
        <ele>1568.5008</ele>
        <time>2011-05-29T06:34:37Z</time>
      </trkpt>
      <trkpt lat="46.228308" lon="13.938715">
        <ele>1578.5592</ele>
        <time>2011-05-29T06:35:31Z</time>
      </trkpt>
      <trkpt lat="46.228370" lon="13.938791">
        <ele>1585.2648</ele>
        <time>2011-05-29T06:35:46Z</time>
      </trkpt>
      <trkpt lat="46.228461" lon="13.938857">
        <ele>1587.3984</ele>
        <time>2011-05-29T06:36:04Z</time>
      </trkpt>
      <trkpt lat="46.228517" lon="13.938995">
        <ele>1589.532</ele>
        <time>2011-05-29T06:36:24Z</time>
      </trkpt>
      <trkpt lat="46.228534" lon="13.939116">
        <ele>1583.436</ele>
        <time>2011-05-29T06:36:39Z</time>
      </trkpt>
      <trkpt lat="46.228577" lon="13.939252">
        <ele>1599.8952</ele>
        <time>2011-05-29T06:36:55Z</time>
      </trkpt>
      <trkpt lat="46.228649" lon="13.939293">
        <ele>1598.3712</ele>
        <time>2011-05-29T06:37:10Z</time>
      </trkpt>
      <trkpt lat="46.228699" lon="13.939221">
        <ele>1596.8472</ele>
        <time>2011-05-29T06:37:30Z</time>
      </trkpt>
      <trkpt lat="46.228761" lon="13.939127">
        <ele>1603.248</ele>
        <time>2011-05-29T06:37:46Z</time>
      </trkpt>
      <trkpt lat="46.228833" lon="13.939047">
        <ele>1609.0392</ele>
        <time>2011-05-29T06:37:56Z</time>
      </trkpt>
      <trkpt lat="46.228908" lon="13.939095">
        <ele>1609.9536</ele>
        <time>2011-05-29T06:38:19Z</time>
      </trkpt>
      <trkpt lat="46.228924" lon="13.939228">
        <ele>1606.9056</ele>
        <time>2011-05-29T06:38:29Z</time>
      </trkpt>
      <trkpt lat="46.228968" lon="13.939346">
        <ele>1606.6008</ele>
        <time>2011-05-29T06:38:42Z</time>
      </trkpt>
      <trkpt lat="46.229018" lon="13.939272">
        <ele>1616.6592</ele>
        <time>2011-05-29T06:39:02Z</time>
      </trkpt>
      <trkpt lat="46.229069" lon="13.939197">
        <ele>1612.392</ele>
        <time>2011-05-29T06:39:34Z</time>
      </trkpt>
      <trkpt lat="46.229150" lon="13.939101">
        <ele>1623.3648</ele>
        <time>2011-05-29T06:39:45Z</time>
      </trkpt>
      <trkpt lat="46.229180" lon="13.939196">
        <ele>1623.6696</ele>
        <time>2011-05-29T06:39:57Z</time>
      </trkpt>
      <trkpt lat="46.229197" lon="13.939332">
        <ele>1620.012</ele>
        <time>2011-05-29T06:40:09Z</time>
      </trkpt>
      <trkpt lat="46.229243" lon="13.939395">
        <ele>1631.8992</ele>
        <time>2011-05-29T06:40:30Z</time>
      </trkpt>
      <trkpt lat="46.229315" lon="13.939312">
        <ele>1625.1936</ele>
        <time>2011-05-29T06:40:43Z</time>
      </trkpt>
      <trkpt lat="46.229387" lon="13.939227">
        <ele>1633.4232</ele>
        <time>2011-05-29T06:41:14Z</time>
      </trkpt>
      <trkpt lat="46.229433" lon="13.939118">
        <ele>1631.5944</ele>
        <time>2011-05-29T06:41:28Z</time>
      </trkpt>
      <trkpt lat="46.229513" lon="13.939051">
        <ele>1642.5672</ele>
        <time>2011-05-29T06:41:38Z</time>
      </trkpt>
      <trkpt lat="46.229571" lon="13.939026">
        <ele>1634.0328</ele>
        <time>2011-05-29T06:41:56Z</time>
      </trkpt>
      <trkpt lat="46.229630" lon="13.938915">
        <ele>1650.7968</ele>
        <time>2011-05-29T06:42:14Z</time>
      </trkpt>
      <trkpt lat="46.229708" lon="13.938860">
        <ele>1648.3584</ele>
        <time>2011-05-29T06:42:27Z</time>
      </trkpt>
      <trkpt lat="46.229789" lon="13.938803">
        <ele>1654.1496</ele>
        <time>2011-05-29T06:42:41Z</time>
      </trkpt>
      <trkpt lat="46.229837" lon="13.938694">
        <ele>1646.5296</ele>
        <time>2011-05-29T06:42:55Z</time>
      </trkpt>
      <trkpt lat="46.229885" lon="13.938584">
        <ele>1649.8824</ele>
        <time>2011-05-29T06:43:10Z</time>
      </trkpt>
      <trkpt lat="46.229944" lon="13.938481">
        <ele>1661.7696</ele>
        <time>2011-05-29T06:43:24Z</time>
      </trkpt>
      <trkpt lat="46.230003" lon="13.938386">
        <ele>1659.9408</ele>
        <time>2011-05-29T06:43:40Z</time>
      </trkpt>
      <trkpt lat="46.230030" lon="13.938260">
        <ele>1659.0264</ele>
        <time>2011-05-29T06:43:51Z</time>
      </trkpt>
      <trkpt lat="46.230080" lon="13.938171">
        <ele>1659.9408</ele>
        <time>2011-05-29T06:44:07Z</time>
      </trkpt>
      <trkpt lat="46.230152" lon="13.938085">
        <ele>1665.732</ele>
        <time>2011-05-29T06:45:54Z</time>
      </trkpt>
      <trkpt lat="46.230192" lon="13.937971">
        <ele>1667.5608</ele>
        <time>2011-05-29T06:46:03Z</time>
      </trkpt>
      <trkpt lat="46.230255" lon="13.937878">
        <ele>1674.2664</ele>
        <time>2011-05-29T06:46:19Z</time>
      </trkpt>
      <trkpt lat="46.230323" lon="13.937801">
        <ele>1672.4376</ele>
        <time>2011-05-29T06:46:34Z</time>
      </trkpt>
      <trkpt lat="46.230375" lon="13.937703">
        <ele>1684.3248</ele>
        <time>2011-05-29T06:46:52Z</time>
      </trkpt>
      <trkpt lat="46.230426" lon="13.937603">
        <ele>1684.9344</ele>
        <time>2011-05-29T06:47:05Z</time>
      </trkpt>
      <trkpt lat="46.230486" lon="13.937503">
        <ele>1686.7632</ele>
        <time>2011-05-29T06:47:16Z</time>
      </trkpt>
      <trkpt lat="46.230486" lon="13.937385">
        <ele>1685.2392</ele>
        <time>2011-05-29T06:47:31Z</time>
      </trkpt>
      <trkpt lat="46.230504" lon="13.937247">
        <ele>1693.4688</ele>
        <time>2011-05-29T06:47:40Z</time>
      </trkpt>
      <trkpt lat="46.230546" lon="13.937131">
        <ele>1685.8488</ele>
        <time>2011-05-29T06:47:55Z</time>
      </trkpt>
      <trkpt lat="46.230576" lon="13.937011">
        <ele>1694.3832</ele>
        <time>2011-05-29T06:48:06Z</time>
      </trkpt>
      <trkpt lat="46.230613" lon="13.936885">
        <ele>1691.64</ele>
        <time>2011-05-29T06:48:19Z</time>
      </trkpt>
      <trkpt lat="46.230651" lon="13.936751">
        <ele>1698.3456</ele>
        <time>2011-05-29T06:48:34Z</time>
      </trkpt>
      <trkpt lat="46.230710" lon="13.936661">
        <ele>1703.5272</ele>
        <time>2011-05-29T06:48:54Z</time>
      </trkpt>
      <trkpt lat="46.230740" lon="13.936537">
        <ele>1700.784</ele>
        <time>2011-05-29T06:49:12Z</time>
      </trkpt>
      <trkpt lat="46.230777" lon="13.936430">
        <ele>1705.6608</ele>
        <time>2011-05-29T06:49:39Z</time>
      </trkpt>
      <trkpt lat="46.230814" lon="13.936329">
        <ele>1712.3664</ele>
        <time>2011-05-29T06:49:57Z</time>
      </trkpt>
      <trkpt lat="46.230865" lon="13.936227">
        <ele>1720.9008</ele>
        <time>2011-05-29T06:50:22Z</time>
      </trkpt>
      <trkpt lat="46.230935" lon="13.936139">
        <ele>1724.8632</ele>
        <time>2011-05-29T06:50:56Z</time>
      </trkpt>
      <trkpt lat="46.230958" lon="13.936008">
        <ele>1729.4352</ele>
        <time>2011-05-29T06:51:19Z</time>
      </trkpt>
      <trkpt lat="46.231014" lon="13.935920">
        <ele>1729.1304</ele>
        <time>2011-05-29T06:51:34Z</time>
      </trkpt>
      <trkpt lat="46.231065" lon="13.936028">
        <ele>1734.9216</ele>
        <time>2011-05-29T06:51:43Z</time>
      </trkpt>
      <trkpt lat="46.231144" lon="13.936085">
        <ele>1727.3016</ele>
        <time>2011-05-29T06:51:55Z</time>
      </trkpt>
      <trkpt lat="46.231201" lon="13.935983">
        <ele>1731.8736</ele>
        <time>2011-05-29T06:52:09Z</time>
      </trkpt>
      <trkpt lat="46.231243" lon="13.935861">
        <ele>1741.0176</ele>
        <time>2011-05-29T06:52:28Z</time>
      </trkpt>
      <trkpt lat="46.231302" lon="13.935757">
        <ele>1744.0656</ele>
        <time>2011-05-29T06:52:45Z</time>
      </trkpt>
      <trkpt lat="46.231334" lon="13.935639">
        <ele>1749.2472</ele>
        <time>2011-05-29T06:52:57Z</time>
      </trkpt>
      <trkpt lat="46.231360" lon="13.935515">
        <ele>1748.3328</ele>
        <time>2011-05-29T06:53:07Z</time>
      </trkpt>
      <trkpt lat="46.231335" lon="13.935402">
        <ele>1748.3328</ele>
        <time>2011-05-29T06:53:50Z</time>
      </trkpt>
      <trkpt lat="46.231273" lon="13.935331">
        <ele>1746.504</ele>
        <time>2011-05-29T06:54:01Z</time>
      </trkpt>
      <trkpt lat="46.231245" lon="13.935214">
        <ele>1744.98</ele>
        <time>2011-05-29T06:54:17Z</time>
      </trkpt>
      <trkpt lat="46.231180" lon="13.935127">
        <ele>1755.9528</ele>
        <time>2011-05-29T06:54:36Z</time>
      </trkpt>
      <trkpt lat="46.231117" lon="13.935032">
        <ele>1756.5624</ele>
        <time>2011-05-29T06:54:54Z</time>
      </trkpt>
      <trkpt lat="46.231022" lon="13.934981">
        <ele>1765.7064</ele>
        <time>2011-05-29T06:55:08Z</time>
      </trkpt>
      <trkpt lat="46.231018" lon="13.934900">
        <ele>1764.1824</ele>
        <time>2011-05-29T06:55:27Z</time>
      </trkpt>
      <trkpt lat="46.231110" lon="13.934862">
        <ele>1755.9528</ele>
        <time>2011-05-29T06:55:39Z</time>
      </trkpt>
      <trkpt lat="46.231114" lon="13.934794">
        <ele>1758.3912</ele>
        <time>2011-05-29T06:55:53Z</time>
      </trkpt>
      <trkpt lat="46.231042" lon="13.934704">
        <ele>1775.1552</ele>
        <time>2011-05-29T06:56:09Z</time>
      </trkpt>
      <trkpt lat="46.230987" lon="13.934593">
        <ele>1775.1552</ele>
        <time>2011-05-29T06:56:33Z</time>
      </trkpt>
      <trkpt lat="46.230906" lon="13.934575">
        <ele>1783.3848</ele>
        <time>2011-05-29T06:56:47Z</time>
      </trkpt>
      <trkpt lat="46.230822" lon="13.934520">
        <ele>1787.3472</ele>
        <time>2011-05-29T06:57:03Z</time>
      </trkpt>
      <trkpt lat="46.230707" lon="13.934406">
        <ele>1781.8608</ele>
        <time>2011-05-29T06:57:34Z</time>
      </trkpt>
      <trkpt lat="46.230644" lon="13.934309">
        <ele>1791.9192</ele>
        <time>2011-05-29T06:57:44Z</time>
      </trkpt>
      <trkpt lat="46.230569" lon="13.934244">
        <ele>1794.0528</ele>
        <time>2011-05-29T06:57:56Z</time>
      </trkpt>
      <trkpt lat="46.230545" lon="13.934115">
        <ele>1796.796</ele>
        <time>2011-05-29T06:58:15Z</time>
      </trkpt>
      <trkpt lat="46.230543" lon="13.933993">
        <ele>1803.5016</ele>
        <time>2011-05-29T06:58:32Z</time>
      </trkpt>
      <trkpt lat="46.230539" lon="13.933847">
        <ele>1797.7104</ele>
        <time>2011-05-29T06:58:43Z</time>
      </trkpt>
      <trkpt lat="46.230552" lon="13.933713">
        <ele>1804.416</ele>
        <time>2011-05-29T06:58:51Z</time>
      </trkpt>
      <trkpt lat="46.230554" lon="13.933576">
        <ele>1801.6728</ele>
        <time>2011-05-29T06:58:58Z</time>
      </trkpt>
      <trkpt lat="46.230551" lon="13.933381">
        <ele>1805.6352</ele>
        <time>2011-05-29T06:59:10Z</time>
      </trkpt>
      <trkpt lat="46.230536" lon="13.933245">
        <ele>1796.796</ele>
        <time>2011-05-29T06:59:18Z</time>
      </trkpt>
      <trkpt lat="46.230561" lon="13.933122">
        <ele>1804.416</ele>
        <time>2011-05-29T06:59:29Z</time>
      </trkpt>
      <trkpt lat="46.230578" lon="13.932956">
        <ele>1808.3784</ele>
        <time>2011-05-29T06:59:41Z</time>
      </trkpt>
      <trkpt lat="46.230580" lon="13.932824">
        <ele>1807.464</ele>
        <time>2011-05-29T06:59:52Z</time>
      </trkpt>
      <trkpt lat="46.230593" lon="13.932666">
        <ele>1809.2928</ele>
        <time>2011-05-29T07:00:03Z</time>
      </trkpt>
      <trkpt lat="46.230601" lon="13.932526">
        <ele>1800.1488</ele>
        <time>2011-05-29T07:00:09Z</time>
      </trkpt>
      <trkpt lat="46.230591" lon="13.932358">
        <ele>1804.1112</ele>
        <time>2011-05-29T07:00:20Z</time>
      </trkpt>
      <trkpt lat="46.230582" lon="13.932225">
        <ele>1804.416</ele>
        <time>2011-05-29T07:00:28Z</time>
      </trkpt>
      <trkpt lat="46.230605" lon="13.932043">
        <ele>1809.9024</ele>
        <time>2011-05-29T07:00:39Z</time>
      </trkpt>
      <trkpt lat="46.230624" lon="13.931910">
        <ele>1810.2072</ele>
        <time>2011-05-29T07:00:50Z</time>
      </trkpt>
      <trkpt lat="46.230689" lon="13.931821">
        <ele>1812.3408</ele>
        <time>2011-05-29T07:00:59Z</time>
      </trkpt>
      <trkpt lat="46.230769" lon="13.931756">
        <ele>1812.6456</ele>
        <time>2011-05-29T07:01:17Z</time>
      </trkpt>
      <trkpt lat="46.230821" lon="13.931647">
        <ele>1813.56</ele>
        <time>2011-05-29T07:01:29Z</time>
      </trkpt>
      <trkpt lat="46.230894" lon="13.931559">
        <ele>1814.7792</ele>
        <time>2011-05-29T07:01:40Z</time>
      </trkpt>
      <trkpt lat="46.230860" lon="13.931432">
        <ele>1810.8168</ele>
        <time>2011-05-29T07:01:52Z</time>
      </trkpt>
      <trkpt lat="46.230887" lon="13.931347">
        <ele>1819.0464</ele>
        <time>2011-05-29T07:02:16Z</time>
      </trkpt>
      <trkpt lat="46.230943" lon="13.931450">
        <ele>1815.6936</ele>
        <time>2011-05-29T07:02:38Z</time>
      </trkpt>
      <trkpt lat="46.230929" lon="13.931324">
        <ele>1824.228</ele>
        <time>2011-05-29T07:03:01Z</time>
      </trkpt>
      <trkpt lat="46.231009" lon="13.931313">
        <ele>1819.3512</ele>
        <time>2011-05-29T07:03:16Z</time>
      </trkpt>
      <trkpt lat="46.231076" lon="13.931318">
        <ele>1830.6288</ele>
        <time>2011-05-29T07:03:43Z</time>
      </trkpt>
      <trkpt lat="46.231133" lon="13.931465">
        <ele>1834.2864</ele>
        <time>2011-05-29T07:03:55Z</time>
      </trkpt>
      <trkpt lat="46.231174" lon="13.931591">
        <ele>1830.9336</ele>
        <time>2011-05-29T07:04:06Z</time>
      </trkpt>
      <trkpt lat="46.231155" lon="13.931641">
        <ele>1830.6288</ele>
        <time>2011-05-29T07:11:42Z</time>
      </trkpt>
      <trkpt lat="46.231174" lon="13.931626">
        <ele>1828.4952</ele>
        <time>2011-05-29T07:15:14Z</time>
      </trkpt>
      <trkpt lat="46.231127" lon="13.931509">
        <ele>1821.4848</ele>
        <time>2011-05-29T07:15:41Z</time>
      </trkpt>
      <trkpt lat="46.231106" lon="13.931391">
        <ele>1829.4096</ele>
        <time>2011-05-29T07:15:50Z</time>
      </trkpt>
      <trkpt lat="46.231034" lon="13.931304">
        <ele>1827.5808</ele>
        <time>2011-05-29T07:16:04Z</time>
      </trkpt>
      <trkpt lat="46.230970" lon="13.931402">
        <ele>1818.4368</ele>
        <time>2011-05-29T07:16:43Z</time>
      </trkpt>
      <trkpt lat="46.230998" lon="13.931527">
        <ele>1816.608</ele>
        <time>2011-05-29T07:16:53Z</time>
      </trkpt>
      <trkpt lat="46.231057" lon="13.931516">
        <ele>1819.3512</ele>
        <time>2011-05-29T07:17:06Z</time>
      </trkpt>
      <trkpt lat="46.230999" lon="13.932022">
        <ele>1818.4368</ele>
        <time>2011-05-29T07:18:23Z</time>
      </trkpt>
      <trkpt lat="46.230946" lon="13.931512">
        <ele>1820.8752</ele>
        <time>2011-05-29T07:18:31Z</time>
      </trkpt>
      <trkpt lat="46.231019" lon="13.931558">
        <ele>1819.9608</ele>
        <time>2011-05-29T07:18:39Z</time>
      </trkpt>
      <trkpt lat="46.231031" lon="13.931673">
        <ele>1823.3136</ele>
        <time>2011-05-29T07:19:05Z</time>
      </trkpt>
      <trkpt lat="46.231113" lon="13.931683">
        <ele>1831.5432</ele>
        <time>2011-05-29T07:19:29Z</time>
      </trkpt>
      <trkpt lat="46.231184" lon="13.931646">
        <ele>1830.9336</ele>
        <time>2011-05-29T07:27:50Z</time>
      </trkpt>
      <trkpt lat="46.231148" lon="13.931591">
        <ele>1831.848</ele>
        <time>2011-05-29T07:30:55Z</time>
      </trkpt>
      <trkpt lat="46.231108" lon="13.931474">
        <ele>1829.1048</ele>
        <time>2011-05-29T07:31:53Z</time>
      </trkpt>
      <trkpt lat="46.231072" lon="13.931326">
        <ele>1829.1048</ele>
        <time>2011-05-29T07:32:01Z</time>
      </trkpt>
      <trkpt lat="46.231023" lon="13.931289">
        <ele>1825.752</ele>
        <time>2011-05-29T07:32:17Z</time>
      </trkpt>
      <trkpt lat="46.230974" lon="13.931220">
        <ele>1822.3992</ele>
        <time>2011-05-29T07:32:36Z</time>
      </trkpt>
      <trkpt lat="46.230943" lon="13.931369">
        <ele>1818.132</ele>
        <time>2011-05-29T07:32:46Z</time>
      </trkpt>
      <trkpt lat="46.230982" lon="13.931503">
        <ele>1819.9608</ele>
        <time>2011-05-29T07:32:55Z</time>
      </trkpt>
      <trkpt lat="46.231028" lon="13.931612">
        <ele>1815.6936</ele>
        <time>2011-05-29T07:33:03Z</time>
      </trkpt>
      <trkpt lat="46.231027" lon="13.931627">
        <ele>1818.132</ele>
        <time>2011-05-29T07:34:16Z</time>
      </trkpt>
      <trkpt lat="46.231017" lon="13.931641">
        <ele>1819.9608</ele>
        <time>2011-05-29T07:41:01Z</time>
      </trkpt>
      <trkpt lat="46.231004" lon="13.931601">
        <ele>1821.7896</ele>
        <time>2011-05-29T07:46:56Z</time>
      </trkpt>
      <trkpt lat="46.230930" lon="13.931373">
        <ele>1821.4848</ele>
        <time>2011-05-29T07:47:18Z</time>
      </trkpt>
      <trkpt lat="46.230905" lon="13.931241">
        <ele>1820.2656</ele>
        <time>2011-05-29T07:47:31Z</time>
      </trkpt>
      <trkpt lat="46.230844" lon="13.931047">
        <ele>1818.4368</ele>
        <time>2011-05-29T07:47:42Z</time>
      </trkpt>
      <trkpt lat="46.230793" lon="13.930918">
        <ele>1822.704</ele>
        <time>2011-05-29T07:47:51Z</time>
      </trkpt>
      <trkpt lat="46.230751" lon="13.930747">
        <ele>1819.0464</ele>
        <time>2011-05-29T07:48:04Z</time>
      </trkpt>
      <trkpt lat="46.230693" lon="13.930512">
        <ele>1819.0464</ele>
        <time>2011-05-29T07:48:21Z</time>
      </trkpt>
      <trkpt lat="46.230667" lon="13.930359">
        <ele>1813.56</ele>
        <time>2011-05-29T07:48:33Z</time>
      </trkpt>
      <trkpt lat="46.230586" lon="13.930027">
        <ele>1812.6456</ele>
        <time>2011-05-29T07:48:54Z</time>
      </trkpt>
      <trkpt lat="46.230571" lon="13.929751">
        <ele>1812.6456</ele>
        <time>2011-05-29T07:49:10Z</time>
      </trkpt>
      <trkpt lat="46.230559" lon="13.929607">
        <ele>1809.9024</ele>
        <time>2011-05-29T07:49:19Z</time>
      </trkpt>
      <trkpt lat="46.230514" lon="13.929351">
        <ele>1807.7688</ele>
        <time>2011-05-29T07:50:00Z</time>
      </trkpt>
      <trkpt lat="46.230429" lon="13.929088">
        <ele>1803.1968</ele>
        <time>2011-05-29T07:50:16Z</time>
      </trkpt>
      <trkpt lat="46.230397" lon="13.928933">
        <ele>1798.6248</ele>
        <time>2011-05-29T07:50:28Z</time>
      </trkpt>
      <trkpt lat="46.230362" lon="13.928806">
        <ele>1799.2344</ele>
        <time>2011-05-29T07:50:36Z</time>
      </trkpt>
      <trkpt lat="46.230336" lon="13.928655">
        <ele>1799.844</ele>
        <time>2011-05-29T07:50:46Z</time>
      </trkpt>
      <trkpt lat="46.230301" lon="13.928492">
        <ele>1798.32</ele>
        <time>2011-05-29T07:50:58Z</time>
      </trkpt>
      <trkpt lat="46.230255" lon="13.928291">
        <ele>1795.8816</ele>
        <time>2011-05-29T07:51:14Z</time>
      </trkpt>
      <trkpt lat="46.230224" lon="13.928096">
        <ele>1794.3576</ele>
        <time>2011-05-29T07:51:27Z</time>
      </trkpt>
      <trkpt lat="46.230160" lon="13.927971">
        <ele>1791.6144</ele>
        <time>2011-05-29T07:51:37Z</time>
      </trkpt>
      <trkpt lat="46.230163" lon="13.927788">
        <ele>1787.3472</ele>
        <time>2011-05-29T07:51:52Z</time>
      </trkpt>
      <trkpt lat="46.230233" lon="13.927657">
        <ele>1787.3472</ele>
        <time>2011-05-29T07:52:01Z</time>
      </trkpt>
      <trkpt lat="46.230216" lon="13.927526">
        <ele>1780.9464</ele>
        <time>2011-05-29T07:52:09Z</time>
      </trkpt>
      <trkpt lat="46.230183" lon="13.927361">
        <ele>1785.8232</ele>
        <time>2011-05-29T07:52:28Z</time>
      </trkpt>
      <trkpt lat="46.230176" lon="13.927185">
        <ele>1780.9464</ele>
        <time>2011-05-29T07:53:30Z</time>
      </trkpt>
      <trkpt lat="46.230184" lon="13.927036">
        <ele>1774.8504</ele>
        <time>2011-05-29T07:53:56Z</time>
      </trkpt>
      <trkpt lat="46.230199" lon="13.926845">
        <ele>1769.9736</ele>
        <time>2011-05-29T07:54:16Z</time>
      </trkpt>
      <trkpt lat="46.230211" lon="13.926652">
        <ele>1768.1448</ele>
        <time>2011-05-29T07:54:34Z</time>
      </trkpt>
      <trkpt lat="46.230181" lon="13.926552">
        <ele>1760.22</ele>
        <time>2011-05-29T07:55:36Z</time>
      </trkpt>
      <trkpt lat="46.230203" lon="13.926424">
        <ele>1758.3912</ele>
        <time>2011-05-29T07:55:44Z</time>
      </trkpt>
      <trkpt lat="46.230218" lon="13.926288">
        <ele>1756.8672</ele>
        <time>2011-05-29T07:55:52Z</time>
      </trkpt>
      <trkpt lat="46.230283" lon="13.926145">
        <ele>1762.3536</ele>
        <time>2011-05-29T07:56:07Z</time>
      </trkpt>
      <trkpt lat="46.230320" lon="13.925972">
        <ele>1763.268</ele>
        <time>2011-05-29T07:56:23Z</time>
      </trkpt>
      <trkpt lat="46.230385" lon="13.925793">
        <ele>1763.5728</ele>
        <time>2011-05-29T07:56:38Z</time>
      </trkpt>
      <trkpt lat="46.230424" lon="13.925674">
        <ele>1765.0968</ele>
        <time>2011-05-29T07:56:53Z</time>
      </trkpt>
      <trkpt lat="46.230464" lon="13.925492">
        <ele>1762.6584</ele>
        <time>2011-05-29T07:57:13Z</time>
      </trkpt>
      <trkpt lat="46.230467" lon="13.925363">
        <ele>1761.744</ele>
        <time>2011-05-29T07:57:35Z</time>
      </trkpt>
      <trkpt lat="46.230508" lon="13.925233">
        <ele>1761.744</ele>
        <time>2011-05-29T07:57:48Z</time>
      </trkpt>
      <trkpt lat="46.230527" lon="13.925085">
        <ele>1761.1344</ele>
        <time>2011-05-29T07:57:59Z</time>
      </trkpt>
      <trkpt lat="46.230454" lon="13.925004">
        <ele>1751.9904</ele>
        <time>2011-05-29T07:58:37Z</time>
      </trkpt>
      <trkpt lat="46.230418" lon="13.924842">
        <ele>1750.7712</ele>
        <time>2011-05-29T07:58:50Z</time>
      </trkpt>
      <trkpt lat="46.230372" lon="13.924810">
        <ele>1744.0656</ele>
        <time>2011-05-29T07:59:15Z</time>
      </trkpt>
      <trkpt lat="46.230324" lon="13.924782">
        <ele>1739.1888</ele>
        <time>2011-05-29T07:59:36Z</time>
      </trkpt>
      <trkpt lat="46.230268" lon="13.924754">
        <ele>1734.312</ele>
        <time>2011-05-29T07:59:55Z</time>
      </trkpt>
      <trkpt lat="46.230272" lon="13.924629">
        <ele>1731.5688</ele>
        <time>2011-05-29T08:00:06Z</time>
      </trkpt>
      <trkpt lat="46.230214" lon="13.924597">
        <ele>1724.8632</ele>
        <time>2011-05-29T08:00:57Z</time>
      </trkpt>
      <trkpt lat="46.230251" lon="13.924447">
        <ele>1717.548</ele>
        <time>2011-05-29T08:01:23Z</time>
      </trkpt>
      <trkpt lat="46.230290" lon="13.924286">
        <ele>1719.9864</ele>
        <time>2011-05-29T08:01:31Z</time>
      </trkpt>
      <trkpt lat="46.230254" lon="13.924162">
        <ele>1720.9008</ele>
        <time>2011-05-29T08:01:40Z</time>
      </trkpt>
      <trkpt lat="46.230236" lon="13.924010">
        <ele>1717.548</ele>
        <time>2011-05-29T08:01:55Z</time>
      </trkpt>
      <trkpt lat="46.230206" lon="13.923887">
        <ele>1713.5856</ele>
        <time>2011-05-29T08:02:13Z</time>
      </trkpt>
      <trkpt lat="46.230169" lon="13.923655">
        <ele>1708.404</ele>
        <time>2011-05-29T08:02:42Z</time>
      </trkpt>
      <trkpt lat="46.230132" lon="13.923447">
        <ele>1705.0512</ele>
        <time>2011-05-29T08:03:04Z</time>
      </trkpt>
      <trkpt lat="46.230136" lon="13.923331">
        <ele>1705.6608</ele>
        <time>2011-05-29T08:05:24Z</time>
      </trkpt>
      <trkpt lat="46.230095" lon="13.923138">
        <ele>1704.4416</ele>
        <time>2011-05-29T08:05:50Z</time>
      </trkpt>
      <trkpt lat="46.230085" lon="13.923002">
        <ele>1701.0888</ele>
        <time>2011-05-29T08:06:14Z</time>
      </trkpt>
      <trkpt lat="46.230062" lon="13.922873">
        <ele>1700.784</ele>
        <time>2011-05-29T08:06:27Z</time>
      </trkpt>
      <trkpt lat="46.230025" lon="13.922721">
        <ele>1698.3456</ele>
        <time>2011-05-29T08:06:50Z</time>
      </trkpt>
      <trkpt lat="46.230008" lon="13.922581">
        <ele>1693.4688</ele>
        <time>2011-05-29T08:07:22Z</time>
      </trkpt>
      <trkpt lat="46.229982" lon="13.922381">
        <ele>1698.3456</ele>
        <time>2011-05-29T08:07:46Z</time>
      </trkpt>
      <trkpt lat="46.229955" lon="13.922256">
        <ele>1690.116</ele>
        <time>2011-05-29T08:08:40Z</time>
      </trkpt>
      <trkpt lat="46.229940" lon="13.922103">
        <ele>1685.8488</ele>
        <time>2011-05-29T08:08:50Z</time>
      </trkpt>
      <trkpt lat="46.229943" lon="13.921952">
        <ele>1693.4688</ele>
        <time>2011-05-29T08:09:05Z</time>
      </trkpt>
      <trkpt lat="46.229872" lon="13.921819">
        <ele>1703.2224</ele>
        <time>2011-05-29T08:09:41Z</time>
      </trkpt>
      <trkpt lat="46.229790" lon="13.921659">
        <ele>1703.2224</ele>
        <time>2011-05-29T08:10:08Z</time>
      </trkpt>
      <trkpt lat="46.229800" lon="13.921507">
        <ele>1704.1368</ele>
        <time>2011-05-29T08:10:20Z</time>
      </trkpt>
      <trkpt lat="46.229827" lon="13.921317">
        <ele>1703.5272</ele>
        <time>2011-05-29T08:10:34Z</time>
      </trkpt>
      <trkpt lat="46.229826" lon="13.921175">
        <ele>1701.6984</ele>
        <time>2011-05-29T08:10:43Z</time>
      </trkpt>
      <trkpt lat="46.229846" lon="13.921047">
        <ele>1698.3456</ele>
        <time>2011-05-29T08:10:55Z</time>
      </trkpt>
      <trkpt lat="46.229841" lon="13.920880">
        <ele>1700.1744</ele>
        <time>2011-05-29T08:11:10Z</time>
      </trkpt>
      <trkpt lat="46.229777" lon="13.920724">
        <ele>1699.26</ele>
        <time>2011-05-29T08:11:24Z</time>
      </trkpt>
      <trkpt lat="46.229743" lon="13.920584">
        <ele>1706.5752</ele>
        <time>2011-05-29T08:11:42Z</time>
      </trkpt>
      <trkpt lat="46.229729" lon="13.920377">
        <ele>1707.7944</ele>
        <time>2011-05-29T08:12:07Z</time>
      </trkpt>
      <trkpt lat="46.229730" lon="13.920239">
        <ele>1709.3184</ele>
        <time>2011-05-29T08:12:24Z</time>
      </trkpt>
      <trkpt lat="46.229716" lon="13.920081">
        <ele>1713.2808</ele>
        <time>2011-05-29T08:12:39Z</time>
      </trkpt>
      <trkpt lat="46.229728" lon="13.919945">
        <ele>1715.7192</ele>
        <time>2011-05-29T08:12:53Z</time>
      </trkpt>
      <trkpt lat="46.229742" lon="13.919805">
        <ele>1714.1952</ele>
        <time>2011-05-29T08:13:06Z</time>
      </trkpt>
      <trkpt lat="46.229776" lon="13.919659">
        <ele>1713.5856</ele>
        <time>2011-05-29T08:13:20Z</time>
      </trkpt>
      <trkpt lat="46.229805" lon="13.919499">
        <ele>1716.024</ele>
        <time>2011-05-29T08:13:39Z</time>
      </trkpt>
      <trkpt lat="46.229837" lon="13.919352">
        <ele>1720.9008</ele>
        <time>2011-05-29T08:14:00Z</time>
      </trkpt>
      <trkpt lat="46.229853" lon="13.919175">
        <ele>1724.2536</ele>
        <time>2011-05-29T08:14:15Z</time>
      </trkpt>
      <trkpt lat="46.229851" lon="13.919048">
        <ele>1728.5208</ele>
        <time>2011-05-29T08:16:19Z</time>
      </trkpt>
      <trkpt lat="46.229850" lon="13.918911">
        <ele>1732.788</ele>
        <time>2011-05-29T08:16:30Z</time>
      </trkpt>
      <trkpt lat="46.229887" lon="13.918748">
        <ele>1729.4352</ele>
        <time>2011-05-29T08:16:41Z</time>
      </trkpt>
      <trkpt lat="46.229935" lon="13.918608">
        <ele>1731.5688</ele>
        <time>2011-05-29T08:16:50Z</time>
      </trkpt>
      <trkpt lat="46.229924" lon="13.918417">
        <ele>1730.9592</ele>
        <time>2011-05-29T08:17:05Z</time>
      </trkpt>
      <trkpt lat="46.229904" lon="13.918278">
        <ele>1731.8736</ele>
        <time>2011-05-29T08:17:16Z</time>
      </trkpt>
      <trkpt lat="46.229883" lon="13.918150">
        <ele>1729.1304</ele>
        <time>2011-05-29T08:17:29Z</time>
      </trkpt>
      <trkpt lat="46.229831" lon="13.918022">
        <ele>1729.1304</ele>
        <time>2011-05-29T08:17:40Z</time>
      </trkpt>
      <trkpt lat="46.229809" lon="13.917863">
        <ele>1735.836</ele>
        <time>2011-05-29T08:17:56Z</time>
      </trkpt>
      <trkpt lat="46.229829" lon="13.917680">
        <ele>1734.312</ele>
        <time>2011-05-29T08:18:13Z</time>
      </trkpt>
      <trkpt lat="46.229798" lon="13.917557">
        <ele>1734.9216</ele>
        <time>2011-05-29T08:18:29Z</time>
      </trkpt>
      <trkpt lat="46.229740" lon="13.917452">
        <ele>1732.788</ele>
        <time>2011-05-29T08:18:38Z</time>
      </trkpt>
      <trkpt lat="46.229743" lon="13.917288">
        <ele>1736.7504</ele>
        <time>2011-05-29T08:19:04Z</time>
      </trkpt>
      <trkpt lat="46.229691" lon="13.917156">
        <ele>1730.0448</ele>
        <time>2011-05-29T08:19:24Z</time>
      </trkpt>
      <trkpt lat="46.229666" lon="13.917010">
        <ele>1734.312</ele>
        <time>2011-05-29T08:19:38Z</time>
      </trkpt>
      <trkpt lat="46.229653" lon="13.916816">
        <ele>1736.1408</ele>
        <time>2011-05-29T08:22:02Z</time>
      </trkpt>
      <trkpt lat="46.229632" lon="13.916627">
        <ele>1737.6648</ele>
        <time>2011-05-29T08:22:28Z</time>
      </trkpt>
      <trkpt lat="46.229605" lon="13.916449">
        <ele>1739.4936</ele>
        <time>2011-05-29T08:22:53Z</time>
      </trkpt>
      <trkpt lat="46.229507" lon="13.916251">
        <ele>1744.3704</ele>
        <time>2011-05-29T08:23:20Z</time>
      </trkpt>
      <trkpt lat="46.229437" lon="13.916168">
        <ele>1745.8944</ele>
        <time>2011-05-29T08:23:45Z</time>
      </trkpt>
      <trkpt lat="46.229392" lon="13.916026">
        <ele>1749.2472</ele>
        <time>2011-05-29T08:24:23Z</time>
      </trkpt>
      <trkpt lat="46.229434" lon="13.915878">
        <ele>1752.6</ele>
        <time>2011-05-29T08:24:35Z</time>
      </trkpt>
      <trkpt lat="46.229531" lon="13.915630">
        <ele>1751.9904</ele>
        <time>2011-05-29T08:24:55Z</time>
      </trkpt>
      <trkpt lat="46.229512" lon="13.915441">
        <ele>1754.124</ele>
        <time>2011-05-29T08:25:11Z</time>
      </trkpt>
      <trkpt lat="46.229492" lon="13.915220">
        <ele>1753.2096</ele>
        <time>2011-05-29T08:25:30Z</time>
      </trkpt>
      <trkpt lat="46.229523" lon="13.915072">
        <ele>1758.3912</ele>
        <time>2011-05-29T08:25:44Z</time>
      </trkpt>
      <trkpt lat="46.229576" lon="13.914954">
        <ele>1757.7816</ele>
        <time>2011-05-29T08:25:54Z</time>
      </trkpt>
      <trkpt lat="46.229607" lon="13.914762">
        <ele>1757.4768</ele>
        <time>2011-05-29T08:26:09Z</time>
      </trkpt>
      <trkpt lat="46.229659" lon="13.914562">
        <ele>1766.0112</ele>
        <time>2011-05-29T08:26:31Z</time>
      </trkpt>
      <trkpt lat="46.229670" lon="13.914405">
        <ele>1766.9256</ele>
        <time>2011-05-29T08:27:09Z</time>
      </trkpt>
      <trkpt lat="46.229678" lon="13.914270">
        <ele>1766.9256</ele>
        <time>2011-05-29T08:27:23Z</time>
      </trkpt>
      <trkpt lat="46.229684" lon="13.914108">
        <ele>1776.6792</ele>
        <time>2011-05-29T08:27:46Z</time>
      </trkpt>
      <trkpt lat="46.229686" lon="13.913970">
        <ele>1773.3264</ele>
        <time>2011-05-29T08:28:00Z</time>
      </trkpt>
      <trkpt lat="46.229625" lon="13.913855">
        <ele>1776.0696</ele>
        <time>2011-05-29T08:28:13Z</time>
      </trkpt>
      <trkpt lat="46.229560" lon="13.913722">
        <ele>1785.2136</ele>
        <time>2011-05-29T08:29:02Z</time>
      </trkpt>
      <trkpt lat="46.229514" lon="13.913576">
        <ele>1786.128</ele>
        <time>2011-05-29T08:29:28Z</time>
      </trkpt>
      <trkpt lat="46.229481" lon="13.913458">
        <ele>1790.0904</ele>
        <time>2011-05-29T08:29:44Z</time>
      </trkpt>
      <trkpt lat="46.229430" lon="13.913320">
        <ele>1791.9192</ele>
        <time>2011-05-29T08:30:05Z</time>
      </trkpt>
      <trkpt lat="46.229377" lon="13.913202">
        <ele>1796.796</ele>
        <time>2011-05-29T08:30:38Z</time>
      </trkpt>
      <trkpt lat="46.229313" lon="13.913098">
        <ele>1798.6248</ele>
        <time>2011-05-29T08:30:54Z</time>
      </trkpt>
      <trkpt lat="46.229216" lon="13.912999">
        <ele>1808.3784</ele>
        <time>2011-05-29T08:31:45Z</time>
      </trkpt>
      <trkpt lat="46.229094" lon="13.912886">
        <ele>1813.2552</ele>
        <time>2011-05-29T08:32:15Z</time>
      </trkpt>
      <trkpt lat="46.228969" lon="13.912817">
        <ele>1816.608</ele>
        <time>2011-05-29T08:32:34Z</time>
      </trkpt>
      <trkpt lat="46.228995" lon="13.912653">
        <ele>1813.2552</ele>
        <time>2011-05-29T08:32:46Z</time>
      </trkpt>
      <trkpt lat="46.228980" lon="13.912495">
        <ele>1815.9984</ele>
        <time>2011-05-29T08:33:00Z</time>
      </trkpt>
      <trkpt lat="46.228967" lon="13.912338">
        <ele>1819.3512</ele>
        <time>2011-05-29T08:33:12Z</time>
      </trkpt>
      <trkpt lat="46.228933" lon="13.912237">
        <ele>1815.9984</ele>
        <time>2011-05-29T08:34:15Z</time>
      </trkpt>
      <trkpt lat="46.228987" lon="13.912254">
        <ele>1817.5224</ele>
        <time>2011-05-29T08:34:50Z</time>
      </trkpt>
      <trkpt lat="46.229017" lon="13.912111">
        <ele>1818.132</ele>
        <time>2011-05-29T08:35:05Z</time>
      </trkpt>
      <trkpt lat="46.229026" lon="13.911941">
        <ele>1816.9128</ele>
        <time>2011-05-29T08:35:28Z</time>
      </trkpt>
      <trkpt lat="46.229046" lon="13.911811">
        <ele>1816.9128</ele>
        <time>2011-05-29T08:35:36Z</time>
      </trkpt>
      <trkpt lat="46.229099" lon="13.911701">
        <ele>1820.8752</ele>
        <time>2011-05-29T08:35:44Z</time>
      </trkpt>
      <trkpt lat="46.229168" lon="13.911528">
        <ele>1821.7896</ele>
        <time>2011-05-29T08:36:02Z</time>
      </trkpt>
      <trkpt lat="46.229216" lon="13.911264">
        <ele>1828.4952</ele>
        <time>2011-05-29T08:36:22Z</time>
      </trkpt>
      <trkpt lat="46.229273" lon="13.911131">
        <ele>1828.1904</ele>
        <time>2011-05-29T08:36:41Z</time>
      </trkpt>
      <trkpt lat="46.229299" lon="13.911007">
        <ele>1829.1048</ele>
        <time>2011-05-29T08:36:49Z</time>
      </trkpt>
      <trkpt lat="46.229337" lon="13.910877">
        <ele>1830.9336</ele>
        <time>2011-05-29T08:36:59Z</time>
      </trkpt>
      <trkpt lat="46.229391" lon="13.910736">
        <ele>1830.6288</ele>
        <time>2011-05-29T08:37:17Z</time>
      </trkpt>
      <trkpt lat="46.229417" lon="13.910625">
        <ele>1832.7624</ele>
        <time>2011-05-29T08:38:37Z</time>
      </trkpt>
      <trkpt lat="46.229432" lon="13.910404">
        <ele>1835.8104</ele>
        <time>2011-05-29T08:38:53Z</time>
      </trkpt>
      <trkpt lat="46.229457" lon="13.910257">
        <ele>1838.5536</ele>
        <time>2011-05-29T08:39:07Z</time>
      </trkpt>
      <trkpt lat="46.229461" lon="13.910109">
        <ele>1841.9064</ele>
        <time>2011-05-29T08:39:16Z</time>
      </trkpt>
      <trkpt lat="46.229526" lon="13.909976">
        <ele>1840.992</ele>
        <time>2011-05-29T08:39:27Z</time>
      </trkpt>
      <trkpt lat="46.229596" lon="13.909855">
        <ele>1842.516</ele>
        <time>2011-05-29T08:39:38Z</time>
      </trkpt>
      <trkpt lat="46.229662" lon="13.909694">
        <ele>1846.4784</ele>
        <time>2011-05-29T08:39:53Z</time>
      </trkpt>
      <trkpt lat="46.229722" lon="13.909594">
        <ele>1848.612</ele>
        <time>2011-05-29T08:40:05Z</time>
      </trkpt>
      <trkpt lat="46.229774" lon="13.909392">
        <ele>1855.0128</ele>
        <time>2011-05-29T08:40:29Z</time>
      </trkpt>
      <trkpt lat="46.229838" lon="13.909270">
        <ele>1857.4512</ele>
        <time>2011-05-29T08:40:52Z</time>
      </trkpt>
      <trkpt lat="46.229904" lon="13.909177">
        <ele>1864.1568</ele>
        <time>2011-05-29T08:41:08Z</time>
      </trkpt>
      <trkpt lat="46.229965" lon="13.909041">
        <ele>1863.5472</ele>
        <time>2011-05-29T08:41:24Z</time>
      </trkpt>
      <trkpt lat="46.230026" lon="13.908836">
        <ele>1868.424</ele>
        <time>2011-05-29T08:41:39Z</time>
      </trkpt>
      <trkpt lat="46.230172" lon="13.908730">
        <ele>1869.3384</ele>
        <time>2011-05-29T08:41:54Z</time>
      </trkpt>
      <trkpt lat="46.230255" lon="13.908671">
        <ele>1869.3384</ele>
        <time>2011-05-29T08:42:08Z</time>
      </trkpt>
      <trkpt lat="46.230307" lon="13.908588">
        <ele>1874.8248</ele>
        <time>2011-05-29T08:43:11Z</time>
      </trkpt>
      <trkpt lat="46.230301" lon="13.908406">
        <ele>1870.8624</ele>
        <time>2011-05-29T08:43:22Z</time>
      </trkpt>
      <trkpt lat="46.230260" lon="13.908152">
        <ele>1869.0336</ele>
        <time>2011-05-29T08:43:35Z</time>
      </trkpt>
      <trkpt lat="46.230268" lon="13.908010">
        <ele>1866.5952</ele>
        <time>2011-05-29T08:43:45Z</time>
      </trkpt>
      <trkpt lat="46.230252" lon="13.907846">
        <ele>1864.1568</ele>
        <time>2011-05-29T08:43:54Z</time>
      </trkpt>
      <trkpt lat="46.230242" lon="13.907686">
        <ele>1859.28</ele>
        <time>2011-05-29T08:44:05Z</time>
      </trkpt>
      <trkpt lat="46.230236" lon="13.907492">
        <ele>1861.1088</ele>
        <time>2011-05-29T08:44:16Z</time>
      </trkpt>
      <trkpt lat="46.230216" lon="13.907318">
        <ele>1859.8896</ele>
        <time>2011-05-29T08:44:25Z</time>
      </trkpt>
      <trkpt lat="46.230201" lon="13.907055">
        <ele>1855.6224</ele>
        <time>2011-05-29T08:44:42Z</time>
      </trkpt>
      <trkpt lat="46.230203" lon="13.906903">
        <ele>1853.184</ele>
        <time>2011-05-29T08:44:51Z</time>
      </trkpt>
      <trkpt lat="46.230223" lon="13.906735">
        <ele>1849.8312</ele>
        <time>2011-05-29T08:45:00Z</time>
      </trkpt>
      <trkpt lat="46.230236" lon="13.906450">
        <ele>1851.66</ele>
        <time>2011-05-29T08:45:17Z</time>
      </trkpt>
      <trkpt lat="46.230199" lon="13.906095">
        <ele>1849.2216</ele>
        <time>2011-05-29T08:46:57Z</time>
      </trkpt>
      <trkpt lat="46.230171" lon="13.905903">
        <ele>1850.7456</ele>
        <time>2011-05-29T08:47:06Z</time>
      </trkpt>
      <trkpt lat="46.230157" lon="13.905717">
        <ele>1849.2216</ele>
        <time>2011-05-29T08:47:18Z</time>
      </trkpt>
      <trkpt lat="46.230082" lon="13.905348">
        <ele>1848.612</ele>
        <time>2011-05-29T08:47:37Z</time>
      </trkpt>
      <trkpt lat="46.230075" lon="13.905128">
        <ele>1847.6976</ele>
        <time>2011-05-29T08:47:49Z</time>
      </trkpt>
      <trkpt lat="46.230077" lon="13.904896">
        <ele>1847.3928</ele>
        <time>2011-05-29T08:48:00Z</time>
      </trkpt>
      <trkpt lat="46.230057" lon="13.904749">
        <ele>1851.0504</ele>
        <time>2011-05-29T08:48:08Z</time>
      </trkpt>
      <trkpt lat="46.230046" lon="13.904584">
        <ele>1849.2216</ele>
        <time>2011-05-29T08:48:18Z</time>
      </trkpt>
      <trkpt lat="46.230010" lon="13.904446">
        <ele>1850.136</ele>
        <time>2011-05-29T08:48:26Z</time>
      </trkpt>
      <trkpt lat="46.229956" lon="13.904259">
        <ele>1848.612</ele>
        <time>2011-05-29T08:48:35Z</time>
      </trkpt>
      <trkpt lat="46.229892" lon="13.904075">
        <ele>1848.612</ele>
        <time>2011-05-29T08:48:45Z</time>
      </trkpt>
      <trkpt lat="46.229836" lon="13.903933">
        <ele>1849.2216</ele>
        <time>2011-05-29T08:48:53Z</time>
      </trkpt>
      <trkpt lat="46.229824" lon="13.903766">
        <ele>1851.0504</ele>
        <time>2011-05-29T08:49:01Z</time>
      </trkpt>
      <trkpt lat="46.229799" lon="13.903637">
        <ele>1848.612</ele>
        <time>2011-05-29T08:49:08Z</time>
      </trkpt>
      <trkpt lat="46.229753" lon="13.903504">
        <ele>1850.7456</ele>
        <time>2011-05-29T08:49:14Z</time>
      </trkpt>
      <trkpt lat="46.229663" lon="13.903295">
        <ele>1850.7456</ele>
        <time>2011-05-29T08:49:26Z</time>
      </trkpt>
      <trkpt lat="46.229581" lon="13.903100">
        <ele>1849.2216</ele>
        <time>2011-05-29T08:49:39Z</time>
      </trkpt>
      <trkpt lat="46.229509" lon="13.902852">
        <ele>1849.8312</ele>
        <time>2011-05-29T08:49:55Z</time>
      </trkpt>
      <trkpt lat="46.229472" lon="13.902734">
        <ele>1850.7456</ele>
        <time>2011-05-29T08:50:02Z</time>
      </trkpt>
      <trkpt lat="46.229417" lon="13.902519">
        <ele>1850.136</ele>
        <time>2011-05-29T08:50:14Z</time>
      </trkpt>
      <trkpt lat="46.229366" lon="13.902325">
        <ele>1848.612</ele>
        <time>2011-05-29T08:50:23Z</time>
      </trkpt>
      <trkpt lat="46.229303" lon="13.902163">
        <ele>1847.3928</ele>
        <time>2011-05-29T08:50:33Z</time>
      </trkpt>
      <trkpt lat="46.229243" lon="13.901927">
        <ele>1846.7832</ele>
        <time>2011-05-29T08:50:43Z</time>
      </trkpt>
      <trkpt lat="46.229175" lon="13.901709">
        <ele>1845.8688</ele>
        <time>2011-05-29T08:50:56Z</time>
      </trkpt>
      <trkpt lat="46.229047" lon="13.901485">
        <ele>1847.6976</ele>
        <time>2011-05-29T08:51:12Z</time>
      </trkpt>
      <trkpt lat="46.228964" lon="13.901348">
        <ele>1845.2592</ele>
        <time>2011-05-29T08:51:21Z</time>
      </trkpt>
      <trkpt lat="46.228882" lon="13.901110">
        <ele>1849.2216</ele>
        <time>2011-05-29T08:51:35Z</time>
      </trkpt>
      <trkpt lat="46.228808" lon="13.900881">
        <ele>1849.2216</ele>
        <time>2011-05-29T08:51:52Z</time>
      </trkpt>
      <trkpt lat="46.228738" lon="13.900721">
        <ele>1848.612</ele>
        <time>2011-05-29T08:52:06Z</time>
      </trkpt>
      <trkpt lat="46.228657" lon="13.900563">
        <ele>1844.3448</ele>
        <time>2011-05-29T08:52:21Z</time>
      </trkpt>
      <trkpt lat="46.228543" lon="13.900448">
        <ele>1842.516</ele>
        <time>2011-05-29T08:52:31Z</time>
      </trkpt>
      <trkpt lat="46.228452" lon="13.900323">
        <ele>1840.992</ele>
        <time>2011-05-29T08:52:41Z</time>
      </trkpt>
      <trkpt lat="46.228331" lon="13.900079">
        <ele>1843.1256</ele>
        <time>2011-05-29T08:52:57Z</time>
      </trkpt>
      <trkpt lat="46.228260" lon="13.899819">
        <ele>1848.3072</ele>
        <time>2011-05-29T08:53:58Z</time>
      </trkpt>
      <trkpt lat="46.228233" lon="13.899582">
        <ele>1832.7624</ele>
        <time>2011-05-29T08:54:11Z</time>
      </trkpt>
      <trkpt lat="46.228201" lon="13.899452">
        <ele>1833.372</ele>
        <time>2011-05-29T08:54:19Z</time>
      </trkpt>
      <trkpt lat="46.228170" lon="13.899324">
        <ele>1838.5536</ele>
        <time>2011-05-29T08:54:27Z</time>
      </trkpt>
      <trkpt lat="46.228148" lon="13.899196">
        <ele>1838.2488</ele>
        <time>2011-05-29T08:54:37Z</time>
      </trkpt>
      <trkpt lat="46.228258" lon="13.898979">
        <ele>1837.3344</ele>
        <time>2011-05-29T08:54:50Z</time>
      </trkpt>
      <trkpt lat="46.228279" lon="13.898812">
        <ele>1838.2488</ele>
        <time>2011-05-29T08:55:01Z</time>
      </trkpt>
      <trkpt lat="46.228379" lon="13.898557">
        <ele>1838.2488</ele>
        <time>2011-05-29T08:55:13Z</time>
      </trkpt>
      <trkpt lat="46.228452" lon="13.898422">
        <ele>1828.1904</ele>
        <time>2011-05-29T08:55:23Z</time>
      </trkpt>
      <trkpt lat="46.228533" lon="13.898211">
        <ele>1833.372</ele>
        <time>2011-05-29T08:55:34Z</time>
      </trkpt>
      <trkpt lat="46.228585" lon="13.898101">
        <ele>1827.5808</ele>
        <time>2011-05-29T08:55:42Z</time>
      </trkpt>
      <trkpt lat="46.228675" lon="13.898009">
        <ele>1835.8104</ele>
        <time>2011-05-29T08:55:51Z</time>
      </trkpt>
      <trkpt lat="46.228744" lon="13.897909">
        <ele>1835.2008</ele>
        <time>2011-05-29T08:55:57Z</time>
      </trkpt>
      <trkpt lat="46.228748" lon="13.897774">
        <ele>1829.1048</ele>
        <time>2011-05-29T08:56:05Z</time>
      </trkpt>
      <trkpt lat="46.228754" lon="13.897646">
        <ele>1841.6016</ele>
        <time>2011-05-29T08:56:14Z</time>
      </trkpt>
      <trkpt lat="46.228696" lon="13.897561">
        <ele>1839.468</ele>
        <time>2011-05-29T08:56:29Z</time>
      </trkpt>
      <trkpt lat="46.228654" lon="13.897455">
        <ele>1836.1152</ele>
        <time>2011-05-29T08:56:45Z</time>
      </trkpt>
      <trkpt lat="46.228618" lon="13.897324">
        <ele>1845.2592</ele>
        <time>2011-05-29T08:56:53Z</time>
      </trkpt>
      <trkpt lat="46.228594" lon="13.897199">
        <ele>1843.4304</ele>
        <time>2011-05-29T08:57:04Z</time>
      </trkpt>
      <trkpt lat="46.228523" lon="13.897094">
        <ele>1847.6976</ele>
        <time>2011-05-29T08:57:14Z</time>
      </trkpt>
      <trkpt lat="46.228364" lon="13.896954">
        <ele>1844.9544</ele>
        <time>2011-05-29T08:57:30Z</time>
      </trkpt>
      <trkpt lat="46.228258" lon="13.896893">
        <ele>1842.516</ele>
        <time>2011-05-29T08:58:02Z</time>
      </trkpt>
      <trkpt lat="46.228154" lon="13.896821">
        <ele>1835.8104</ele>
        <time>2011-05-29T08:58:12Z</time>
      </trkpt>
      <trkpt lat="46.228056" lon="13.896840">
        <ele>1839.1632</ele>
        <time>2011-05-29T08:58:29Z</time>
      </trkpt>
      <trkpt lat="46.228016" lon="13.896759">
        <ele>1835.2008</ele>
        <time>2011-05-29T08:59:14Z</time>
      </trkpt>
      <trkpt lat="46.227903" lon="13.896734">
        <ele>1830.9336</ele>
        <time>2011-05-29T09:00:17Z</time>
      </trkpt>
      <trkpt lat="46.227857" lon="13.896836">
        <ele>1836.7248</ele>
        <time>2011-05-29T09:00:52Z</time>
      </trkpt>
      <trkpt lat="46.227767" lon="13.896823">
        <ele>1835.8104</ele>
        <time>2011-05-29T09:01:15Z</time>
      </trkpt>
      <trkpt lat="46.227678" lon="13.896765">
        <ele>1834.2864</ele>
        <time>2011-05-29T09:01:22Z</time>
      </trkpt>
      <trkpt lat="46.227569" lon="13.896718">
        <ele>1830.6288</ele>
        <time>2011-05-29T09:01:30Z</time>
      </trkpt>
      <trkpt lat="46.227483" lon="13.896639">
        <ele>1838.2488</ele>
        <time>2011-05-29T09:01:41Z</time>
      </trkpt>
      <trkpt lat="46.227371" lon="13.896529">
        <ele>1841.6016</ele>
        <time>2011-05-29T09:01:56Z</time>
      </trkpt>
      <trkpt lat="46.227381" lon="13.896526">
        <ele>1839.468</ele>
        <time>2011-05-29T09:05:09Z</time>
      </trkpt>
      <trkpt lat="46.227437" lon="13.896420">
        <ele>1837.3344</ele>
        <time>2011-05-29T09:05:24Z</time>
      </trkpt>
      <trkpt lat="46.227522" lon="13.896282">
        <ele>1843.1256</ele>
        <time>2011-05-29T09:05:37Z</time>
      </trkpt>
      <trkpt lat="46.227498" lon="13.896272">
        <ele>1832.4576</ele>
        <time>2011-05-29T09:05:45Z</time>
      </trkpt>
      <trkpt lat="46.227416" lon="13.896313">
        <ele>1830.6288</ele>
        <time>2011-05-29T09:05:53Z</time>
      </trkpt>
      <trkpt lat="46.227355" lon="13.896458">
        <ele>1838.2488</ele>
        <time>2011-05-29T09:07:37Z</time>
      </trkpt>
      <trkpt lat="46.227299" lon="13.896396">
        <ele>1837.6392</ele>
        <time>2011-05-29T09:08:11Z</time>
      </trkpt>
      <trkpt lat="46.227236" lon="13.896306">
        <ele>1837.6392</ele>
        <time>2011-05-29T09:08:23Z</time>
      </trkpt>
      <trkpt lat="46.227199" lon="13.896201">
        <ele>1843.4304</ele>
        <time>2011-05-29T09:08:47Z</time>
      </trkpt>
      <trkpt lat="46.227163" lon="13.896084">
        <ele>1834.2864</ele>
        <time>2011-05-29T09:09:31Z</time>
      </trkpt>
      <trkpt lat="46.227107" lon="13.895969">
        <ele>1844.9544</ele>
        <time>2011-05-29T09:09:41Z</time>
      </trkpt>
      <trkpt lat="46.227072" lon="13.895820">
        <ele>1838.5536</ele>
        <time>2011-05-29T09:09:54Z</time>
      </trkpt>
      <trkpt lat="46.227060" lon="13.895698">
        <ele>1841.9064</ele>
        <time>2011-05-29T09:10:38Z</time>
      </trkpt>
      <trkpt lat="46.227038" lon="13.895568">
        <ele>1840.992</ele>
        <time>2011-05-29T09:10:54Z</time>
      </trkpt>
      <trkpt lat="46.227076" lon="13.895546">
        <ele>1840.0776</ele>
        <time>2011-05-29T09:11:42Z</time>
      </trkpt>
      <trkpt lat="46.227103" lon="13.895517">
        <ele>1838.2488</ele>
        <time>2011-05-29T09:12:57Z</time>
      </trkpt>
      <trkpt lat="46.227092" lon="13.895474">
        <ele>1837.3344</ele>
        <time>2011-05-29T09:13:55Z</time>
      </trkpt>
      <trkpt lat="46.227022" lon="13.895397">
        <ele>1840.0776</ele>
        <time>2011-05-29T09:13:58Z</time>
      </trkpt>
      <trkpt lat="46.226960" lon="13.895303">
        <ele>1833.372</ele>
        <time>2011-05-29T09:14:07Z</time>
      </trkpt>
      <trkpt lat="46.226891" lon="13.895179">
        <ele>1836.7248</ele>
        <time>2011-05-29T09:14:25Z</time>
      </trkpt>
      <trkpt lat="46.226811" lon="13.895091">
        <ele>1840.992</ele>
        <time>2011-05-29T09:14:33Z</time>
      </trkpt>
      <trkpt lat="46.226726" lon="13.895033">
        <ele>1842.516</ele>
        <time>2011-05-29T09:14:44Z</time>
      </trkpt>
      <trkpt lat="46.226632" lon="13.895019">
        <ele>1843.1256</ele>
        <time>2011-05-29T09:14:56Z</time>
      </trkpt>
      <trkpt lat="46.226558" lon="13.894924">
        <ele>1846.4784</ele>
        <time>2011-05-29T09:15:04Z</time>
      </trkpt>
      <trkpt lat="46.226474" lon="13.894864">
        <ele>1844.9544</ele>
        <time>2011-05-29T09:15:14Z</time>
      </trkpt>
      <trkpt lat="46.226398" lon="13.894784">
        <ele>1846.7832</ele>
        <time>2011-05-29T09:15:22Z</time>
      </trkpt>
      <trkpt lat="46.226330" lon="13.894684">
        <ele>1849.8312</ele>
        <time>2011-05-29T09:15:31Z</time>
      </trkpt>
      <trkpt lat="46.226252" lon="13.894614">
        <ele>1847.3928</ele>
        <time>2011-05-29T09:15:39Z</time>
      </trkpt>
      <trkpt lat="46.226188" lon="13.894423">
        <ele>1841.9064</ele>
        <time>2011-05-29T09:15:53Z</time>
      </trkpt>
      <trkpt lat="46.226138" lon="13.894344">
        <ele>1847.3928</ele>
        <time>2011-05-29T09:16:18Z</time>
      </trkpt>
      <trkpt lat="46.226115" lon="13.894216">
        <ele>1841.9064</ele>
        <time>2011-05-29T09:16:40Z</time>
      </trkpt>
      <trkpt lat="46.226076" lon="13.894085">
        <ele>1844.3448</ele>
        <time>2011-05-29T09:16:49Z</time>
      </trkpt>
      <trkpt lat="46.226014" lon="13.893913">
        <ele>1848.3072</ele>
        <time>2011-05-29T09:17:00Z</time>
      </trkpt>
      <trkpt lat="46.226011" lon="13.893782">
        <ele>1855.0128</ele>
        <time>2011-05-29T09:17:22Z</time>
      </trkpt>
      <trkpt lat="46.225990" lon="13.893652">
        <ele>1850.7456</ele>
        <time>2011-05-29T09:17:31Z</time>
      </trkpt>
      <trkpt lat="46.225975" lon="13.893520">
        <ele>1850.136</ele>
        <time>2011-05-29T09:17:56Z</time>
      </trkpt>
      <trkpt lat="46.225975" lon="13.893366">
        <ele>1853.184</ele>
        <time>2011-05-29T09:18:08Z</time>
      </trkpt>
      <trkpt lat="46.225969" lon="13.893228">
        <ele>1850.136</ele>
        <time>2011-05-29T09:18:20Z</time>
      </trkpt>
      <trkpt lat="46.225922" lon="13.893102">
        <ele>1851.66</ele>
        <time>2011-05-29T09:18:31Z</time>
      </trkpt>
      <trkpt lat="46.225932" lon="13.892969">
        <ele>1855.0128</ele>
        <time>2011-05-29T09:18:40Z</time>
      </trkpt>
      <trkpt lat="46.225958" lon="13.892820">
        <ele>1852.2696</ele>
        <time>2011-05-29T09:18:50Z</time>
      </trkpt>
      <trkpt lat="46.225964" lon="13.892664">
        <ele>1850.136</ele>
        <time>2011-05-29T09:18:59Z</time>
      </trkpt>
      <trkpt lat="46.225973" lon="13.892523">
        <ele>1849.2216</ele>
        <time>2011-05-29T09:19:07Z</time>
      </trkpt>
      <trkpt lat="46.225997" lon="13.892381">
        <ele>1856.5368</ele>
        <time>2011-05-29T09:19:15Z</time>
      </trkpt>
      <trkpt lat="46.226002" lon="13.892247">
        <ele>1855.0128</ele>
        <time>2011-05-29T09:19:25Z</time>
      </trkpt>
      <trkpt lat="46.225976" lon="13.892118">
        <ele>1853.4888</ele>
        <time>2011-05-29T09:19:33Z</time>
      </trkpt>
      <trkpt lat="46.225939" lon="13.891967">
        <ele>1855.9272</ele>
        <time>2011-05-29T09:20:16Z</time>
      </trkpt>
      <trkpt lat="46.225946" lon="13.891833">
        <ele>1851.66</ele>
        <time>2011-05-29T09:20:29Z</time>
      </trkpt>
      <trkpt lat="46.226064" lon="13.891600">
        <ele>1849.2216</ele>
        <time>2011-05-29T09:20:47Z</time>
      </trkpt>
      <trkpt lat="46.226162" lon="13.891478">
        <ele>1845.8688</ele>
        <time>2011-05-29T09:20:59Z</time>
      </trkpt>
      <trkpt lat="46.226240" lon="13.891359">
        <ele>1840.992</ele>
        <time>2011-05-29T09:21:09Z</time>
      </trkpt>
      <trkpt lat="46.226274" lon="13.891228">
        <ele>1842.516</ele>
        <time>2011-05-29T09:21:18Z</time>
      </trkpt>
      <trkpt lat="46.226350" lon="13.890974">
        <ele>1842.516</ele>
        <time>2011-05-29T09:21:36Z</time>
      </trkpt>
      <trkpt lat="46.226433" lon="13.890857">
        <ele>1838.5536</ele>
        <time>2011-05-29T09:21:45Z</time>
      </trkpt>
      <trkpt lat="46.226499" lon="13.890731">
        <ele>1844.9544</ele>
        <time>2011-05-29T09:21:53Z</time>
      </trkpt>
      <trkpt lat="46.226570" lon="13.890632">
        <ele>1844.04</ele>
        <time>2011-05-29T09:22:01Z</time>
      </trkpt>
      <trkpt lat="46.226657" lon="13.890295">
        <ele>1843.1256</ele>
        <time>2011-05-29T09:22:20Z</time>
      </trkpt>
      <trkpt lat="46.226677" lon="13.890155">
        <ele>1844.04</ele>
        <time>2011-05-29T09:22:28Z</time>
      </trkpt>
      <trkpt lat="46.226782" lon="13.889912">
        <ele>1840.992</ele>
        <time>2011-05-29T09:22:40Z</time>
      </trkpt>
      <trkpt lat="46.226818" lon="13.889747">
        <ele>1842.516</ele>
        <time>2011-05-29T09:22:51Z</time>
      </trkpt>
      <trkpt lat="46.226869" lon="13.889514">
        <ele>1840.0776</ele>
        <time>2011-05-29T09:23:03Z</time>
      </trkpt>
      <trkpt lat="46.226880" lon="13.889335">
        <ele>1840.992</ele>
        <time>2011-05-29T09:23:14Z</time>
      </trkpt>
      <trkpt lat="46.226927" lon="13.889201">
        <ele>1841.9064</ele>
        <time>2011-05-29T09:23:24Z</time>
      </trkpt>
      <trkpt lat="46.226989" lon="13.888997">
        <ele>1838.5536</ele>
        <time>2011-05-29T09:23:37Z</time>
      </trkpt>
      <trkpt lat="46.227029" lon="13.888895">
        <ele>1844.04</ele>
        <time>2011-05-29T09:24:07Z</time>
      </trkpt>
      <trkpt lat="46.227063" lon="13.888764">
        <ele>1840.6872</ele>
        <time>2011-05-29T09:24:35Z</time>
      </trkpt>
      <trkpt lat="46.227097" lon="13.888656">
        <ele>1848.3072</ele>
        <time>2011-05-29T09:24:49Z</time>
      </trkpt>
      <trkpt lat="46.227175" lon="13.888527">
        <ele>1845.2592</ele>
        <time>2011-05-29T09:25:02Z</time>
      </trkpt>
      <trkpt lat="46.227204" lon="13.888397">
        <ele>1848.612</ele>
        <time>2011-05-29T09:25:25Z</time>
      </trkpt>
      <trkpt lat="46.227284" lon="13.888271">
        <ele>1862.328</ele>
        <time>2011-05-29T09:25:39Z</time>
      </trkpt>
      <trkpt lat="46.227340" lon="13.888162">
        <ele>1864.4616</ele>
        <time>2011-05-29T09:25:57Z</time>
      </trkpt>
      <trkpt lat="46.227415" lon="13.888012">
        <ele>1867.5096</ele>
        <time>2011-05-29T09:26:19Z</time>
      </trkpt>
      <trkpt lat="46.227466" lon="13.887905">
        <ele>1874.2152</ele>
        <time>2011-05-29T09:26:46Z</time>
      </trkpt>
      <trkpt lat="46.227488" lon="13.887783">
        <ele>1870.8624</ele>
        <time>2011-05-29T09:27:44Z</time>
      </trkpt>
      <trkpt lat="46.227545" lon="13.887646">
        <ele>1863.5472</ele>
        <time>2011-05-29T09:27:59Z</time>
      </trkpt>
      <trkpt lat="46.227574" lon="13.887522">
        <ele>1870.2528</ele>
        <time>2011-05-29T09:28:07Z</time>
      </trkpt>
      <trkpt lat="46.227619" lon="13.887398">
        <ele>1875.1296</ele>
        <time>2011-05-29T09:28:15Z</time>
      </trkpt>
      <trkpt lat="46.227665" lon="13.887277">
        <ele>1873.6056</ele>
        <time>2011-05-29T09:28:26Z</time>
      </trkpt>
      <trkpt lat="46.227715" lon="13.887160">
        <ele>1871.472</ele>
        <time>2011-05-29T09:28:35Z</time>
      </trkpt>
      <trkpt lat="46.227789" lon="13.887070">
        <ele>1876.044</ele>
        <time>2011-05-29T09:28:48Z</time>
      </trkpt>
      <trkpt lat="46.227831" lon="13.886954">
        <ele>1880.616</ele>
        <time>2011-05-29T09:29:00Z</time>
      </trkpt>
      <trkpt lat="46.227845" lon="13.886787">
        <ele>1869.948</ele>
        <time>2011-05-29T09:29:13Z</time>
      </trkpt>
      <trkpt lat="46.227883" lon="13.886674">
        <ele>1881.5304</ele>
        <time>2011-05-29T09:29:27Z</time>
      </trkpt>
      <trkpt lat="46.227961" lon="13.886572">
        <ele>1879.3968</ele>
        <time>2011-05-29T09:29:40Z</time>
      </trkpt>
      <trkpt lat="46.228013" lon="13.886418">
        <ele>1876.044</ele>
        <time>2011-05-29T09:29:55Z</time>
      </trkpt>
      <trkpt lat="46.228041" lon="13.886233">
        <ele>1872.6912</ele>
        <time>2011-05-29T09:30:13Z</time>
      </trkpt>
      <trkpt lat="46.228046" lon="13.886073">
        <ele>1867.5096</ele>
        <time>2011-05-29T09:30:33Z</time>
      </trkpt>
      <trkpt lat="46.228080" lon="13.885945">
        <ele>1866.9</ele>
        <time>2011-05-29T09:30:53Z</time>
      </trkpt>
      <trkpt lat="46.228079" lon="13.885811">
        <ele>1869.3384</ele>
        <time>2011-05-29T09:31:08Z</time>
      </trkpt>
      <trkpt lat="46.228059" lon="13.885682">
        <ele>1864.4616</ele>
        <time>2011-05-29T09:31:23Z</time>
      </trkpt>
      <trkpt lat="46.228095" lon="13.885506">
        <ele>1864.4616</ele>
        <time>2011-05-29T09:31:35Z</time>
      </trkpt>
      <trkpt lat="46.228122" lon="13.885378">
        <ele>1861.1088</ele>
        <time>2011-05-29T09:31:42Z</time>
      </trkpt>
      <trkpt lat="46.228120" lon="13.885241">
        <ele>1865.0712</ele>
        <time>2011-05-29T09:31:55Z</time>
      </trkpt>
      <trkpt lat="46.228079" lon="13.885137">
        <ele>1865.0712</ele>
        <time>2011-05-29T09:32:11Z</time>
      </trkpt>
      <trkpt lat="46.228068" lon="13.884989">
        <ele>1864.1568</ele>
        <time>2011-05-29T09:32:33Z</time>
      </trkpt>
      <trkpt lat="46.228049" lon="13.884855">
        <ele>1869.0336</ele>
        <time>2011-05-29T09:32:40Z</time>
      </trkpt>
      <trkpt lat="46.228033" lon="13.884711">
        <ele>1862.328</ele>
        <time>2011-05-29T09:32:49Z</time>
      </trkpt>
      <trkpt lat="46.228020" lon="13.884516">
        <ele>1865.0712</ele>
        <time>2011-05-29T09:33:14Z</time>
      </trkpt>
      <trkpt lat="46.228028" lon="13.884385">
        <ele>1869.948</ele>
        <time>2011-05-29T09:33:23Z</time>
      </trkpt>
      <trkpt lat="46.228031" lon="13.884229">
        <ele>1865.6808</ele>
        <time>2011-05-29T09:33:31Z</time>
      </trkpt>
      <trkpt lat="46.228051" lon="13.884104">
        <ele>1866.9</ele>
        <time>2011-05-29T09:33:39Z</time>
      </trkpt>
      <trkpt lat="46.228047" lon="13.883958">
        <ele>1866.5952</ele>
        <time>2011-05-29T09:33:46Z</time>
      </trkpt>
      <trkpt lat="46.228033" lon="13.883756">
        <ele>1870.2528</ele>
        <time>2011-05-29T09:33:58Z</time>
      </trkpt>
      <trkpt lat="46.228033" lon="13.883602">
        <ele>1866.5952</ele>
        <time>2011-05-29T09:34:10Z</time>
      </trkpt>
      <trkpt lat="46.228048" lon="13.883497">
        <ele>1870.8624</ele>
        <time>2011-05-29T09:34:33Z</time>
      </trkpt>
      <trkpt lat="46.228056" lon="13.883350">
        <ele>1881.8352</ele>
        <time>2011-05-29T09:34:56Z</time>
      </trkpt>
      <trkpt lat="46.228050" lon="13.883231">
        <ele>1880.9208</ele>
        <time>2011-05-29T09:35:07Z</time>
      </trkpt>
      <trkpt lat="46.228036" lon="13.883107">
        <ele>1880.0064</ele>
        <time>2011-05-29T09:36:32Z</time>
      </trkpt>
      <trkpt lat="46.227970" lon="13.882763">
        <ele>1875.7392</ele>
        <time>2011-05-29T09:36:55Z</time>
      </trkpt>
      <trkpt lat="46.227954" lon="13.882557">
        <ele>1873.3008</ele>
        <time>2011-05-29T09:37:07Z</time>
      </trkpt>
      <trkpt lat="46.227924" lon="13.882400">
        <ele>1872.3864</ele>
        <time>2011-05-29T09:37:17Z</time>
      </trkpt>
      <trkpt lat="46.227964" lon="13.882181">
        <ele>1865.9856</ele>
        <time>2011-05-29T09:37:30Z</time>
      </trkpt>
      <trkpt lat="46.227992" lon="13.882022">
        <ele>1864.1568</ele>
        <time>2011-05-29T09:37:42Z</time>
      </trkpt>
      <trkpt lat="46.228033" lon="13.881749">
        <ele>1862.328</ele>
        <time>2011-05-29T09:37:58Z</time>
      </trkpt>
      <trkpt lat="46.228027" lon="13.881611">
        <ele>1860.804</ele>
        <time>2011-05-29T09:38:05Z</time>
      </trkpt>
      <trkpt lat="46.227985" lon="13.881491">
        <ele>1859.8896</ele>
        <time>2011-05-29T09:38:13Z</time>
      </trkpt>
      <trkpt lat="46.227949" lon="13.881342">
        <ele>1866.5952</ele>
        <time>2011-05-29T09:38:23Z</time>
      </trkpt>
      <trkpt lat="46.227927" lon="13.881217">
        <ele>1862.328</ele>
        <time>2011-05-29T09:38:29Z</time>
      </trkpt>
      <trkpt lat="46.227912" lon="13.881049">
        <ele>1858.3656</ele>
        <time>2011-05-29T09:38:40Z</time>
      </trkpt>
      <trkpt lat="46.227855" lon="13.880942">
        <ele>1861.7184</ele>
        <time>2011-05-29T09:38:47Z</time>
      </trkpt>
      <trkpt lat="46.227799" lon="13.880798">
        <ele>1863.5472</ele>
        <time>2011-05-29T09:38:59Z</time>
      </trkpt>
      <trkpt lat="46.227769" lon="13.880607">
        <ele>1866.5952</ele>
        <time>2011-05-29T09:39:10Z</time>
      </trkpt>
      <trkpt lat="46.227680" lon="13.880427">
        <ele>1863.5472</ele>
        <time>2011-05-29T09:39:26Z</time>
      </trkpt>
      <trkpt lat="46.227604" lon="13.880370">
        <ele>1853.4888</ele>
        <time>2011-05-29T09:39:42Z</time>
      </trkpt>
      <trkpt lat="46.227539" lon="13.880261">
        <ele>1857.756</ele>
        <time>2011-05-29T09:39:56Z</time>
      </trkpt>
      <trkpt lat="46.227522" lon="13.880145">
        <ele>1857.4512</ele>
        <time>2011-05-29T09:40:11Z</time>
      </trkpt>
      <trkpt lat="46.227513" lon="13.879836">
        <ele>1865.6808</ele>
        <time>2011-05-29T09:40:28Z</time>
      </trkpt>
      <trkpt lat="46.227492" lon="13.879695">
        <ele>1860.804</ele>
        <time>2011-05-29T09:40:40Z</time>
      </trkpt>
      <trkpt lat="46.227474" lon="13.879472">
        <ele>1860.804</ele>
        <time>2011-05-29T09:40:55Z</time>
      </trkpt>
      <trkpt lat="46.227436" lon="13.879341">
        <ele>1869.3384</ele>
        <time>2011-05-29T09:41:03Z</time>
      </trkpt>
      <trkpt lat="46.227444" lon="13.879128">
        <ele>1862.328</ele>
        <time>2011-05-29T09:41:20Z</time>
      </trkpt>
      <trkpt lat="46.227424" lon="13.878991">
        <ele>1865.9856</ele>
        <time>2011-05-29T09:41:30Z</time>
      </trkpt>
      <trkpt lat="46.227397" lon="13.878864">
        <ele>1874.8248</ele>
        <time>2011-05-29T09:41:44Z</time>
      </trkpt>
      <trkpt lat="46.227360" lon="13.878738">
        <ele>1876.9584</ele>
        <time>2011-05-29T09:42:01Z</time>
      </trkpt>
      <trkpt lat="46.227355" lon="13.878595">
        <ele>1878.1776</ele>
        <time>2011-05-29T09:42:14Z</time>
      </trkpt>
      <trkpt lat="46.227345" lon="13.878452">
        <ele>1879.092</ele>
        <time>2011-05-29T09:42:23Z</time>
      </trkpt>
      <trkpt lat="46.227287" lon="13.878203">
        <ele>1870.2528</ele>
        <time>2011-05-29T09:42:36Z</time>
      </trkpt>
      <trkpt lat="46.227269" lon="13.878069">
        <ele>1881.8352</ele>
        <time>2011-05-29T09:42:46Z</time>
      </trkpt>
      <trkpt lat="46.227215" lon="13.877961">
        <ele>1882.4448</ele>
        <time>2011-05-29T09:42:55Z</time>
      </trkpt>
      <trkpt lat="46.227187" lon="13.877832">
        <ele>1872.6912</ele>
        <time>2011-05-29T09:43:03Z</time>
      </trkpt>
      <trkpt lat="46.227111" lon="13.877762">
        <ele>1884.8832</ele>
        <time>2011-05-29T09:43:13Z</time>
      </trkpt>
      <trkpt lat="46.227025" lon="13.877665">
        <ele>1881.5304</ele>
        <time>2011-05-29T09:43:28Z</time>
      </trkpt>
      <trkpt lat="46.226943" lon="13.877557">
        <ele>1887.6264</ele>
        <time>2011-05-29T09:43:40Z</time>
      </trkpt>
      <trkpt lat="46.226884" lon="13.877451">
        <ele>1882.4448</ele>
        <time>2011-05-29T09:43:48Z</time>
      </trkpt>
      <trkpt lat="46.226850" lon="13.877336">
        <ele>1882.7496</ele>
        <time>2011-05-29T09:43:56Z</time>
      </trkpt>
      <trkpt lat="46.226803" lon="13.877221">
        <ele>1890.0648</ele>
        <time>2011-05-29T09:44:04Z</time>
      </trkpt>
      <trkpt lat="46.226721" lon="13.877061">
        <ele>1884.8832</ele>
        <time>2011-05-29T09:44:15Z</time>
      </trkpt>
      <trkpt lat="46.226645" lon="13.876987">
        <ele>1890.9792</ele>
        <time>2011-05-29T09:44:27Z</time>
      </trkpt>
      <trkpt lat="46.226615" lon="13.876911">
        <ele>1878.1776</ele>
        <time>2011-05-29T09:45:02Z</time>
      </trkpt>
      <trkpt lat="46.226550" lon="13.876808">
        <ele>1899.8184</ele>
        <time>2011-05-29T09:45:17Z</time>
      </trkpt>
      <trkpt lat="46.226511" lon="13.876666">
        <ele>1891.8936</ele>
        <time>2011-05-29T09:45:29Z</time>
      </trkpt>
      <trkpt lat="46.226447" lon="13.876502">
        <ele>1894.332</ele>
        <time>2011-05-29T09:45:44Z</time>
      </trkpt>
      <trkpt lat="46.226433" lon="13.876357">
        <ele>1893.1128</ele>
        <time>2011-05-29T09:45:54Z</time>
      </trkpt>
      <trkpt lat="46.226423" lon="13.876172">
        <ele>1897.38</ele>
        <time>2011-05-29T09:46:07Z</time>
      </trkpt>
      <trkpt lat="46.226414" lon="13.875929">
        <ele>1887.6264</ele>
        <time>2011-05-29T09:46:30Z</time>
      </trkpt>
      <trkpt lat="46.226404" lon="13.875801">
        <ele>1889.1504</ele>
        <time>2011-05-29T09:46:39Z</time>
      </trkpt>
      <trkpt lat="46.226394" lon="13.875600">
        <ele>1885.188</ele>
        <time>2011-05-29T09:46:54Z</time>
      </trkpt>
      <trkpt lat="46.226435" lon="13.875491">
        <ele>1881.8352</ele>
        <time>2011-05-29T09:47:08Z</time>
      </trkpt>
      <trkpt lat="46.226460" lon="13.875277">
        <ele>1886.712</ele>
        <time>2011-05-29T09:47:31Z</time>
      </trkpt>
      <trkpt lat="46.226463" lon="13.875109">
        <ele>1888.5408</ele>
        <time>2011-05-29T09:47:40Z</time>
      </trkpt>
      <trkpt lat="46.226451" lon="13.874916">
        <ele>1881.5304</ele>
        <time>2011-05-29T09:48:02Z</time>
      </trkpt>
      <trkpt lat="46.226437" lon="13.874771">
        <ele>1883.9688</ele>
        <time>2011-05-29T09:48:07Z</time>
      </trkpt>
      <trkpt lat="46.226389" lon="13.874640">
        <ele>1885.188</ele>
        <time>2011-05-29T09:48:10Z</time>
      </trkpt>
      <trkpt lat="46.226333" lon="13.874524">
        <ele>1890.6744</ele>
        <time>2011-05-29T09:48:18Z</time>
      </trkpt>
      <trkpt lat="46.226288" lon="13.874402">
        <ele>1893.1128</ele>
        <time>2011-05-29T09:49:00Z</time>
      </trkpt>
      <trkpt lat="46.226287" lon="13.874257">
        <ele>1887.6264</ele>
        <time>2011-05-29T09:49:39Z</time>
      </trkpt>
      <trkpt lat="46.226342" lon="13.874236">
        <ele>1890.9792</ele>
        <time>2011-05-29T09:50:10Z</time>
      </trkpt>
      <trkpt lat="46.226374" lon="13.874149">
        <ele>1903.476</ele>
        <time>2011-05-29T09:51:46Z</time>
      </trkpt>
      <trkpt lat="46.226351" lon="13.873956">
        <ele>1902.5616</ele>
        <time>2011-05-29T09:53:16Z</time>
      </trkpt>
      <trkpt lat="46.226332" lon="13.873819">
        <ele>1904.0856</ele>
        <time>2011-05-29T09:53:26Z</time>
      </trkpt>
      <trkpt lat="46.226315" lon="13.873680">
        <ele>1908.9624</ele>
        <time>2011-05-29T09:53:38Z</time>
      </trkpt>
      <trkpt lat="46.226311" lon="13.873519">
        <ele>1911.096</ele>
        <time>2011-05-29T09:53:56Z</time>
      </trkpt>
      <trkpt lat="46.226323" lon="13.873370">
        <ele>1911.7056</ele>
        <time>2011-05-29T09:54:10Z</time>
      </trkpt>
      <trkpt lat="46.226307" lon="13.873226">
        <ele>1911.096</ele>
        <time>2011-05-29T09:54:31Z</time>
      </trkpt>
      <trkpt lat="46.226264" lon="13.873090">
        <ele>1919.3256</ele>
        <time>2011-05-29T09:54:47Z</time>
      </trkpt>
      <trkpt lat="46.226181" lon="13.872983">
        <ele>1918.4112</ele>
        <time>2011-05-29T09:55:00Z</time>
      </trkpt>
      <trkpt lat="46.226140" lon="13.872850">
        <ele>1916.8872</ele>
        <time>2011-05-29T09:56:32Z</time>
      </trkpt>
      <trkpt lat="46.226158" lon="13.872702">
        <ele>1917.4968</ele>
        <time>2011-05-29T09:56:50Z</time>
      </trkpt>
      <trkpt lat="46.226243" lon="13.872503">
        <ele>1916.8872</ele>
        <time>2011-05-29T09:57:11Z</time>
      </trkpt>
      <trkpt lat="46.226306" lon="13.872348">
        <ele>1910.7912</ele>
        <time>2011-05-29T09:57:50Z</time>
      </trkpt>
      <trkpt lat="46.226401" lon="13.872180">
        <ele>1907.7432</ele>
        <time>2011-05-29T09:58:07Z</time>
      </trkpt>
      <trkpt lat="46.226449" lon="13.871980">
        <ele>1905.9144</ele>
        <time>2011-05-29T09:58:21Z</time>
      </trkpt>
      <trkpt lat="46.226499" lon="13.871798">
        <ele>1905</ele>
        <time>2011-05-29T09:58:43Z</time>
      </trkpt>
      <trkpt lat="46.226575" lon="13.871668">
        <ele>1909.8768</ele>
        <time>2011-05-29T09:59:20Z</time>
      </trkpt>
      <trkpt lat="46.226586" lon="13.871486">
        <ele>1905</ele>
        <time>2011-05-29T09:59:41Z</time>
      </trkpt>
      <trkpt lat="46.226612" lon="13.871355">
        <ele>1907.7432</ele>
        <time>2011-05-29T09:59:56Z</time>
      </trkpt>
      <trkpt lat="46.226649" lon="13.871229">
        <ele>1909.2672</ele>
        <time>2011-05-29T10:00:12Z</time>
      </trkpt>
      <trkpt lat="46.226652" lon="13.871054">
        <ele>1915.0584</ele>
        <time>2011-05-29T10:00:57Z</time>
      </trkpt>
      <trkpt lat="46.226638" lon="13.870919">
        <ele>1911.7056</ele>
        <time>2011-05-29T10:01:17Z</time>
      </trkpt>
      <trkpt lat="46.226617" lon="13.870788">
        <ele>1915.0584</ele>
        <time>2011-05-29T10:01:39Z</time>
      </trkpt>
      <trkpt lat="46.226668" lon="13.870588">
        <ele>1913.5344</ele>
        <time>2011-05-29T10:01:56Z</time>
      </trkpt>
      <trkpt lat="46.226687" lon="13.870429">
        <ele>1914.144</ele>
        <time>2011-05-29T10:02:11Z</time>
      </trkpt>
      <trkpt lat="46.226727" lon="13.870220">
        <ele>1912.3152</ele>
        <time>2011-05-29T10:02:23Z</time>
      </trkpt>
      <trkpt lat="46.226787" lon="13.870044">
        <ele>1908.3528</ele>
        <time>2011-05-29T10:02:39Z</time>
      </trkpt>
      <trkpt lat="46.226835" lon="13.869900">
        <ele>1909.8768</ele>
        <time>2011-05-29T10:03:01Z</time>
      </trkpt>
      <trkpt lat="46.226869" lon="13.869791">
        <ele>1916.8872</ele>
        <time>2011-05-29T10:03:17Z</time>
      </trkpt>
      <trkpt lat="46.226908" lon="13.869679">
        <ele>1919.3256</ele>
        <time>2011-05-29T10:03:32Z</time>
      </trkpt>
      <trkpt lat="46.226944" lon="13.869547">
        <ele>1917.4968</ele>
        <time>2011-05-29T10:03:44Z</time>
      </trkpt>
      <trkpt lat="46.226960" lon="13.869426">
        <ele>1917.4968</ele>
        <time>2011-05-29T10:03:59Z</time>
      </trkpt>
      <trkpt lat="46.227041" lon="13.869259">
        <ele>1915.668</ele>
        <time>2011-05-29T10:04:15Z</time>
      </trkpt>
      <trkpt lat="46.227100" lon="13.869126">
        <ele>1916.8872</ele>
        <time>2011-05-29T10:04:39Z</time>
      </trkpt>
      <trkpt lat="46.227174" lon="13.868968">
        <ele>1924.812</ele>
        <time>2011-05-29T10:04:56Z</time>
      </trkpt>
      <trkpt lat="46.227206" lon="13.868829">
        <ele>1924.812</ele>
        <time>2011-05-29T10:05:21Z</time>
      </trkpt>
      <trkpt lat="46.227230" lon="13.868621">
        <ele>1925.7264</ele>
        <time>2011-05-29T10:05:44Z</time>
      </trkpt>
      <trkpt lat="46.227249" lon="13.868470">
        <ele>1921.4592</ele>
        <time>2011-05-29T10:05:55Z</time>
      </trkpt>
      <trkpt lat="46.227262" lon="13.868341">
        <ele>1922.3736</ele>
        <time>2011-05-29T10:06:14Z</time>
      </trkpt>
      <trkpt lat="46.227234" lon="13.868258">
        <ele>1915.9728</ele>
        <time>2011-05-29T10:06:49Z</time>
      </trkpt>
      <trkpt lat="46.227268" lon="13.868105">
        <ele>1916.8872</ele>
        <time>2011-05-29T10:07:04Z</time>
      </trkpt>
      <trkpt lat="46.227330" lon="13.867967">
        <ele>1916.5824</ele>
        <time>2011-05-29T10:07:16Z</time>
      </trkpt>
      <trkpt lat="46.227357" lon="13.867752">
        <ele>1915.668</ele>
        <time>2011-05-29T10:07:34Z</time>
      </trkpt>
      <trkpt lat="46.227384" lon="13.867636">
        <ele>1916.5824</ele>
        <time>2011-05-29T10:07:55Z</time>
      </trkpt>
      <trkpt lat="46.227411" lon="13.867513">
        <ele>1923.288</ele>
        <time>2011-05-29T10:08:10Z</time>
      </trkpt>
      <trkpt lat="46.227449" lon="13.867393">
        <ele>1923.5928</ele>
        <time>2011-05-29T10:08:42Z</time>
      </trkpt>
      <trkpt lat="46.227494" lon="13.867276">
        <ele>1927.5552</ele>
        <time>2011-05-29T10:09:08Z</time>
      </trkpt>
      <trkpt lat="46.227547" lon="13.867102">
        <ele>1936.0896</ele>
        <time>2011-05-29T10:09:31Z</time>
      </trkpt>
      <trkpt lat="46.227637" lon="13.866813">
        <ele>1935.1752</ele>
        <time>2011-05-29T10:09:57Z</time>
      </trkpt>
      <trkpt lat="46.227665" lon="13.866656">
        <ele>1938.528</ele>
        <time>2011-05-29T10:10:10Z</time>
      </trkpt>
      <trkpt lat="46.227706" lon="13.866488">
        <ele>1940.052</ele>
        <time>2011-05-29T10:10:30Z</time>
      </trkpt>
      <trkpt lat="46.227728" lon="13.866317">
        <ele>1939.1376</ele>
        <time>2011-05-29T10:10:44Z</time>
      </trkpt>
      <trkpt lat="46.227716" lon="13.866141">
        <ele>1937.6136</ele>
        <time>2011-05-29T10:10:53Z</time>
      </trkpt>
      <trkpt lat="46.227683" lon="13.865980">
        <ele>1940.052</ele>
        <time>2011-05-29T10:11:04Z</time>
      </trkpt>
      <trkpt lat="46.227661" lon="13.865820">
        <ele>1943.1</ele>
        <time>2011-05-29T10:11:18Z</time>
      </trkpt>
      <trkpt lat="46.227645" lon="13.865661">
        <ele>1943.1</ele>
        <time>2011-05-29T10:11:34Z</time>
      </trkpt>
      <trkpt lat="46.227606" lon="13.865424">
        <ele>1944.0144</ele>
        <time>2011-05-29T10:11:49Z</time>
      </trkpt>
      <trkpt lat="46.227561" lon="13.865307">
        <ele>1946.7576</ele>
        <time>2011-05-29T10:11:58Z</time>
      </trkpt>
      <trkpt lat="46.227613" lon="13.865147">
        <ele>1949.196</ele>
        <time>2011-05-29T10:12:09Z</time>
      </trkpt>
      <trkpt lat="46.227705" lon="13.865204">
        <ele>1955.5968</ele>
        <time>2011-05-29T10:12:35Z</time>
      </trkpt>
      <trkpt lat="46.227733" lon="13.865206">
        <ele>1954.9872</ele>
        <time>2011-05-29T10:23:32Z</time>
      </trkpt>
      <trkpt lat="46.227707" lon="13.865224">
        <ele>1956.5112</ele>
        <time>2011-05-29T10:26:25Z</time>
      </trkpt>
      <trkpt lat="46.227807" lon="13.865177">
        <ele>1956.5112</ele>
        <time>2011-05-29T10:27:12Z</time>
      </trkpt>
      <trkpt lat="46.227720" lon="13.865251">
        <ele>1955.9016</ele>
        <time>2011-05-29T10:27:59Z</time>
      </trkpt>
      <trkpt lat="46.227681" lon="13.865194">
        <ele>1956.816</ele>
        <time>2011-05-29T10:31:18Z</time>
      </trkpt>
      <trkpt lat="46.227635" lon="13.865267">
        <ele>1957.4256</ele>
        <time>2011-05-29T10:35:59Z</time>
      </trkpt>
      <trkpt lat="46.227649" lon="13.865205">
        <ele>1957.7304</ele>
        <time>2011-05-29T10:37:33Z</time>
      </trkpt>
      <trkpt lat="46.227614" lon="13.865245">
        <ele>1958.9496</ele>
        <time>2011-05-29T10:38:15Z</time>
      </trkpt>
      <trkpt lat="46.227681" lon="13.865135">
        <ele>1954.9872</ele>
        <time>2011-05-29T10:38:34Z</time>
      </trkpt>
      <trkpt lat="46.227654" lon="13.865187">
        <ele>1957.7304</ele>
        <time>2011-05-29T10:45:36Z</time>
      </trkpt>
      <trkpt lat="46.227670" lon="13.865186">
        <ele>1956.816</ele>
        <time>2011-05-29T10:50:51Z</time>
      </trkpt>
      <trkpt lat="46.227672" lon="13.865174">
        <ele>1950.1104</ele>
        <time>2011-05-29T10:54:39Z</time>
      </trkpt>
      <trkpt lat="46.227611" lon="13.865090">
        <ele>1954.3776</ele>
        <time>2011-05-29T10:58:19Z</time>
      </trkpt>
      <trkpt lat="46.227477" lon="13.864982">
        <ele>1949.8056</ele>
        <time>2011-05-29T10:58:42Z</time>
      </trkpt>
      <trkpt lat="46.227391" lon="13.864863">
        <ele>1946.4528</ele>
        <time>2011-05-29T10:59:02Z</time>
      </trkpt>
      <trkpt lat="46.227296" lon="13.864848">
        <ele>1940.6616</ele>
        <time>2011-05-29T10:59:24Z</time>
      </trkpt>
      <trkpt lat="46.227193" lon="13.864757">
        <ele>1936.6992</ele>
        <time>2011-05-29T10:59:47Z</time>
      </trkpt>
      <trkpt lat="46.227060" lon="13.864625">
        <ele>1930.908</ele>
        <time>2011-05-29T11:00:18Z</time>
      </trkpt>
      <trkpt lat="46.226965" lon="13.864558">
        <ele>1929.9936</ele>
        <time>2011-05-29T11:00:29Z</time>
      </trkpt>
      <trkpt lat="46.226873" lon="13.864448">
        <ele>1925.1168</ele>
        <time>2011-05-29T11:00:49Z</time>
      </trkpt>
      <trkpt lat="46.226799" lon="13.864369">
        <ele>1919.9352</ele>
        <time>2011-05-29T11:01:04Z</time>
      </trkpt>
      <trkpt lat="46.226726" lon="13.864275">
        <ele>1915.0584</ele>
        <time>2011-05-29T11:01:27Z</time>
      </trkpt>
      <trkpt lat="46.226647" lon="13.864216">
        <ele>1915.668</ele>
        <time>2011-05-29T11:01:35Z</time>
      </trkpt>
      <trkpt lat="46.226580" lon="13.864075">
        <ele>1906.524</ele>
        <time>2011-05-29T11:02:10Z</time>
      </trkpt>
      <trkpt lat="46.226520" lon="13.863946">
        <ele>1904.3904</ele>
        <time>2011-05-29T11:02:21Z</time>
      </trkpt>
      <trkpt lat="46.226438" lon="13.863783">
        <ele>1900.7328</ele>
        <time>2011-05-29T11:02:37Z</time>
      </trkpt>
      <trkpt lat="46.226387" lon="13.863673">
        <ele>1900.1232</ele>
        <time>2011-05-29T11:02:49Z</time>
      </trkpt>
      <trkpt lat="46.226303" lon="13.863524">
        <ele>1894.9416</ele>
        <time>2011-05-29T11:03:08Z</time>
      </trkpt>
      <trkpt lat="46.226234" lon="13.863420">
        <ele>1889.76</ele>
        <time>2011-05-29T11:03:18Z</time>
      </trkpt>
      <trkpt lat="46.226119" lon="13.863215">
        <ele>1889.1504</ele>
        <time>2011-05-29T11:03:31Z</time>
      </trkpt>
      <trkpt lat="46.226052" lon="13.863081">
        <ele>1883.3592</ele>
        <time>2011-05-29T11:03:43Z</time>
      </trkpt>
      <trkpt lat="46.225986" lon="13.862993">
        <ele>1881.8352</ele>
        <time>2011-05-29T11:03:54Z</time>
      </trkpt>
      <trkpt lat="46.226001" lon="13.862812">
        <ele>1882.7496</ele>
        <time>2011-05-29T11:04:10Z</time>
      </trkpt>
      <trkpt lat="46.225995" lon="13.862730">
        <ele>1879.092</ele>
        <time>2011-05-29T11:04:22Z</time>
      </trkpt>
      <trkpt lat="46.225965" lon="13.862463">
        <ele>1869.0336</ele>
        <time>2011-05-29T11:04:48Z</time>
      </trkpt>
      <trkpt lat="46.225995" lon="13.862318">
        <ele>1869.948</ele>
        <time>2011-05-29T11:05:06Z</time>
      </trkpt>
      <trkpt lat="46.226030" lon="13.862197">
        <ele>1869.948</ele>
        <time>2011-05-29T11:05:15Z</time>
      </trkpt>
      <trkpt lat="46.225980" lon="13.862210">
        <ele>1869.948</ele>
        <time>2011-05-29T11:05:43Z</time>
      </trkpt>
      <trkpt lat="46.225902" lon="13.862117">
        <ele>1867.5096</ele>
        <time>2011-05-29T11:06:00Z</time>
      </trkpt>
      <trkpt lat="46.225823" lon="13.862156">
        <ele>1861.7184</ele>
        <time>2011-05-29T11:06:13Z</time>
      </trkpt>
      <trkpt lat="46.225704" lon="13.862307">
        <ele>1860.804</ele>
        <time>2011-05-29T11:06:28Z</time>
      </trkpt>
      <trkpt lat="46.225644" lon="13.862421">
        <ele>1858.9752</ele>
        <time>2011-05-29T11:06:36Z</time>
      </trkpt>
      <trkpt lat="46.225555" lon="13.862603">
        <ele>1855.0128</ele>
        <time>2011-05-29T11:06:52Z</time>
      </trkpt>
      <trkpt lat="46.225483" lon="13.862762">
        <ele>1850.136</ele>
        <time>2011-05-29T11:07:06Z</time>
      </trkpt>
      <trkpt lat="46.225443" lon="13.862731">
        <ele>1848.3072</ele>
        <time>2011-05-29T11:07:26Z</time>
      </trkpt>
      <trkpt lat="46.225438" lon="13.862552">
        <ele>1844.3448</ele>
        <time>2011-05-29T11:07:35Z</time>
      </trkpt>
      <trkpt lat="46.225416" lon="13.862409">
        <ele>1840.992</ele>
        <time>2011-05-29T11:07:45Z</time>
      </trkpt>
      <trkpt lat="46.225410" lon="13.862233">
        <ele>1839.1632</ele>
        <time>2011-05-29T11:07:54Z</time>
      </trkpt>
      <trkpt lat="46.225392" lon="13.862091">
        <ele>1837.3344</ele>
        <time>2011-05-29T11:08:02Z</time>
      </trkpt>
      <trkpt lat="46.225397" lon="13.861953">
        <ele>1837.3344</ele>
        <time>2011-05-29T11:08:13Z</time>
      </trkpt>
      <trkpt lat="46.225346" lon="13.861943">
        <ele>1830.9336</ele>
        <time>2011-05-29T11:08:32Z</time>
      </trkpt>
      <trkpt lat="46.225301" lon="13.862068">
        <ele>1829.4096</ele>
        <time>2011-05-29T11:08:40Z</time>
      </trkpt>
      <trkpt lat="46.225254" lon="13.862184">
        <ele>1826.6664</ele>
        <time>2011-05-29T11:08:51Z</time>
      </trkpt>
      <trkpt lat="46.225189" lon="13.862423">
        <ele>1821.7896</ele>
        <time>2011-05-29T11:09:07Z</time>
      </trkpt>
      <trkpt lat="46.225177" lon="13.862243">
        <ele>1819.0464</ele>
        <time>2011-05-29T11:09:19Z</time>
      </trkpt>
      <trkpt lat="46.225136" lon="13.862108">
        <ele>1818.132</ele>
        <time>2011-05-29T11:09:32Z</time>
      </trkpt>
      <trkpt lat="46.225102" lon="13.861939">
        <ele>1814.1696</ele>
        <time>2011-05-29T11:09:41Z</time>
      </trkpt>
      <trkpt lat="46.225060" lon="13.861805">
        <ele>1812.3408</ele>
        <time>2011-05-29T11:09:54Z</time>
      </trkpt>
      <trkpt lat="46.224998" lon="13.861671">
        <ele>1807.7688</ele>
        <time>2011-05-29T11:10:05Z</time>
      </trkpt>
      <trkpt lat="46.224950" lon="13.861523">
        <ele>1807.7688</ele>
        <time>2011-05-29T11:10:17Z</time>
      </trkpt>
      <trkpt lat="46.224856" lon="13.861435">
        <ele>1805.6352</ele>
        <time>2011-05-29T11:10:28Z</time>
      </trkpt>
      <trkpt lat="46.224799" lon="13.861498">
        <ele>1802.5872</ele>
        <time>2011-05-29T11:10:58Z</time>
      </trkpt>
      <trkpt lat="46.224791" lon="13.861436">
        <ele>1803.5016</ele>
        <time>2011-05-29T11:11:29Z</time>
      </trkpt>
      <trkpt lat="46.224669" lon="13.861421">
        <ele>1799.2344</ele>
        <time>2011-05-29T11:11:49Z</time>
      </trkpt>
      <trkpt lat="46.224693" lon="13.861298">
        <ele>1794.3576</ele>
        <time>2011-05-29T11:12:01Z</time>
      </trkpt>
      <trkpt lat="46.224790" lon="13.861160">
        <ele>1793.1384</ele>
        <time>2011-05-29T11:12:16Z</time>
      </trkpt>
      <trkpt lat="46.224860" lon="13.861060">
        <ele>1788.5664</ele>
        <time>2011-05-29T11:12:24Z</time>
      </trkpt>
      <trkpt lat="46.224912" lon="13.860966">
        <ele>1790.7</ele>
        <time>2011-05-29T11:12:34Z</time>
      </trkpt>
      <trkpt lat="46.224764" lon="13.861012">
        <ele>1787.3472</ele>
        <time>2011-05-29T11:12:49Z</time>
      </trkpt>
      <trkpt lat="46.224550" lon="13.861046">
        <ele>1780.032</ele>
        <time>2011-05-29T11:13:09Z</time>
      </trkpt>
      <trkpt lat="46.224432" lon="13.861095">
        <ele>1776.984</ele>
        <time>2011-05-29T11:13:22Z</time>
      </trkpt>
      <trkpt lat="46.224320" lon="13.861135">
        <ele>1775.7648</ele>
        <time>2011-05-29T11:13:33Z</time>
      </trkpt>
      <trkpt lat="46.224262" lon="13.861313">
        <ele>1770.888</ele>
        <time>2011-05-29T11:13:48Z</time>
      </trkpt>
      <trkpt lat="46.224278" lon="13.861433">
        <ele>1766.9256</ele>
        <time>2011-05-29T11:14:04Z</time>
      </trkpt>
      <trkpt lat="46.224201" lon="13.861318">
        <ele>1766.0112</ele>
        <time>2011-05-29T11:14:15Z</time>
      </trkpt>
      <trkpt lat="46.224113" lon="13.861226">
        <ele>1760.8296</ele>
        <time>2011-05-29T11:14:26Z</time>
      </trkpt>
      <trkpt lat="46.224034" lon="13.861130">
        <ele>1759.3056</ele>
        <time>2011-05-29T11:14:35Z</time>
      </trkpt>
      <trkpt lat="46.223935" lon="13.861072">
        <ele>1756.8672</ele>
        <time>2011-05-29T11:14:45Z</time>
      </trkpt>
      <trkpt lat="46.223799" lon="13.860901">
        <ele>1750.1616</ele>
        <time>2011-05-29T11:14:58Z</time>
      </trkpt>
      <trkpt lat="46.223681" lon="13.860837">
        <ele>1750.1616</ele>
        <time>2011-05-29T11:15:06Z</time>
      </trkpt>
      <trkpt lat="46.223566" lon="13.860916">
        <ele>1745.2848</ele>
        <time>2011-05-29T11:15:17Z</time>
      </trkpt>
      <trkpt lat="46.223496" lon="13.861004">
        <ele>1744.3704</ele>
        <time>2011-05-29T11:15:25Z</time>
      </trkpt>
      <trkpt lat="46.223451" lon="13.861122">
        <ele>1741.0176</ele>
        <time>2011-05-29T11:15:32Z</time>
      </trkpt>
      <trkpt lat="46.223482" lon="13.861269">
        <ele>1738.2744</ele>
        <time>2011-05-29T11:15:43Z</time>
      </trkpt>
      <trkpt lat="46.223554" lon="13.861350">
        <ele>1733.3976</ele>
        <time>2011-05-29T11:16:21Z</time>
      </trkpt>
      <trkpt lat="46.223660" lon="13.861462">
        <ele>1730.0448</ele>
        <time>2011-05-29T11:16:35Z</time>
      </trkpt>
      <trkpt lat="46.223751" lon="13.861550">
        <ele>1726.692</ele>
        <time>2011-05-29T11:16:46Z</time>
      </trkpt>
      <trkpt lat="46.223782" lon="13.861627">
        <ele>1725.7776</ele>
        <time>2011-05-29T11:17:02Z</time>
      </trkpt>
      <trkpt lat="46.223696" lon="13.861613">
        <ele>1722.7296</ele>
        <time>2011-05-29T11:17:13Z</time>
      </trkpt>
      <trkpt lat="46.223569" lon="13.861597">
        <ele>1719.3768</ele>
        <time>2011-05-29T11:17:27Z</time>
      </trkpt>
      <trkpt lat="46.223469" lon="13.861626">
        <ele>1715.7192</ele>
        <time>2011-05-29T11:17:36Z</time>
      </trkpt>
      <trkpt lat="46.223364" lon="13.861619">
        <ele>1711.7568</ele>
        <time>2011-05-29T11:17:50Z</time>
      </trkpt>
      <trkpt lat="46.223265" lon="13.861628">
        <ele>1712.3664</ele>
        <time>2011-05-29T11:17:59Z</time>
      </trkpt>
      <trkpt lat="46.223126" lon="13.861628">
        <ele>1705.0512</ele>
        <time>2011-05-29T11:18:14Z</time>
      </trkpt>
      <trkpt lat="46.222996" lon="13.861665">
        <ele>1702.6128</ele>
        <time>2011-05-29T11:18:27Z</time>
      </trkpt>
      <trkpt lat="46.222883" lon="13.861691">
        <ele>1699.26</ele>
        <time>2011-05-29T11:18:38Z</time>
      </trkpt>
      <trkpt lat="46.222626" lon="13.861645">
        <ele>1693.4688</ele>
        <time>2011-05-29T11:19:13Z</time>
      </trkpt>
      <trkpt lat="46.222700" lon="13.861766">
        <ele>1690.116</ele>
        <time>2011-05-29T11:19:30Z</time>
      </trkpt>
      <trkpt lat="46.222818" lon="13.861946">
        <ele>1686.1536</ele>
        <time>2011-05-29T11:19:46Z</time>
      </trkpt>
      <trkpt lat="46.222979" lon="13.862113">
        <ele>1679.1432</ele>
        <time>2011-05-29T11:20:03Z</time>
      </trkpt>
      <trkpt lat="46.223117" lon="13.862229">
        <ele>1674.876</ele>
        <time>2011-05-29T11:20:25Z</time>
      </trkpt>
      <trkpt lat="46.223025" lon="13.862249">
        <ele>1670.9136</ele>
        <time>2011-05-29T11:21:08Z</time>
      </trkpt>
      <trkpt lat="46.222887" lon="13.862244">
        <ele>1667.5608</ele>
        <time>2011-05-29T11:21:23Z</time>
      </trkpt>
      <trkpt lat="46.222751" lon="13.862285">
        <ele>1664.208</ele>
        <time>2011-05-29T11:21:36Z</time>
      </trkpt>
      <trkpt lat="46.222645" lon="13.862275">
        <ele>1662.3792</ele>
        <time>2011-05-29T11:21:46Z</time>
      </trkpt>
      <trkpt lat="46.222540" lon="13.862246">
        <ele>1661.7696</ele>
        <time>2011-05-29T11:21:57Z</time>
      </trkpt>
      <trkpt lat="46.222572" lon="13.862362">
        <ele>1656.8928</ele>
        <time>2011-05-29T11:22:17Z</time>
      </trkpt>
      <trkpt lat="46.222671" lon="13.862448">
        <ele>1651.1016</ele>
        <time>2011-05-29T11:22:25Z</time>
      </trkpt>
      <trkpt lat="46.222782" lon="13.862504">
        <ele>1650.7968</ele>
        <time>2011-05-29T11:22:39Z</time>
      </trkpt>
      <trkpt lat="46.222853" lon="13.862574">
        <ele>1647.7488</ele>
        <time>2011-05-29T11:22:48Z</time>
      </trkpt>
      <trkpt lat="46.222749" lon="13.862596">
        <ele>1640.1288</ele>
        <time>2011-05-29T11:23:00Z</time>
      </trkpt>
      <trkpt lat="46.222581" lon="13.862644">
        <ele>1641.6528</ele>
        <time>2011-05-29T11:23:15Z</time>
      </trkpt>
      <trkpt lat="46.222451" lon="13.862619">
        <ele>1636.1664</ele>
        <time>2011-05-29T11:23:27Z</time>
      </trkpt>
      <trkpt lat="46.222342" lon="13.862624">
        <ele>1636.776</ele>
        <time>2011-05-29T11:23:37Z</time>
      </trkpt>
      <trkpt lat="46.222259" lon="13.862669">
        <ele>1634.9472</ele>
        <time>2011-05-29T11:23:46Z</time>
      </trkpt>
      <trkpt lat="46.222157" lon="13.862719">
        <ele>1630.68</ele>
        <time>2011-05-29T11:23:54Z</time>
      </trkpt>
      <trkpt lat="46.222030" lon="13.862749">
        <ele>1624.8888</ele>
        <time>2011-05-29T11:24:25Z</time>
      </trkpt>
      <trkpt lat="46.221944" lon="13.862705">
        <ele>1619.0976</ele>
        <time>2011-05-29T11:24:39Z</time>
      </trkpt>
      <trkpt lat="46.221860" lon="13.862652">
        <ele>1618.1832</ele>
        <time>2011-05-29T11:24:45Z</time>
      </trkpt>
      <trkpt lat="46.221782" lon="13.862583">
        <ele>1616.964</ele>
        <time>2011-05-29T11:24:52Z</time>
      </trkpt>
      <trkpt lat="46.221695" lon="13.862531">
        <ele>1616.6592</ele>
        <time>2011-05-29T11:25:02Z</time>
      </trkpt>
      <trkpt lat="46.221529" lon="13.862452">
        <ele>1613.3064</ele>
        <time>2011-05-29T11:25:22Z</time>
      </trkpt>
      <trkpt lat="46.221370" lon="13.862414">
        <ele>1606.6008</ele>
        <time>2011-05-29T11:25:38Z</time>
      </trkpt>
      <trkpt lat="46.221272" lon="13.862388">
        <ele>1601.724</ele>
        <time>2011-05-29T11:25:48Z</time>
      </trkpt>
      <trkpt lat="46.221176" lon="13.862377">
        <ele>1603.5528</ele>
        <time>2011-05-29T11:25:56Z</time>
      </trkpt>
      <trkpt lat="46.221077" lon="13.862413">
        <ele>1603.248</ele>
        <time>2011-05-29T11:26:05Z</time>
      </trkpt>
      <trkpt lat="46.221200" lon="13.862452">
        <ele>1601.724</ele>
        <time>2011-05-29T11:26:17Z</time>
      </trkpt>
      <trkpt lat="46.221293" lon="13.862544">
        <ele>1597.7616</ele>
        <time>2011-05-29T11:26:27Z</time>
      </trkpt>
      <trkpt lat="46.221390" lon="13.862663">
        <ele>1593.1896</ele>
        <time>2011-05-29T11:26:36Z</time>
      </trkpt>
      <trkpt lat="46.221484" lon="13.862786">
        <ele>1591.6656</ele>
        <time>2011-05-29T11:26:47Z</time>
      </trkpt>
      <trkpt lat="46.221514" lon="13.863011">
        <ele>1588.6176</ele>
        <time>2011-05-29T11:26:59Z</time>
      </trkpt>
      <trkpt lat="46.221549" lon="13.863193">
        <ele>1584.96</ele>
        <time>2011-05-29T11:27:10Z</time>
      </trkpt>
      <trkpt lat="46.221574" lon="13.863354">
        <ele>1582.5216</ele>
        <time>2011-05-29T11:27:21Z</time>
      </trkpt>
      <trkpt lat="46.221644" lon="13.863486">
        <ele>1580.9976</ele>
        <time>2011-05-29T11:27:30Z</time>
      </trkpt>
      <trkpt lat="46.221731" lon="13.863606">
        <ele>1575.816</ele>
        <time>2011-05-29T11:27:40Z</time>
      </trkpt>
      <trkpt lat="46.221822" lon="13.863709">
        <ele>1569.1104</ele>
        <time>2011-05-29T11:27:49Z</time>
      </trkpt>
      <trkpt lat="46.221925" lon="13.863691">
        <ele>1567.5864</ele>
        <time>2011-05-29T11:28:01Z</time>
      </trkpt>
      <trkpt lat="46.222085" lon="13.863833">
        <ele>1564.2336</ele>
        <time>2011-05-29T11:28:12Z</time>
      </trkpt>
      <trkpt lat="46.222161" lon="13.863938">
        <ele>1563.624</ele>
        <time>2011-05-29T11:28:20Z</time>
      </trkpt>
      <trkpt lat="46.222236" lon="13.864050">
        <ele>1565.7576</ele>
        <time>2011-05-29T11:28:28Z</time>
      </trkpt>
      <trkpt lat="46.222297" lon="13.864138">
        <ele>1560.2712</ele>
        <time>2011-05-29T11:28:35Z</time>
      </trkpt>
      <trkpt lat="46.222302" lon="13.864309">
        <ele>1554.48</ele>
        <time>2011-05-29T11:28:43Z</time>
      </trkpt>
      <trkpt lat="46.222270" lon="13.864438">
        <ele>1559.3568</ele>
        <time>2011-05-29T11:28:51Z</time>
      </trkpt>
      <trkpt lat="46.222231" lon="13.864592">
        <ele>1555.0896</ele>
        <time>2011-05-29T11:29:02Z</time>
      </trkpt>
      <trkpt lat="46.222215" lon="13.864758">
        <ele>1550.2128</ele>
        <time>2011-05-29T11:29:10Z</time>
      </trkpt>
      <trkpt lat="46.222275" lon="13.864905">
        <ele>1550.2128</ele>
        <time>2011-05-29T11:29:20Z</time>
      </trkpt>
      <trkpt lat="46.222410" lon="13.864957">
        <ele>1547.4696</ele>
        <time>2011-05-29T11:29:29Z</time>
      </trkpt>
      <trkpt lat="46.222490" lon="13.865022">
        <ele>1544.4216</ele>
        <time>2011-05-29T11:29:36Z</time>
      </trkpt>
      <trkpt lat="46.222597" lon="13.865119">
        <ele>1543.5072</ele>
        <time>2011-05-29T11:29:44Z</time>
      </trkpt>
      <trkpt lat="46.222673" lon="13.865235">
        <ele>1541.6784</ele>
        <time>2011-05-29T11:29:52Z</time>
      </trkpt>
      <trkpt lat="46.222663" lon="13.865375">
        <ele>1541.6784</ele>
        <time>2011-05-29T11:30:00Z</time>
      </trkpt>
      <trkpt lat="46.222644" lon="13.865582">
        <ele>1541.6784</ele>
        <time>2011-05-29T11:30:11Z</time>
      </trkpt>
      <trkpt lat="46.222663" lon="13.865743">
        <ele>1537.716</ele>
        <time>2011-05-29T11:30:23Z</time>
      </trkpt>
      <trkpt lat="46.222681" lon="13.865892">
        <ele>1532.5344</ele>
        <time>2011-05-29T11:30:32Z</time>
      </trkpt>
      <trkpt lat="46.222707" lon="13.866021">
        <ele>1530.7056</ele>
        <time>2011-05-29T11:30:41Z</time>
      </trkpt>
      <trkpt lat="46.222693" lon="13.866215">
        <ele>1524.9144</ele>
        <time>2011-05-29T11:30:51Z</time>
      </trkpt>
      <trkpt lat="46.222664" lon="13.866383">
        <ele>1523.6952</ele>
        <time>2011-05-29T11:31:05Z</time>
      </trkpt>
      <trkpt lat="46.222669" lon="13.866563">
        <ele>1519.1232</ele>
        <time>2011-05-29T11:31:14Z</time>
      </trkpt>
      <trkpt lat="46.222648" lon="13.866694">
        <ele>1520.3424</ele>
        <time>2011-05-29T11:31:22Z</time>
      </trkpt>
      <trkpt lat="46.222605" lon="13.866939">
        <ele>1512.7224</ele>
        <time>2011-05-29T11:31:37Z</time>
      </trkpt>
      <trkpt lat="46.222587" lon="13.867087">
        <ele>1514.5512</ele>
        <time>2011-05-29T11:31:45Z</time>
      </trkpt>
      <trkpt lat="46.222563" lon="13.867218">
        <ele>1512.4176</ele>
        <time>2011-05-29T11:31:52Z</time>
      </trkpt>
      <trkpt lat="46.222549" lon="13.867408">
        <ele>1506.0168</ele>
        <time>2011-05-29T11:32:00Z</time>
      </trkpt>
      <trkpt lat="46.222571" lon="13.867612">
        <ele>1504.4928</ele>
        <time>2011-05-29T11:32:11Z</time>
      </trkpt>
      <trkpt lat="46.222589" lon="13.867795">
        <ele>1503.2736</ele>
        <time>2011-05-29T11:32:20Z</time>
      </trkpt>
      <trkpt lat="46.222526" lon="13.867965">
        <ele>1503.5784</ele>
        <time>2011-05-29T11:32:30Z</time>
      </trkpt>
      <trkpt lat="46.222450" lon="13.868042">
        <ele>1501.14</ele>
        <time>2011-05-29T11:32:37Z</time>
      </trkpt>
      <trkpt lat="46.222353" lon="13.868116">
        <ele>1506.6264</ele>
        <time>2011-05-29T11:32:43Z</time>
      </trkpt>
      <trkpt lat="46.222277" lon="13.868275">
        <ele>1498.7016</ele>
        <time>2011-05-29T11:32:54Z</time>
      </trkpt>
      <trkpt lat="46.222241" lon="13.868425">
        <ele>1495.044</ele>
        <time>2011-05-29T11:33:05Z</time>
      </trkpt>
      <trkpt lat="46.222214" lon="13.868608">
        <ele>1492.9104</ele>
        <time>2011-05-29T11:33:17Z</time>
      </trkpt>
      <trkpt lat="46.222157" lon="13.868836">
        <ele>1492.9104</ele>
        <time>2011-05-29T11:33:28Z</time>
      </trkpt>
      <trkpt lat="46.222044" lon="13.868939">
        <ele>1485.2904</ele>
        <time>2011-05-29T11:33:48Z</time>
      </trkpt>
      <trkpt lat="46.222086" lon="13.868982">
        <ele>1483.4616</ele>
        <time>2011-05-29T11:34:14Z</time>
      </trkpt>
      <trkpt lat="46.222025" lon="13.869087">
        <ele>1483.4616</ele>
        <time>2011-05-29T11:34:27Z</time>
      </trkpt>
      <trkpt lat="46.221902" lon="13.869052">
        <ele>1479.4992</ele>
        <time>2011-05-29T11:35:13Z</time>
      </trkpt>
      <trkpt lat="46.221769" lon="13.869175">
        <ele>1476.756</ele>
        <time>2011-05-29T11:35:27Z</time>
      </trkpt>
      <trkpt lat="46.221687" lon="13.869399">
        <ele>1470.3552</ele>
        <time>2011-05-29T11:35:40Z</time>
      </trkpt>
      <trkpt lat="46.221627" lon="13.869513">
        <ele>1472.7936</ele>
        <time>2011-05-29T11:35:47Z</time>
      </trkpt>
      <trkpt lat="46.221542" lon="13.869629">
        <ele>1469.4408</ele>
        <time>2011-05-29T11:35:55Z</time>
      </trkpt>
      <trkpt lat="46.221475" lon="13.869761">
        <ele>1465.1736</ele>
        <time>2011-05-29T11:36:03Z</time>
      </trkpt>
      <trkpt lat="46.221393" lon="13.869975">
        <ele>1460.9064</ele>
        <time>2011-05-29T11:36:18Z</time>
      </trkpt>
      <trkpt lat="46.221381" lon="13.870150">
        <ele>1457.8584</ele>
        <time>2011-05-29T11:36:30Z</time>
      </trkpt>
      <trkpt lat="46.221305" lon="13.870303">
        <ele>1456.6392</ele>
        <time>2011-05-29T11:36:41Z</time>
      </trkpt>
      <trkpt lat="46.221259" lon="13.870418">
        <ele>1452.0672</ele>
        <time>2011-05-29T11:36:46Z</time>
      </trkpt>
      <trkpt lat="46.221210" lon="13.870580">
        <ele>1449.324</ele>
        <time>2011-05-29T11:36:54Z</time>
      </trkpt>
      <trkpt lat="46.221174" lon="13.870797">
        <ele>1445.3616</ele>
        <time>2011-05-29T11:37:15Z</time>
      </trkpt>
      <trkpt lat="46.221155" lon="13.870930">
        <ele>1444.1424</ele>
        <time>2011-05-29T11:37:19Z</time>
      </trkpt>
      <trkpt lat="46.221095" lon="13.871073">
        <ele>1437.7416</ele>
        <time>2011-05-29T11:37:24Z</time>
      </trkpt>
      <trkpt lat="46.221039" lon="13.871208">
        <ele>1441.704</ele>
        <time>2011-05-29T11:37:47Z</time>
      </trkpt>
      <trkpt lat="46.220951" lon="13.871477">
        <ele>1435.3032</ele>
        <time>2011-05-29T11:38:22Z</time>
      </trkpt>
      <trkpt lat="46.220889" lon="13.871644">
        <ele>1431.9504</ele>
        <time>2011-05-29T11:38:32Z</time>
      </trkpt>
      <trkpt lat="46.220847" lon="13.871785">
        <ele>1430.1216</ele>
        <time>2011-05-29T11:38:42Z</time>
      </trkpt>
      <trkpt lat="46.220726" lon="13.871957">
        <ele>1425.8544</ele>
        <time>2011-05-29T11:38:55Z</time>
      </trkpt>
      <trkpt lat="46.220678" lon="13.872060">
        <ele>1423.416</ele>
        <time>2011-05-29T11:39:04Z</time>
      </trkpt>
      <trkpt lat="46.220668" lon="13.872246">
        <ele>1420.0632</ele>
        <time>2011-05-29T11:39:15Z</time>
      </trkpt>
      <trkpt lat="46.220643" lon="13.872425">
        <ele>1416.7104</ele>
        <time>2011-05-29T11:39:27Z</time>
      </trkpt>
      <trkpt lat="46.220625" lon="13.872559">
        <ele>1414.272</ele>
        <time>2011-05-29T11:39:35Z</time>
      </trkpt>
      <trkpt lat="46.220608" lon="13.872825">
        <ele>1410.3096</ele>
        <time>2011-05-29T11:39:50Z</time>
      </trkpt>
      <trkpt lat="46.220615" lon="13.873031">
        <ele>1409.0904</ele>
        <time>2011-05-29T11:39:59Z</time>
      </trkpt>
      <trkpt lat="46.220546" lon="13.872905">
        <ele>1405.128</ele>
        <time>2011-05-29T11:46:27Z</time>
      </trkpt>
      <trkpt lat="46.220482" lon="13.872764">
        <ele>1403.2992</ele>
        <time>2011-05-29T11:46:35Z</time>
      </trkpt>
      <trkpt lat="46.220435" lon="13.872644">
        <ele>1402.6896</ele>
        <time>2011-05-29T11:48:04Z</time>
      </trkpt>
      <trkpt lat="46.220375" lon="13.872498">
        <ele>1398.7272</ele>
        <time>2011-05-29T11:48:15Z</time>
      </trkpt>
      <trkpt lat="46.220316" lon="13.872400">
        <ele>1394.46</ele>
        <time>2011-05-29T11:48:23Z</time>
      </trkpt>
      <trkpt lat="46.220282" lon="13.872206">
        <ele>1388.364</ele>
        <time>2011-05-29T11:48:51Z</time>
      </trkpt>
      <trkpt lat="46.220253" lon="13.872060">
        <ele>1385.9256</ele>
        <time>2011-05-29T11:48:57Z</time>
      </trkpt>
      <trkpt lat="46.220180" lon="13.871615">
        <ele>1381.0488</ele>
        <time>2011-05-29T11:49:13Z</time>
      </trkpt>
      <trkpt lat="46.220137" lon="13.871508">
        <ele>1370.3808</ele>
        <time>2011-05-29T11:49:37Z</time>
      </trkpt>
      <trkpt lat="46.220086" lon="13.871318">
        <ele>1369.1616</ele>
        <time>2011-05-29T11:49:47Z</time>
      </trkpt>
      <trkpt lat="46.220018" lon="13.871088">
        <ele>1367.6376</ele>
        <time>2011-05-29T11:49:52Z</time>
      </trkpt>
      <trkpt lat="46.219900" lon="13.870794">
        <ele>1365.1992</ele>
        <time>2011-05-29T11:50:07Z</time>
      </trkpt>
      <trkpt lat="46.219869" lon="13.870660">
        <ele>1361.8464</ele>
        <time>2011-05-29T11:50:16Z</time>
      </trkpt>
      <trkpt lat="46.219816" lon="13.870511">
        <ele>1356.9696</ele>
        <time>2011-05-29T11:50:30Z</time>
      </trkpt>
      <trkpt lat="46.219742" lon="13.870346">
        <ele>1354.5312</ele>
        <time>2011-05-29T11:50:37Z</time>
      </trkpt>
      <trkpt lat="46.219663" lon="13.870168">
        <ele>1346.9112</ele>
        <time>2011-05-29T11:50:58Z</time>
      </trkpt>
      <trkpt lat="46.219611" lon="13.869905">
        <ele>1340.8152</ele>
        <time>2011-05-29T11:51:13Z</time>
      </trkpt>
      <trkpt lat="46.219521" lon="13.869620">
        <ele>1338.3768</ele>
        <time>2011-05-29T11:51:29Z</time>
      </trkpt>
      <trkpt lat="46.219461" lon="13.869461">
        <ele>1335.3288</ele>
        <time>2011-05-29T11:51:40Z</time>
      </trkpt>
      <trkpt lat="46.219377" lon="13.869273">
        <ele>1331.0616</ele>
        <time>2011-05-29T11:51:47Z</time>
      </trkpt>
      <trkpt lat="46.219387" lon="13.869064">
        <ele>1329.2328</ele>
        <time>2011-05-29T11:51:58Z</time>
      </trkpt>
      <trkpt lat="46.219440" lon="13.868725">
        <ele>1323.4416</ele>
        <time>2011-05-29T11:52:11Z</time>
      </trkpt>
      <trkpt lat="46.219491" lon="13.868386">
        <ele>1321.9176</ele>
        <time>2011-05-29T11:52:21Z</time>
      </trkpt>
      <trkpt lat="46.219561" lon="13.868274">
        <ele>1317.6504</ele>
        <time>2011-05-29T11:52:38Z</time>
      </trkpt>
      <trkpt lat="46.219515" lon="13.868231">
        <ele>1316.736</ele>
        <time>2011-05-29T11:53:24Z</time>
      </trkpt>
      <trkpt lat="46.219421" lon="13.868341">
        <ele>1313.688</ele>
        <time>2011-05-29T11:53:47Z</time>
      </trkpt>
      <trkpt lat="46.219318" lon="13.868446">
        <ele>1311.8592</ele>
        <time>2011-05-29T11:54:02Z</time>
      </trkpt>
      <trkpt lat="46.219210" lon="13.868513">
        <ele>1306.6776</ele>
        <time>2011-05-29T11:54:21Z</time>
      </trkpt>
      <trkpt lat="46.219108" lon="13.868625">
        <ele>1305.1536</ele>
        <time>2011-05-29T11:54:34Z</time>
      </trkpt>
      <trkpt lat="46.219011" lon="13.868749">
        <ele>1301.8008</ele>
        <time>2011-05-29T11:54:38Z</time>
      </trkpt>
      <trkpt lat="46.218902" lon="13.868829">
        <ele>1302.1056</ele>
        <time>2011-05-29T11:54:44Z</time>
      </trkpt>
      <trkpt lat="46.218800" lon="13.868898">
        <ele>1296.0096</ele>
        <time>2011-05-29T11:54:57Z</time>
      </trkpt>
      <trkpt lat="46.218790" lon="13.869165">
        <ele>1292.9616</ele>
        <time>2011-05-29T11:55:13Z</time>
      </trkpt>
      <trkpt lat="46.218772" lon="13.869381">
        <ele>1289.304</ele>
        <time>2011-05-29T11:55:23Z</time>
      </trkpt>
      <trkpt lat="46.218753" lon="13.869528">
        <ele>1285.0368</ele>
        <time>2011-05-29T11:55:47Z</time>
      </trkpt>
      <trkpt lat="46.218643" lon="13.869828">
        <ele>1278.636</ele>
        <time>2011-05-29T11:56:01Z</time>
      </trkpt>
      <trkpt lat="46.218588" lon="13.870079">
        <ele>1277.112</ele>
        <time>2011-05-29T11:56:10Z</time>
      </trkpt>
      <trkpt lat="46.218543" lon="13.870212">
        <ele>1275.2832</ele>
        <time>2011-05-29T11:56:13Z</time>
      </trkpt>
      <trkpt lat="46.218481" lon="13.870446">
        <ele>1275.2832</ele>
        <time>2011-05-29T11:56:21Z</time>
      </trkpt>
      <trkpt lat="46.218425" lon="13.870726">
        <ele>1271.9304</ele>
        <time>2011-05-29T11:56:29Z</time>
      </trkpt>
      <trkpt lat="46.218413" lon="13.870941">
        <ele>1271.016</ele>
        <time>2011-05-29T11:56:37Z</time>
      </trkpt>
      <trkpt lat="46.218403" lon="13.871071">
        <ele>1267.968</ele>
        <time>2011-05-29T11:56:41Z</time>
      </trkpt>
      <trkpt lat="46.218347" lon="13.871430">
        <ele>1265.2248</ele>
        <time>2011-05-29T11:56:56Z</time>
      </trkpt>
      <trkpt lat="46.218287" lon="13.871663">
        <ele>1261.2624</ele>
        <time>2011-05-29T11:57:05Z</time>
      </trkpt>
      <trkpt lat="46.218267" lon="13.871854">
        <ele>1259.4336</ele>
        <time>2011-05-29T11:57:15Z</time>
      </trkpt>
      <trkpt lat="46.218248" lon="13.872002">
        <ele>1258.5192</ele>
        <time>2011-05-29T11:57:24Z</time>
      </trkpt>
      <trkpt lat="46.218202" lon="13.872189">
        <ele>1256.0808</ele>
        <time>2011-05-29T11:57:32Z</time>
      </trkpt>
      <trkpt lat="46.218135" lon="13.872356">
        <ele>1251.8136</ele>
        <time>2011-05-29T11:57:41Z</time>
      </trkpt>
      <trkpt lat="46.218070" lon="13.872603">
        <ele>1250.8992</ele>
        <time>2011-05-29T11:57:51Z</time>
      </trkpt>
      <trkpt lat="46.218013" lon="13.872866">
        <ele>1246.9368</ele>
        <time>2011-05-29T11:58:03Z</time>
      </trkpt>
      <trkpt lat="46.217953" lon="13.873080">
        <ele>1245.108</ele>
        <time>2011-05-29T11:58:16Z</time>
      </trkpt>
      <trkpt lat="46.217931" lon="13.873240">
        <ele>1241.7552</ele>
        <time>2011-05-29T11:58:24Z</time>
      </trkpt>
      <trkpt lat="46.217911" lon="13.873391">
        <ele>1238.4024</ele>
        <time>2011-05-29T11:58:33Z</time>
      </trkpt>
      <trkpt lat="46.217905" lon="13.873492">
        <ele>1238.4024</ele>
        <time>2011-05-29T11:58:47Z</time>
      </trkpt>
      <trkpt lat="46.217849" lon="13.873644">
        <ele>1235.0496</ele>
        <time>2011-05-29T11:58:56Z</time>
      </trkpt>
      <trkpt lat="46.217852" lon="13.873827">
        <ele>1234.44</ele>
        <time>2011-05-29T11:59:04Z</time>
      </trkpt>
      <trkpt lat="46.217843" lon="13.873981">
        <ele>1231.6968</ele>
        <time>2011-05-29T11:59:14Z</time>
      </trkpt>
      <trkpt lat="46.217798" lon="13.874142">
        <ele>1229.5632</ele>
        <time>2011-05-29T11:59:20Z</time>
      </trkpt>
      <trkpt lat="46.217730" lon="13.874262">
        <ele>1226.82</ele>
        <time>2011-05-29T11:59:27Z</time>
      </trkpt>
      <trkpt lat="46.217705" lon="13.874437">
        <ele>1226.82</ele>
        <time>2011-05-29T11:59:38Z</time>
      </trkpt>
      <trkpt lat="46.217687" lon="13.874618">
        <ele>1221.6384</ele>
        <time>2011-05-29T11:59:47Z</time>
      </trkpt>
      <trkpt lat="46.217695" lon="13.874798">
        <ele>1217.9808</ele>
        <time>2011-05-29T11:59:58Z</time>
      </trkpt>
      <trkpt lat="46.217722" lon="13.875175">
        <ele>1214.3232</ele>
        <time>2011-05-29T12:00:16Z</time>
      </trkpt>
      <trkpt lat="46.217740" lon="13.875711">
        <ele>1206.7032</ele>
        <time>2011-05-29T12:00:44Z</time>
      </trkpt>
      <trkpt lat="46.217743" lon="13.876004">
        <ele>1198.7784</ele>
        <time>2011-05-29T12:01:07Z</time>
      </trkpt>
      <trkpt lat="46.217697" lon="13.876305">
        <ele>1194.5112</ele>
        <time>2011-05-29T12:01:22Z</time>
      </trkpt>
      <trkpt lat="46.217558" lon="13.876637">
        <ele>1191.1584</ele>
        <time>2011-05-29T12:01:34Z</time>
      </trkpt>
      <trkpt lat="46.217455" lon="13.876800">
        <ele>1190.8536</ele>
        <time>2011-05-29T12:01:42Z</time>
      </trkpt>
      <trkpt lat="46.217342" lon="13.876891">
        <ele>1185.9768</ele>
        <time>2011-05-29T12:01:53Z</time>
      </trkpt>
      <trkpt lat="46.217300" lon="13.877018">
        <ele>1186.8912</ele>
        <time>2011-05-29T12:02:01Z</time>
      </trkpt>
      <trkpt lat="46.217476" lon="13.877232">
        <ele>1180.1856</ele>
        <time>2011-05-29T12:02:20Z</time>
      </trkpt>
      <trkpt lat="46.217639" lon="13.877429">
        <ele>1177.7472</ele>
        <time>2011-05-29T12:02:38Z</time>
      </trkpt>
      <trkpt lat="46.217684" lon="13.877774">
        <ele>1174.3944</ele>
        <time>2011-05-29T12:02:47Z</time>
      </trkpt>
      <trkpt lat="46.217775" lon="13.878059">
        <ele>1173.7848</ele>
        <time>2011-05-29T12:03:00Z</time>
      </trkpt>
      <trkpt lat="46.217836" lon="13.878191">
        <ele>1174.3944</ele>
        <time>2011-05-29T12:03:10Z</time>
      </trkpt>
      <trkpt lat="46.217909" lon="13.878478">
        <ele>1171.0416</ele>
        <time>2011-05-29T12:03:21Z</time>
      </trkpt>
      <trkpt lat="46.217962" lon="13.878584">
        <ele>1168.6032</ele>
        <time>2011-05-29T12:03:27Z</time>
      </trkpt>
      <trkpt lat="46.218020" lon="13.878825">
        <ele>1167.6888</ele>
        <time>2011-05-29T12:03:37Z</time>
      </trkpt>
      <trkpt lat="46.218016" lon="13.878972">
        <ele>1165.2504</ele>
        <time>2011-05-29T12:03:45Z</time>
      </trkpt>
      <trkpt lat="46.217981" lon="13.879152">
        <ele>1161.8976</ele>
        <time>2011-05-29T12:03:56Z</time>
      </trkpt>
      <trkpt lat="46.217939" lon="13.879382">
        <ele>1160.3736</ele>
        <time>2011-05-29T12:04:09Z</time>
      </trkpt>
      <trkpt lat="46.217831" lon="13.879732">
        <ele>1156.716</ele>
        <time>2011-05-29T12:04:24Z</time>
      </trkpt>
      <trkpt lat="46.217770" lon="13.879989">
        <ele>1151.2296</ele>
        <time>2011-05-29T12:04:39Z</time>
      </trkpt>
      <trkpt lat="46.217721" lon="13.880171">
        <ele>1147.8768</ele>
        <time>2011-05-29T12:04:47Z</time>
      </trkpt>
      <trkpt lat="46.217704" lon="13.880323">
        <ele>1146.048</ele>
        <time>2011-05-29T12:04:54Z</time>
      </trkpt>
      <trkpt lat="46.217730" lon="13.880486">
        <ele>1145.4384</ele>
        <time>2011-05-29T12:04:59Z</time>
      </trkpt>
      <trkpt lat="46.217777" lon="13.880611">
        <ele>1143.6096</ele>
        <time>2011-05-29T12:05:06Z</time>
      </trkpt>
      <trkpt lat="46.217784" lon="13.880778">
        <ele>1140.8664</ele>
        <time>2011-05-29T12:05:11Z</time>
      </trkpt>
      <trkpt lat="46.217795" lon="13.880929">
        <ele>1137.8184</ele>
        <time>2011-05-29T12:05:25Z</time>
      </trkpt>
      <trkpt lat="46.217755" lon="13.881140">
        <ele>1138.7328</ele>
        <time>2011-05-29T12:05:37Z</time>
      </trkpt>
      <trkpt lat="46.217695" lon="13.881286">
        <ele>1134.1608</ele>
        <time>2011-05-29T12:05:41Z</time>
      </trkpt>
      <trkpt lat="46.217659" lon="13.881495">
        <ele>1135.9896</ele>
        <time>2011-05-29T12:05:49Z</time>
      </trkpt>
      <trkpt lat="46.217614" lon="13.881795">
        <ele>1128.3696</ele>
        <time>2011-05-29T12:06:31Z</time>
      </trkpt>
      <trkpt lat="46.217537" lon="13.882064">
        <ele>1122.8832</ele>
        <time>2011-05-29T12:06:46Z</time>
      </trkpt>
      <trkpt lat="46.217493" lon="13.882220">
        <ele>1118.0064</ele>
        <time>2011-05-29T12:07:10Z</time>
      </trkpt>
      <trkpt lat="46.217360" lon="13.882644">
        <ele>1110.0816</ele>
        <time>2011-05-29T12:07:22Z</time>
      </trkpt>
      <trkpt lat="46.217338" lon="13.882847">
        <ele>1107.948</ele>
        <time>2011-05-29T12:07:33Z</time>
      </trkpt>
      <trkpt lat="46.217339" lon="13.883089">
        <ele>1105.2048</ele>
        <time>2011-05-29T12:07:52Z</time>
      </trkpt>
      <trkpt lat="46.217295" lon="13.883380">
        <ele>1101.852</ele>
        <time>2011-05-29T12:08:00Z</time>
      </trkpt>
      <trkpt lat="46.217189" lon="13.883742">
        <ele>1098.4992</ele>
        <time>2011-05-29T12:08:19Z</time>
      </trkpt>
      <trkpt lat="46.217120" lon="13.883999">
        <ele>1095.1464</ele>
        <time>2011-05-29T12:08:26Z</time>
      </trkpt>
      <trkpt lat="46.217094" lon="13.884126">
        <ele>1092.708</ele>
        <time>2011-05-29T12:08:29Z</time>
      </trkpt>
      <trkpt lat="46.217102" lon="13.884395">
        <ele>1089.3552</ele>
        <time>2011-05-29T12:08:43Z</time>
      </trkpt>
      <trkpt lat="46.217095" lon="13.884623">
        <ele>1085.3928</ele>
        <time>2011-05-29T12:09:09Z</time>
      </trkpt>
      <trkpt lat="46.217050" lon="13.884926">
        <ele>1082.04</ele>
        <time>2011-05-29T12:09:18Z</time>
      </trkpt>
      <trkpt lat="46.216955" lon="13.885099">
        <ele>1081.1256</ele>
        <time>2011-05-29T12:09:25Z</time>
      </trkpt>
      <trkpt lat="46.216923" lon="13.885275">
        <ele>1074.42</ele>
        <time>2011-05-29T12:09:50Z</time>
      </trkpt>
      <trkpt lat="46.216817" lon="13.885658">
        <ele>1067.7144</ele>
        <time>2011-05-29T12:10:06Z</time>
      </trkpt>
      <trkpt lat="46.216753" lon="13.885944">
        <ele>1064.3616</ele>
        <time>2011-05-29T12:10:25Z</time>
      </trkpt>
      <trkpt lat="46.216708" lon="13.886122">
        <ele>1059.18</ele>
        <time>2011-05-29T12:10:45Z</time>
      </trkpt>
      <trkpt lat="46.216609" lon="13.886422">
        <ele>1059.18</ele>
        <time>2011-05-29T12:10:49Z</time>
      </trkpt>
      <trkpt lat="46.216536" lon="13.886681">
        <ele>1057.9608</ele>
        <time>2011-05-29T12:10:53Z</time>
      </trkpt>
      <trkpt lat="46.216477" lon="13.886930">
        <ele>1054.3032</ele>
        <time>2011-05-29T12:11:01Z</time>
      </trkpt>
      <trkpt lat="46.216470" lon="13.887069">
        <ele>1050.9504</ele>
        <time>2011-05-29T12:11:16Z</time>
      </trkpt>
      <trkpt lat="46.216412" lon="13.887898">
        <ele>1039.6728</ele>
        <time>2011-05-29T12:11:59Z</time>
      </trkpt>
      <trkpt lat="46.216378" lon="13.888032">
        <ele>1036.9296</ele>
        <time>2011-05-29T12:12:10Z</time>
      </trkpt>
      <trkpt lat="46.216341" lon="13.888187">
        <ele>1032.9672</ele>
        <time>2011-05-29T12:12:17Z</time>
      </trkpt>
      <trkpt lat="46.216290" lon="13.888329">
        <ele>1030.5288</ele>
        <time>2011-05-29T12:12:23Z</time>
      </trkpt>
      <trkpt lat="46.216192" lon="13.888691">
        <ele>1029.3096</ele>
        <time>2011-05-29T12:12:33Z</time>
      </trkpt>
      <trkpt lat="46.216017" lon="13.889055">
        <ele>1027.7856</ele>
        <time>2011-05-29T12:12:52Z</time>
      </trkpt>
      <trkpt lat="46.215995" lon="13.889191">
        <ele>1021.08</ele>
        <time>2011-05-29T12:13:08Z</time>
      </trkpt>
      <trkpt lat="46.215942" lon="13.889316">
        <ele>1022.604</ele>
        <time>2011-05-29T12:13:12Z</time>
      </trkpt>
      <trkpt lat="46.215872" lon="13.889485">
        <ele>1021.9944</ele>
        <time>2011-05-29T12:13:16Z</time>
      </trkpt>
      <trkpt lat="46.215711" lon="13.889657">
        <ele>1019.2512</ele>
        <time>2011-05-29T12:13:31Z</time>
      </trkpt>
      <trkpt lat="46.215579" lon="13.890087">
        <ele>1012.5456</ele>
        <time>2011-05-29T12:13:53Z</time>
      </trkpt>
      <trkpt lat="46.215513" lon="13.890394">
        <ele>1010.1072</ele>
        <time>2011-05-29T12:14:09Z</time>
      </trkpt>
      <trkpt lat="46.215489" lon="13.890652">
        <ele>1006.7544</ele>
        <time>2011-05-29T12:14:28Z</time>
      </trkpt>
      <trkpt lat="46.215444" lon="13.890771">
        <ele>1004.6208</ele>
        <time>2011-05-29T12:14:34Z</time>
      </trkpt>
      <trkpt lat="46.215293" lon="13.891160">
        <ele>1005.2304</ele>
        <time>2011-05-29T12:14:45Z</time>
      </trkpt>
      <trkpt lat="46.215217" lon="13.891330">
        <ele>1002.792</ele>
        <time>2011-05-29T12:14:52Z</time>
      </trkpt>
      <trkpt lat="46.215159" lon="13.891454">
        <ele>999.4392</ele>
        <time>2011-05-29T12:15:00Z</time>
      </trkpt>
      <trkpt lat="46.215078" lon="13.891640">
        <ele>997.6104</ele>
        <time>2011-05-29T12:15:12Z</time>
      </trkpt>
      <trkpt lat="46.215066" lon="13.891796">
        <ele>998.5248</ele>
        <time>2011-05-29T12:15:20Z</time>
      </trkpt>
      <trkpt lat="46.215031" lon="13.891966">
        <ele>997.6104</ele>
        <time>2011-05-29T12:15:28Z</time>
      </trkpt>
      <trkpt lat="46.214983" lon="13.892087">
        <ele>994.2576</ele>
        <time>2011-05-29T12:15:34Z</time>
      </trkpt>
      <trkpt lat="46.214927" lon="13.892388">
        <ele>991.2096</ele>
        <time>2011-05-29T12:15:49Z</time>
      </trkpt>
      <trkpt lat="46.214870" lon="13.892635">
        <ele>990.2952</ele>
        <time>2011-05-29T12:15:59Z</time>
      </trkpt>
      <trkpt lat="46.214849" lon="13.892765">
        <ele>989.3808</ele>
        <time>2011-05-29T12:16:05Z</time>
      </trkpt>
      <trkpt lat="46.214853" lon="13.893051">
        <ele>986.3328</ele>
        <time>2011-05-29T12:16:21Z</time>
      </trkpt>
      <trkpt lat="46.214771" lon="13.893449">
        <ele>984.504</ele>
        <time>2011-05-29T12:16:37Z</time>
      </trkpt>
      <trkpt lat="46.214733" lon="13.893602">
        <ele>985.4184</ele>
        <time>2011-05-29T12:16:44Z</time>
      </trkpt>
      <trkpt lat="46.214682" lon="13.893725">
        <ele>983.5896</ele>
        <time>2011-05-29T12:16:51Z</time>
      </trkpt>
      <trkpt lat="46.214620" lon="13.893900">
        <ele>980.2368</ele>
        <time>2011-05-29T12:16:57Z</time>
      </trkpt>
      <trkpt lat="46.214534" lon="13.894145">
        <ele>979.3224</ele>
        <time>2011-05-29T12:17:12Z</time>
      </trkpt>
      <trkpt lat="46.214435" lon="13.894481">
        <ele>977.7984</ele>
        <time>2011-05-29T12:17:35Z</time>
      </trkpt>
      <trkpt lat="46.214406" lon="13.894742">
        <ele>976.2744</ele>
        <time>2011-05-29T12:17:51Z</time>
      </trkpt>
      <trkpt lat="46.214480" lon="13.894908">
        <ele>972.9216</ele>
        <time>2011-05-29T12:18:17Z</time>
      </trkpt>
      <trkpt lat="46.214433" lon="13.895096">
        <ele>972.6168</ele>
        <time>2011-05-29T12:18:21Z</time>
      </trkpt>
      <trkpt lat="46.214373" lon="13.895248">
        <ele>969.264</ele>
        <time>2011-05-29T12:18:44Z</time>
      </trkpt>
      <trkpt lat="46.214285" lon="13.895465">
        <ele>965.9112</ele>
        <time>2011-05-29T12:18:52Z</time>
      </trkpt>
      <trkpt lat="46.214175" lon="13.895574">
        <ele>966.216</ele>
        <time>2011-05-29T12:18:59Z</time>
      </trkpt>
      <trkpt lat="46.214091" lon="13.895707">
        <ele>961.0344</ele>
        <time>2011-05-29T12:19:26Z</time>
      </trkpt>
      <trkpt lat="46.213909" lon="13.895921">
        <ele>961.9488</ele>
        <time>2011-05-29T12:19:42Z</time>
      </trkpt>
      <trkpt lat="46.213821" lon="13.895983">
        <ele>957.072</ele>
        <time>2011-05-29T12:19:58Z</time>
      </trkpt>
      <trkpt lat="46.213704" lon="13.896095">
        <ele>956.7672</ele>
        <time>2011-05-29T12:21:40Z</time>
      </trkpt>
      <trkpt lat="46.213788" lon="13.896194">
        <ele>962.5584</ele>
        <time>2011-05-29T12:23:20Z</time>
      </trkpt>
      <trkpt lat="46.213812" lon="13.896243">
        <ele>961.3392</ele>
        <time>2011-05-29T12:24:16Z</time>
      </trkpt>
      <trkpt lat="46.213754" lon="13.896463">
        <ele>964.692</ele>
        <time>2011-05-29T12:24:32Z</time>
      </trkpt>
      <trkpt lat="46.213608" lon="13.896478">
        <ele>962.5584</ele>
        <time>2011-05-29T12:25:08Z</time>
      </trkpt>
      <trkpt lat="46.213481" lon="13.896499">
        <ele>958.9008</ele>
        <time>2011-05-29T12:25:16Z</time>
      </trkpt>
      <trkpt lat="46.213377" lon="13.896527">
        <ele>958.596</ele>
        <time>2011-05-29T12:25:33Z</time>
      </trkpt>
      <trkpt lat="46.213231" lon="13.896625">
        <ele>957.072</ele>
        <time>2011-05-29T12:26:15Z</time>
      </trkpt>
      <trkpt lat="46.213094" lon="13.896680">
        <ele>950.976</ele>
        <time>2011-05-29T12:26:27Z</time>
      </trkpt>
      <trkpt lat="46.212987" lon="13.896754">
        <ele>954.3288</ele>
        <time>2011-05-29T12:26:38Z</time>
      </trkpt>
      <trkpt lat="46.212855" lon="13.896816">
        <ele>950.0616</ele>
        <time>2011-05-29T12:26:46Z</time>
      </trkpt>
      <trkpt lat="46.212717" lon="13.896825">
        <ele>950.0616</ele>
        <time>2011-05-29T12:26:58Z</time>
      </trkpt>
      <trkpt lat="46.212538" lon="13.896839">
        <ele>946.7088</ele>
        <time>2011-05-29T12:27:13Z</time>
      </trkpt>
      <trkpt lat="46.212357" lon="13.896916">
        <ele>943.0512</ele>
        <time>2011-05-29T12:27:27Z</time>
      </trkpt>
      <trkpt lat="46.212260" lon="13.896975">
        <ele>945.4896</ele>
        <time>2011-05-29T12:27:32Z</time>
      </trkpt>
      <trkpt lat="46.212156" lon="13.897043">
        <ele>940.9176</ele>
        <time>2011-05-29T12:27:40Z</time>
      </trkpt>
      <trkpt lat="46.212058" lon="13.897130">
        <ele>938.4792</ele>
        <time>2011-05-29T12:27:48Z</time>
      </trkpt>
      <trkpt lat="46.211947" lon="13.897212">
        <ele>936.9552</ele>
        <time>2011-05-29T12:27:55Z</time>
      </trkpt>
      <trkpt lat="46.211738" lon="13.897342">
        <ele>936.9552</ele>
        <time>2011-05-29T12:28:07Z</time>
      </trkpt>
      <trkpt lat="46.211648" lon="13.897388">
        <ele>940.9176</ele>
        <time>2011-05-29T12:28:14Z</time>
      </trkpt>
      <trkpt lat="46.211491" lon="13.897395">
        <ele>934.5168</ele>
        <time>2011-05-29T12:28:22Z</time>
      </trkpt>
      <trkpt lat="46.211392" lon="13.897519">
        <ele>934.212</ele>
        <time>2011-05-29T12:28:27Z</time>
      </trkpt>
      <trkpt lat="46.211296" lon="13.897661">
        <ele>937.5648</ele>
        <time>2011-05-29T12:28:37Z</time>
      </trkpt>
      <trkpt lat="46.211223" lon="13.897880">
        <ele>932.9928</ele>
        <time>2011-05-29T12:28:49Z</time>
      </trkpt>
      <trkpt lat="46.211161" lon="13.898004">
        <ele>931.7736</ele>
        <time>2011-05-29T12:28:57Z</time>
      </trkpt>
      <trkpt lat="46.211088" lon="13.898111">
        <ele>933.6024</ele>
        <time>2011-05-29T12:29:04Z</time>
      </trkpt>
      <trkpt lat="46.211018" lon="13.898271">
        <ele>932.9928</ele>
        <time>2011-05-29T12:29:15Z</time>
      </trkpt>
      <trkpt lat="46.210964" lon="13.898385">
        <ele>928.4208</ele>
        <time>2011-05-29T12:29:20Z</time>
      </trkpt>
      <trkpt lat="46.210910" lon="13.898526">
        <ele>931.7736</ele>
        <time>2011-05-29T12:29:28Z</time>
      </trkpt>
      <trkpt lat="46.210847" lon="13.898726">
        <ele>926.2872</ele>
        <time>2011-05-29T12:29:38Z</time>
      </trkpt>
      <trkpt lat="46.210750" lon="13.898896">
        <ele>924.4584</ele>
        <time>2011-05-29T12:29:51Z</time>
      </trkpt>
      <trkpt lat="46.210674" lon="13.899029">
        <ele>925.068</ele>
        <time>2011-05-29T12:30:06Z</time>
      </trkpt>
      <trkpt lat="46.210579" lon="13.899193">
        <ele>922.02</ele>
        <time>2011-05-29T12:30:18Z</time>
      </trkpt>
      <trkpt lat="46.210490" lon="13.899314">
        <ele>925.3728</ele>
        <time>2011-05-29T12:30:22Z</time>
      </trkpt>
      <trkpt lat="46.210348" lon="13.899427">
        <ele>922.02</ele>
        <time>2011-05-29T12:30:32Z</time>
      </trkpt>
      <trkpt lat="46.210163" lon="13.899462">
        <ele>919.5816</ele>
        <time>2011-05-29T12:30:44Z</time>
      </trkpt>
      <trkpt lat="46.210014" lon="13.899356">
        <ele>918.6672</ele>
        <time>2011-05-29T12:30:53Z</time>
      </trkpt>
      <trkpt lat="46.209870" lon="13.899450">
        <ele>920.1912</ele>
        <time>2011-05-29T12:31:12Z</time>
      </trkpt>
      <trkpt lat="46.209676" lon="13.899679">
        <ele>918.6672</ele>
        <time>2011-05-29T12:31:48Z</time>
      </trkpt>
      <trkpt lat="46.209591" lon="13.899768">
        <ele>914.4</ele>
        <time>2011-05-29T12:32:02Z</time>
      </trkpt>
      <trkpt lat="46.209480" lon="13.899904">
        <ele>911.352</ele>
        <time>2011-05-29T12:32:14Z</time>
      </trkpt>
      <trkpt lat="46.209388" lon="13.899949">
        <ele>914.7048</ele>
        <time>2011-05-29T12:32:24Z</time>
      </trkpt>
      <trkpt lat="46.209294" lon="13.900018">
        <ele>910.1328</ele>
        <time>2011-05-29T12:32:33Z</time>
      </trkpt>
      <trkpt lat="46.209206" lon="13.900099">
        <ele>908.6088</ele>
        <time>2011-05-29T12:32:37Z</time>
      </trkpt>
      <trkpt lat="46.209103" lon="13.900188">
        <ele>912.876</ele>
        <time>2011-05-29T12:32:42Z</time>
      </trkpt>
      <trkpt lat="46.208909" lon="13.900246">
        <ele>908.6088</ele>
        <time>2011-05-29T12:32:56Z</time>
      </trkpt>
      <trkpt lat="46.208688" lon="13.900289">
        <ele>905.256</ele>
        <time>2011-05-29T12:33:09Z</time>
      </trkpt>
      <trkpt lat="46.208605" lon="13.900372">
        <ele>908.9136</ele>
        <time>2011-05-29T12:33:16Z</time>
      </trkpt>
      <trkpt lat="46.208515" lon="13.900457">
        <ele>904.3416</ele>
        <time>2011-05-29T12:33:22Z</time>
      </trkpt>
      <trkpt lat="46.208392" lon="13.900557">
        <ele>904.6464</ele>
        <time>2011-05-29T12:33:30Z</time>
      </trkpt>
      <trkpt lat="46.208316" lon="13.900658">
        <ele>907.0848</ele>
        <time>2011-05-29T12:33:38Z</time>
      </trkpt>
      <trkpt lat="46.208322" lon="13.900817">
        <ele>906.1704</ele>
        <time>2011-05-29T12:33:46Z</time>
      </trkpt>
      <trkpt lat="46.208454" lon="13.900961">
        <ele>904.3416</ele>
        <time>2011-05-29T12:33:58Z</time>
      </trkpt>
      <trkpt lat="46.208543" lon="13.901059">
        <ele>899.4648</ele>
        <time>2011-05-29T12:34:06Z</time>
      </trkpt>
      <trkpt lat="46.208651" lon="13.901174">
        <ele>895.5024</ele>
        <time>2011-05-29T12:34:17Z</time>
      </trkpt>
      <trkpt lat="46.208689" lon="13.901317">
        <ele>894.588</ele>
        <time>2011-05-29T12:34:25Z</time>
      </trkpt>
      <trkpt lat="46.208755" lon="13.901470">
        <ele>889.7112</ele>
        <time>2011-05-29T12:34:36Z</time>
      </trkpt>
      <trkpt lat="46.208791" lon="13.901617">
        <ele>890.9304</ele>
        <time>2011-05-29T12:34:44Z</time>
      </trkpt>
      <trkpt lat="46.208879" lon="13.901723">
        <ele>887.5776</ele>
        <time>2011-05-29T12:34:56Z</time>
      </trkpt>
      <trkpt lat="46.208972" lon="13.901750">
        <ele>880.5672</ele>
        <time>2011-05-29T12:35:07Z</time>
      </trkpt>
      <trkpt lat="46.209087" lon="13.901788">
        <ele>884.5296</ele>
        <time>2011-05-29T12:35:15Z</time>
      </trkpt>
      <trkpt lat="46.209185" lon="13.901822">
        <ele>883.92</ele>
        <time>2011-05-29T12:35:20Z</time>
      </trkpt>
      <trkpt lat="46.209308" lon="13.901928">
        <ele>879.348</ele>
        <time>2011-05-29T12:35:30Z</time>
      </trkpt>
      <trkpt lat="46.209395" lon="13.902019">
        <ele>874.4712</ele>
        <time>2011-05-29T12:35:38Z</time>
      </trkpt>
      <trkpt lat="46.209488" lon="13.902082">
        <ele>878.4336</ele>
        <time>2011-05-29T12:35:45Z</time>
      </trkpt>
      <trkpt lat="46.209555" lon="13.902037">
        <ele>872.6424</ele>
        <time>2011-05-29T12:36:01Z</time>
      </trkpt>
      <trkpt lat="46.209546" lon="13.901907">
        <ele>869.2896</ele>
        <time>2011-05-29T12:36:16Z</time>
      </trkpt>
      <trkpt lat="46.209622" lon="13.901831">
        <ele>874.4712</ele>
        <time>2011-05-29T12:36:33Z</time>
      </trkpt>
      <trkpt lat="46.209694" lon="13.901731">
        <ele>874.4712</ele>
        <time>2011-05-29T12:36:45Z</time>
      </trkpt>
      <trkpt lat="46.209867" lon="13.901616">
        <ele>872.6424</ele>
        <time>2011-05-29T12:36:59Z</time>
      </trkpt>
      <trkpt lat="46.209962" lon="13.901550">
        <ele>869.2896</ele>
        <time>2011-05-29T12:37:23Z</time>
      </trkpt>
      <trkpt lat="46.210057" lon="13.901525">
        <ele>865.9368</ele>
        <time>2011-05-29T12:37:34Z</time>
      </trkpt>
      <trkpt lat="46.210159" lon="13.901516">
        <ele>870.204</ele>
        <time>2011-05-29T12:37:38Z</time>
      </trkpt>
      <trkpt lat="46.210266" lon="13.901503">
        <ele>872.9472</ele>
        <time>2011-05-29T12:37:41Z</time>
      </trkpt>
      <trkpt lat="46.210359" lon="13.901489">
        <ele>873.5568</ele>
        <time>2011-05-29T12:37:42Z</time>
      </trkpt>
      <trkpt lat="46.210463" lon="13.901475">
        <ele>873.8616</ele>
        <time>2011-05-29T12:37:46Z</time>
      </trkpt>
      <trkpt lat="46.210548" lon="13.901395">
        <ele>867.156</ele>
        <time>2011-05-29T12:38:12Z</time>
      </trkpt>
      <trkpt lat="46.210672" lon="13.901376">
        <ele>865.9368</ele>
        <time>2011-05-29T12:38:31Z</time>
      </trkpt>
      <trkpt lat="46.210777" lon="13.901382">
        <ele>869.5944</ele>
        <time>2011-05-29T12:38:33Z</time>
      </trkpt>
      <trkpt lat="46.210956" lon="13.901867">
        <ele>865.9368</ele>
        <time>2011-05-29T12:38:42Z</time>
      </trkpt>
      <trkpt lat="46.210942" lon="13.902048">
        <ele>867.7656</ele>
        <time>2011-05-29T12:38:51Z</time>
      </trkpt>
      <trkpt lat="46.210935" lon="13.902188">
        <ele>863.8032</ele>
        <time>2011-05-29T12:38:54Z</time>
      </trkpt>
      <trkpt lat="46.210916" lon="13.902414">
        <ele>868.0704</ele>
        <time>2011-05-29T12:39:00Z</time>
      </trkpt>
      <trkpt lat="46.210933" lon="13.902576">
        <ele>861.3648</ele>
        <time>2011-05-29T12:39:07Z</time>
      </trkpt>
      <trkpt lat="46.211021" lon="13.902558">
        <ele>867.7656</ele>
        <time>2011-05-29T12:39:34Z</time>
      </trkpt>
      <trkpt lat="46.211173" lon="13.902507">
        <ele>859.536</ele>
        <time>2011-05-29T12:39:44Z</time>
      </trkpt>
      <trkpt lat="46.211473" lon="13.902297">
        <ele>865.9368</ele>
        <time>2011-05-29T12:40:03Z</time>
      </trkpt>
      <trkpt lat="46.211554" lon="13.902236">
        <ele>862.8888</ele>
        <time>2011-05-29T12:40:08Z</time>
      </trkpt>
      <trkpt lat="46.211552" lon="13.902056">
        <ele>870.204</ele>
        <time>2011-05-29T12:40:24Z</time>
      </trkpt>
      <trkpt lat="46.211777" lon="13.901820">
        <ele>867.7656</ele>
        <time>2011-05-29T12:40:43Z</time>
      </trkpt>
      <trkpt lat="46.211842" lon="13.901705">
        <ele>868.0704</ele>
        <time>2011-05-29T12:40:47Z</time>
      </trkpt>
      <trkpt lat="46.211915" lon="13.901592">
        <ele>868.68</ele>
        <time>2011-05-29T12:40:55Z</time>
      </trkpt>
      <trkpt lat="46.211955" lon="13.901459">
        <ele>869.2896</ele>
        <time>2011-05-29T12:41:05Z</time>
      </trkpt>
      <trkpt lat="46.212143" lon="13.901292">
        <ele>870.5088</ele>
        <time>2011-05-29T12:41:20Z</time>
      </trkpt>
      <trkpt lat="46.212248" lon="13.901247">
        <ele>865.3272</ele>
        <time>2011-05-29T12:41:28Z</time>
      </trkpt>
      <trkpt lat="46.212315" lon="13.901134">
        <ele>867.156</ele>
        <time>2011-05-29T12:41:41Z</time>
      </trkpt>
      <trkpt lat="46.212464" lon="13.901176">
        <ele>873.5568</ele>
        <time>2011-05-29T12:42:04Z</time>
      </trkpt>
      <trkpt lat="46.212613" lon="13.901127">
        <ele>872.9472</ele>
        <time>2011-05-29T12:42:16Z</time>
      </trkpt>
      <trkpt lat="46.212725" lon="13.901138">
        <ele>869.5944</ele>
        <time>2011-05-29T12:42:20Z</time>
      </trkpt>
      <trkpt lat="46.212806" lon="13.901146">
        <ele>871.1184</ele>
        <time>2011-05-29T12:42:59Z</time>
      </trkpt>
      <trkpt lat="46.212933" lon="13.901140">
        <ele>869.5944</ele>
        <time>2011-05-29T12:43:10Z</time>
      </trkpt>
      <trkpt lat="46.213029" lon="13.901171">
        <ele>873.5568</ele>
        <time>2011-05-29T12:43:21Z</time>
      </trkpt>
      <trkpt lat="46.213135" lon="13.901339">
        <ele>869.2896</ele>
        <time>2011-05-29T12:43:35Z</time>
      </trkpt>
      <trkpt lat="46.213319" lon="13.901423">
        <ele>869.5944</ele>
        <time>2011-05-29T12:43:52Z</time>
      </trkpt>
      <trkpt lat="46.213374" lon="13.901521">
        <ele>870.5088</ele>
        <time>2011-05-29T12:46:14Z</time>
      </trkpt>
      <trkpt lat="46.213538" lon="13.901585">
        <ele>872.0328</ele>
        <time>2011-05-29T12:47:43Z</time>
      </trkpt>
      <trkpt lat="46.213602" lon="13.901417">
        <ele>872.9472</ele>
        <time>2011-05-29T12:47:55Z</time>
      </trkpt>
      <trkpt lat="46.213726" lon="13.901370">
        <ele>872.0328</ele>
        <time>2011-05-29T12:48:07Z</time>
      </trkpt>
      <trkpt lat="46.213814" lon="13.901323">
        <ele>873.5568</ele>
        <time>2011-05-29T12:51:38Z</time>
      </trkpt>
      <trkpt lat="46.213851" lon="13.901152">
        <ele>874.4712</ele>
        <time>2011-05-29T12:51:46Z</time>
      </trkpt>
      <trkpt lat="46.213858" lon="13.901007">
        <ele>873.8616</ele>
        <time>2011-05-29T12:51:53Z</time>
      </trkpt>
      <trkpt lat="46.213872" lon="13.900778">
        <ele>872.0328</ele>
        <time>2011-05-29T12:52:03Z</time>
      </trkpt>
      <trkpt lat="46.213922" lon="13.900695">
        <ele>872.6424</ele>
        <time>2011-05-29T12:52:21Z</time>
      </trkpt>
      <trkpt lat="46.214013" lon="13.900716">
        <ele>872.0328</ele>
        <time>2011-05-29T12:52:26Z</time>
      </trkpt>
      <trkpt lat="46.214278" lon="13.900766">
        <ele>875.3856</ele>
        <time>2011-05-29T12:52:47Z</time>
      </trkpt>
      <trkpt lat="46.214377" lon="13.900833">
        <ele>872.6424</ele>
        <time>2011-05-29T12:53:11Z</time>
      </trkpt>
      <trkpt lat="46.214468" lon="13.900800">
        <ele>872.9472</ele>
        <time>2011-05-29T12:53:29Z</time>
      </trkpt>
      <trkpt lat="46.214552" lon="13.900726">
        <ele>872.6424</ele>
        <time>2011-05-29T12:53:42Z</time>
      </trkpt>
      <trkpt lat="46.214644" lon="13.900666">
        <ele>874.4712</ele>
        <time>2011-05-29T12:53:56Z</time>
      </trkpt>
      <trkpt lat="46.214736" lon="13.900639">
        <ele>875.0808</ele>
        <time>2011-05-29T12:56:05Z</time>
      </trkpt>
      <trkpt lat="46.214849" lon="13.900681">
        <ele>872.6424</ele>
        <time>2011-05-29T12:58:48Z</time>
      </trkpt>
      <trkpt lat="46.214896" lon="13.900837">
        <ele>870.204</ele>
        <time>2011-05-29T12:59:06Z</time>
      </trkpt>
      <trkpt lat="46.214960" lon="13.900969">
        <ele>871.1184</ele>
        <time>2011-05-29T12:59:14Z</time>
      </trkpt>
      <trkpt lat="46.215053" lon="13.901114">
        <ele>872.6424</ele>
        <time>2011-05-29T12:59:22Z</time>
      </trkpt>
      <trkpt lat="46.215143" lon="13.901204">
        <ele>871.4232</ele>
        <time>2011-05-29T12:59:30Z</time>
      </trkpt>
      <trkpt lat="46.215297" lon="13.901299">
        <ele>873.5568</ele>
        <time>2011-05-29T12:59:44Z</time>
      </trkpt>
      <trkpt lat="46.215418" lon="13.901436">
        <ele>873.5568</ele>
        <time>2011-05-29T12:59:53Z</time>
      </trkpt>
      <trkpt lat="46.215485" lon="13.901526">
        <ele>874.4712</ele>
        <time>2011-05-29T13:00:01Z</time>
      </trkpt>
      <trkpt lat="46.215580" lon="13.901642">
        <ele>870.5088</ele>
        <time>2011-05-29T13:00:07Z</time>
      </trkpt>
      <trkpt lat="46.215647" lon="13.901728">
        <ele>871.4232</ele>
        <time>2011-05-29T13:00:14Z</time>
      </trkpt>
      <trkpt lat="46.215721" lon="13.901876">
        <ele>874.4712</ele>
        <time>2011-05-29T13:00:45Z</time>
      </trkpt>
      <trkpt lat="46.215648" lon="13.902152">
        <ele>877.2144</ele>
        <time>2011-05-29T13:00:57Z</time>
      </trkpt>
      <trkpt lat="46.215547" lon="13.902167">
        <ele>872.9472</ele>
        <time>2011-05-29T13:01:09Z</time>
      </trkpt>
      <trkpt lat="46.215399" lon="13.902202">
        <ele>876.9096</ele>
        <time>2011-05-29T13:04:35Z</time>
      </trkpt>
      <trkpt lat="46.215211" lon="13.902321">
        <ele>873.5568</ele>
        <time>2011-05-29T13:04:49Z</time>
      </trkpt>
      <trkpt lat="46.215110" lon="13.902474">
        <ele>872.0328</ele>
        <time>2011-05-29T13:05:01Z</time>
      </trkpt>
      <trkpt lat="46.215027" lon="13.902605">
        <ele>872.6424</ele>
        <time>2011-05-29T13:05:09Z</time>
      </trkpt>
      <trkpt lat="46.214935" lon="13.902752">
        <ele>874.4712</ele>
        <time>2011-05-29T13:05:19Z</time>
      </trkpt>
      <trkpt lat="46.214905" lon="13.902945">
        <ele>872.6424</ele>
        <time>2011-05-29T13:05:28Z</time>
      </trkpt>
      <trkpt lat="46.214850" lon="13.903202">
        <ele>875.9952</ele>
        <time>2011-05-29T13:05:42Z</time>
      </trkpt>
      <trkpt lat="46.214811" lon="13.903356">
        <ele>876.3</ele>
        <time>2011-05-29T13:05:50Z</time>
      </trkpt>
      <trkpt lat="46.214760" lon="13.903473">
        <ele>875.9952</ele>
        <time>2011-05-29T13:05:56Z</time>
      </trkpt>
      <trkpt lat="46.214705" lon="13.903578">
        <ele>874.4712</ele>
        <time>2011-05-29T13:06:03Z</time>
      </trkpt>
      <trkpt lat="46.214617" lon="13.903702">
        <ele>876.3</ele>
        <time>2011-05-29T13:06:34Z</time>
      </trkpt>
      <trkpt lat="46.214407" lon="13.903975">
        <ele>876.3</ele>
        <time>2011-05-29T13:06:41Z</time>
      </trkpt>
      <trkpt lat="46.214283" lon="13.904119">
        <ele>874.4712</ele>
        <time>2011-05-29T13:06:49Z</time>
      </trkpt>
      <trkpt lat="46.214177" lon="13.904165">
        <ele>876.9096</ele>
        <time>2011-05-29T13:06:56Z</time>
      </trkpt>
      <trkpt lat="46.214080" lon="13.904163">
        <ele>876.3</ele>
        <time>2011-05-29T13:07:01Z</time>
      </trkpt>
      <trkpt lat="46.213980" lon="13.904213">
        <ele>876.3</ele>
        <time>2011-05-29T13:07:09Z</time>
      </trkpt>
      <trkpt lat="46.213869" lon="13.904231">
        <ele>872.6424</ele>
        <time>2011-05-29T13:07:20Z</time>
      </trkpt>
      <trkpt lat="46.213724" lon="13.904215">
        <ele>868.68</ele>
        <time>2011-05-29T13:07:31Z</time>
      </trkpt>
      <trkpt lat="46.213662" lon="13.904308">
        <ele>865.3272</ele>
        <time>2011-05-29T13:07:40Z</time>
      </trkpt>
      <trkpt lat="46.213637" lon="13.904281">
        <ele>870.204</ele>
        <time>2011-05-29T13:08:18Z</time>
      </trkpt>
      <trkpt lat="46.213711" lon="13.904214">
        <ele>867.156</ele>
        <time>2011-05-29T13:08:28Z</time>
      </trkpt>
      <trkpt lat="46.213802" lon="13.904192">
        <ele>871.4232</ele>
        <time>2011-05-29T13:08:44Z</time>
      </trkpt>
      <trkpt lat="46.213888" lon="13.904242">
        <ele>874.4712</ele>
        <time>2011-05-29T13:08:52Z</time>
      </trkpt>
      <trkpt lat="46.213990" lon="13.904425">
        <ele>876.9096</ele>
        <time>2011-05-29T13:09:00Z</time>
      </trkpt>
      <trkpt lat="46.214034" lon="13.904566">
        <ele>872.9472</ele>
        <time>2011-05-29T13:09:09Z</time>
      </trkpt>
      <trkpt lat="46.214028" lon="13.904741">
        <ele>879.348</ele>
        <time>2011-05-29T13:09:20Z</time>
      </trkpt>
      <trkpt lat="46.214088" lon="13.904893">
        <ele>873.8616</ele>
        <time>2011-05-29T13:09:31Z</time>
      </trkpt>
      <trkpt lat="46.214152" lon="13.904989">
        <ele>874.4712</ele>
        <time>2011-05-29T13:09:36Z</time>
      </trkpt>
      <trkpt lat="46.214248" lon="13.905148">
        <ele>873.8616</ele>
        <time>2011-05-29T13:09:46Z</time>
      </trkpt>
      <trkpt lat="46.214291" lon="13.905264">
        <ele>877.824</ele>
        <time>2011-05-29T13:09:53Z</time>
      </trkpt>
      <trkpt lat="46.214359" lon="13.905438">
        <ele>874.4712</ele>
        <time>2011-05-29T13:10:02Z</time>
      </trkpt>
      <trkpt lat="46.214359" lon="13.905573">
        <ele>875.9952</ele>
        <time>2011-05-29T13:10:10Z</time>
      </trkpt>
      <trkpt lat="46.214379" lon="13.905855">
        <ele>878.4336</ele>
        <time>2011-05-29T13:10:25Z</time>
      </trkpt>
      <trkpt lat="46.214406" lon="13.906092">
        <ele>874.4712</ele>
        <time>2011-05-29T13:10:37Z</time>
      </trkpt>
      <trkpt lat="46.214406" lon="13.906232">
        <ele>875.0808</ele>
        <time>2011-05-29T13:10:44Z</time>
      </trkpt>
      <trkpt lat="46.214297" lon="13.906506">
        <ele>875.9952</ele>
        <time>2011-05-29T13:11:04Z</time>
      </trkpt>
      <trkpt lat="46.214230" lon="13.906595">
        <ele>873.5568</ele>
        <time>2011-05-29T13:11:11Z</time>
      </trkpt>
      <trkpt lat="46.214110" lon="13.906604">
        <ele>875.0808</ele>
        <time>2011-05-29T13:11:20Z</time>
      </trkpt>
      <trkpt lat="46.214011" lon="13.906620">
        <ele>874.4712</ele>
        <time>2011-05-29T13:11:29Z</time>
      </trkpt>
      <trkpt lat="46.213929" lon="13.906689">
        <ele>877.2144</ele>
        <time>2011-05-29T13:11:38Z</time>
      </trkpt>
      <trkpt lat="46.213889" lon="13.906855">
        <ele>874.4712</ele>
        <time>2011-05-29T13:11:50Z</time>
      </trkpt>
      <trkpt lat="46.213875" lon="13.907049">
        <ele>874.4712</ele>
        <time>2011-05-29T13:11:57Z</time>
      </trkpt>
      <trkpt lat="46.213827" lon="13.907204">
        <ele>875.0808</ele>
        <time>2011-05-29T13:12:04Z</time>
      </trkpt>
      <trkpt lat="46.213777" lon="13.907328">
        <ele>876.3</ele>
        <time>2011-05-29T13:12:14Z</time>
      </trkpt>
      <trkpt lat="46.213745" lon="13.907450">
        <ele>878.7384</ele>
        <time>2011-05-29T13:12:25Z</time>
      </trkpt>
      <trkpt lat="46.213679" lon="13.907654">
        <ele>879.348</ele>
        <time>2011-05-29T13:12:44Z</time>
      </trkpt>
      <trkpt lat="46.213572" lon="13.907789">
        <ele>875.9952</ele>
        <time>2011-05-29T13:12:54Z</time>
      </trkpt>
      <trkpt lat="46.213494" lon="13.907892">
        <ele>882.7008</ele>
        <time>2011-05-29T13:13:04Z</time>
      </trkpt>
      <trkpt lat="46.213407" lon="13.907995">
        <ele>880.2624</ele>
        <time>2011-05-29T13:13:18Z</time>
      </trkpt>
      <trkpt lat="46.213324" lon="13.908044">
        <ele>887.5776</ele>
        <time>2011-05-29T13:13:26Z</time>
      </trkpt>
      <trkpt lat="46.213257" lon="13.908139">
        <ele>885.444</ele>
        <time>2011-05-29T13:13:37Z</time>
      </trkpt>
      <trkpt lat="46.213301" lon="13.908181">
        <ele>888.492</ele>
        <time>2011-05-29T13:21:13Z</time>
      </trkpt>
      <trkpt lat="46.213345" lon="13.908017">
        <ele>883.6152</ele>
        <time>2011-05-29T13:22:23Z</time>
      </trkpt>
      <trkpt lat="46.213386" lon="13.907907">
        <ele>880.2624</ele>
        <time>2011-05-29T13:22:35Z</time>
      </trkpt>
      <trkpt lat="46.213467" lon="13.907823">
        <ele>880.5672</ele>
        <time>2011-05-29T13:22:45Z</time>
      </trkpt>
      <trkpt lat="46.213701" lon="13.907565">
        <ele>882.7008</ele>
        <time>2011-05-29T13:23:02Z</time>
      </trkpt>
      <trkpt lat="46.213917" lon="13.907613">
        <ele>883.6152</ele>
        <time>2011-05-29T13:23:17Z</time>
      </trkpt>
      <trkpt lat="46.214038" lon="13.907601">
        <ele>884.5296</ele>
        <time>2011-05-29T13:23:31Z</time>
      </trkpt>
      <trkpt lat="46.214129" lon="13.907633">
        <ele>883.92</ele>
        <time>2011-05-29T13:23:36Z</time>
      </trkpt>
      <trkpt lat="46.214209" lon="13.907705">
        <ele>881.1768</ele>
        <time>2011-05-29T13:23:43Z</time>
      </trkpt>
      <trkpt lat="46.214334" lon="13.907807">
        <ele>882.7008</ele>
        <time>2011-05-29T13:23:56Z</time>
      </trkpt>
      <trkpt lat="46.214427" lon="13.907899">
        <ele>882.0912</ele>
        <time>2011-05-29T13:24:03Z</time>
      </trkpt>
      <trkpt lat="46.214476" lon="13.908006">
        <ele>885.1392</ele>
        <time>2011-05-29T13:24:11Z</time>
      </trkpt>
      <trkpt lat="46.214537" lon="13.908112">
        <ele>885.444</ele>
        <time>2011-05-29T13:24:22Z</time>
      </trkpt>
      <trkpt lat="46.214545" lon="13.908255">
        <ele>882.7008</ele>
        <time>2011-05-29T13:24:29Z</time>
      </trkpt>
      <trkpt lat="46.214402" lon="13.908431">
        <ele>886.3584</ele>
        <time>2011-05-29T13:24:42Z</time>
      </trkpt>
      <trkpt lat="46.214323" lon="13.908504">
        <ele>889.7112</ele>
        <time>2011-05-29T13:24:49Z</time>
      </trkpt>
      <trkpt lat="46.214259" lon="13.908665">
        <ele>886.968</ele>
        <time>2011-05-29T13:24:59Z</time>
      </trkpt>
      <trkpt lat="46.214178" lon="13.908808">
        <ele>893.6736</ele>
        <time>2011-05-29T13:25:08Z</time>
      </trkpt>
      <trkpt lat="46.214119" lon="13.908934">
        <ele>895.1976</ele>
        <time>2011-05-29T13:25:17Z</time>
      </trkpt>
      <trkpt lat="46.214048" lon="13.909033">
        <ele>895.1976</ele>
        <time>2011-05-29T13:25:27Z</time>
      </trkpt>
      <trkpt lat="46.213955" lon="13.909059">
        <ele>894.588</ele>
        <time>2011-05-29T13:25:35Z</time>
      </trkpt>
      <trkpt lat="46.213867" lon="13.909113">
        <ele>897.0264</ele>
        <time>2011-05-29T13:25:43Z</time>
      </trkpt>
      <trkpt lat="46.213864" lon="13.909247">
        <ele>893.6736</ele>
        <time>2011-05-29T13:25:51Z</time>
      </trkpt>
      <trkpt lat="46.213910" lon="13.909373">
        <ele>897.636</ele>
        <time>2011-05-29T13:26:01Z</time>
      </trkpt>
      <trkpt lat="46.214056" lon="13.909500">
        <ele>896.112</ele>
        <time>2011-05-29T13:26:20Z</time>
      </trkpt>
      <trkpt lat="46.214165" lon="13.909739">
        <ele>895.5024</ele>
        <time>2011-05-29T13:26:44Z</time>
      </trkpt>
      <trkpt lat="46.214150" lon="13.909939">
        <ele>898.5504</ele>
        <time>2011-05-29T13:26:59Z</time>
      </trkpt>
      <trkpt lat="46.214175" lon="13.910068">
        <ele>896.112</ele>
        <time>2011-05-29T13:27:04Z</time>
      </trkpt>
      <trkpt lat="46.214167" lon="13.910237">
        <ele>895.5024</ele>
        <time>2011-05-29T13:27:18Z</time>
      </trkpt>
      <trkpt lat="46.214199" lon="13.910395">
        <ele>897.636</ele>
        <time>2011-05-29T13:27:27Z</time>
      </trkpt>
      <trkpt lat="46.214170" lon="13.910548">
        <ele>897.636</ele>
        <time>2011-05-29T13:27:32Z</time>
      </trkpt>
      <trkpt lat="46.214147" lon="13.910703">
        <ele>898.5504</ele>
        <time>2011-05-29T13:27:39Z</time>
      </trkpt>
      <trkpt lat="46.214159" lon="13.910833">
        <ele>894.588</ele>
        <time>2011-05-29T13:27:45Z</time>
      </trkpt>
      <trkpt lat="46.214145" lon="13.910990">
        <ele>898.5504</ele>
        <time>2011-05-29T13:27:53Z</time>
      </trkpt>
      <trkpt lat="46.214133" lon="13.911154">
        <ele>896.112</ele>
        <time>2011-05-29T13:28:03Z</time>
      </trkpt>
      <trkpt lat="46.214086" lon="13.911278">
        <ele>895.5024</ele>
        <time>2011-05-29T13:28:14Z</time>
      </trkpt>
      <trkpt lat="46.214044" lon="13.911417">
        <ele>900.3792</ele>
        <time>2011-05-29T13:28:24Z</time>
      </trkpt>
      <trkpt lat="46.213945" lon="13.911483">
        <ele>897.0264</ele>
        <time>2011-05-29T13:28:32Z</time>
      </trkpt>
      <trkpt lat="46.213851" lon="13.911490">
        <ele>902.208</ele>
        <time>2011-05-29T13:28:39Z</time>
      </trkpt>
      <trkpt lat="46.213768" lon="13.911538">
        <ele>900.0744</ele>
        <time>2011-05-29T13:32:44Z</time>
      </trkpt>
      <trkpt lat="46.213668" lon="13.911635">
        <ele>900.3792</ele>
        <time>2011-05-29T13:32:55Z</time>
      </trkpt>
      <trkpt lat="46.213610" lon="13.911728">
        <ele>905.256</ele>
        <time>2011-05-29T13:33:17Z</time>
      </trkpt>
      <trkpt lat="46.213462" lon="13.911783">
        <ele>901.9032</ele>
        <time>2011-05-29T13:33:44Z</time>
      </trkpt>
      <trkpt lat="46.213385" lon="13.911849">
        <ele>903.4272</ele>
        <time>2011-05-29T13:33:54Z</time>
      </trkpt>
      <trkpt lat="46.213394" lon="13.911987">
        <ele>907.9992</ele>
        <time>2011-05-29T13:34:04Z</time>
      </trkpt>
      <trkpt lat="46.213434" lon="13.912104">
        <ele>905.256</ele>
        <time>2011-05-29T13:34:12Z</time>
      </trkpt>
      <trkpt lat="46.213519" lon="13.912170">
        <ele>911.9616</ele>
        <time>2011-05-29T13:34:21Z</time>
      </trkpt>
      <trkpt lat="46.213668" lon="13.912030">
        <ele>908.6088</ele>
        <time>2011-05-29T13:34:39Z</time>
      </trkpt>
      <trkpt lat="46.213772" lon="13.912051">
        <ele>913.4856</ele>
        <time>2011-05-29T13:34:47Z</time>
      </trkpt>
      <trkpt lat="46.213850" lon="13.912116">
        <ele>913.7904</ele>
        <time>2011-05-29T13:34:54Z</time>
      </trkpt>
      <trkpt lat="46.213953" lon="13.912294">
        <ele>913.4856</ele>
        <time>2011-05-29T13:35:06Z</time>
      </trkpt>
      <trkpt lat="46.214022" lon="13.912381">
        <ele>910.1328</ele>
        <time>2011-05-29T13:35:14Z</time>
      </trkpt>
      <trkpt lat="46.214096" lon="13.912477">
        <ele>914.7048</ele>
        <time>2011-05-29T13:35:25Z</time>
      </trkpt>
      <trkpt lat="46.214139" lon="13.912604">
        <ele>914.4</ele>
        <time>2011-05-29T13:35:30Z</time>
      </trkpt>
      <trkpt lat="46.214245" lon="13.912769">
        <ele>914.7048</ele>
        <time>2011-05-29T13:35:40Z</time>
      </trkpt>
      <trkpt lat="46.214356" lon="13.913019">
        <ele>915.924</ele>
        <time>2011-05-29T13:36:00Z</time>
      </trkpt>
      <trkpt lat="46.214393" lon="13.913133">
        <ele>914.4</ele>
        <time>2011-05-29T13:36:35Z</time>
      </trkpt>
      <trkpt lat="46.214364" lon="13.913284">
        <ele>913.7904</ele>
        <time>2011-05-29T13:36:43Z</time>
      </trkpt>
      <trkpt lat="46.214272" lon="13.913410">
        <ele>912.5712</ele>
        <time>2011-05-29T13:36:57Z</time>
      </trkpt>
      <trkpt lat="46.214170" lon="13.913531">
        <ele>911.9616</ele>
        <time>2011-05-29T13:37:06Z</time>
      </trkpt>
      <trkpt lat="46.213979" lon="13.913603">
        <ele>912.5712</ele>
        <time>2011-05-29T13:37:21Z</time>
      </trkpt>
      <trkpt lat="46.213835" lon="13.913575">
        <ele>909.5232</ele>
        <time>2011-05-29T13:37:33Z</time>
      </trkpt>
      <trkpt lat="46.213673" lon="13.913626">
        <ele>913.7904</ele>
        <time>2011-05-29T13:37:44Z</time>
      </trkpt>
      <trkpt lat="46.213579" lon="13.913691">
        <ele>911.0472</ele>
        <time>2011-05-29T13:37:53Z</time>
      </trkpt>
      <trkpt lat="46.213490" lon="13.913794">
        <ele>910.4376</ele>
        <time>2011-05-29T13:38:02Z</time>
      </trkpt>
      <trkpt lat="46.213451" lon="13.913920">
        <ele>912.876</ele>
        <time>2011-05-29T13:38:08Z</time>
      </trkpt>
      <trkpt lat="46.213434" lon="13.914061">
        <ele>911.9616</ele>
        <time>2011-05-29T13:38:15Z</time>
      </trkpt>
      <trkpt lat="46.213414" lon="13.914253">
        <ele>916.2288</ele>
        <time>2011-05-29T13:38:26Z</time>
      </trkpt>
      <trkpt lat="46.213368" lon="13.914422">
        <ele>913.4856</ele>
        <time>2011-05-29T13:38:37Z</time>
      </trkpt>
      <trkpt lat="46.213357" lon="13.914565">
        <ele>913.7904</ele>
        <time>2011-05-29T13:38:45Z</time>
      </trkpt>
      <trkpt lat="46.213337" lon="13.914694">
        <ele>913.7904</ele>
        <time>2011-05-29T13:38:50Z</time>
      </trkpt>
      <trkpt lat="46.213287" lon="13.914837">
        <ele>914.4</ele>
        <time>2011-05-29T13:38:58Z</time>
      </trkpt>
      <trkpt lat="46.213266" lon="13.915001">
        <ele>913.7904</ele>
        <time>2011-05-29T13:39:08Z</time>
      </trkpt>
      <trkpt lat="46.213204" lon="13.915115">
        <ele>917.1432</ele>
        <time>2011-05-29T13:39:14Z</time>
      </trkpt>
      <trkpt lat="46.213191" lon="13.915299">
        <ele>915.924</ele>
        <time>2011-05-29T13:39:25Z</time>
      </trkpt>
      <trkpt lat="46.213175" lon="13.915430">
        <ele>920.1912</ele>
        <time>2011-05-29T13:39:33Z</time>
      </trkpt>
      <trkpt lat="46.213182" lon="13.915598">
        <ele>922.9344</ele>
        <time>2011-05-29T13:39:44Z</time>
      </trkpt>
      <trkpt lat="46.213208" lon="13.915760">
        <ele>921.1056</ele>
        <time>2011-05-29T13:39:58Z</time>
      </trkpt>
      <trkpt lat="46.213241" lon="13.915919">
        <ele>925.3728</ele>
        <time>2011-05-29T13:40:07Z</time>
      </trkpt>
      <trkpt lat="46.213247" lon="13.916053">
        <ele>924.4584</ele>
        <time>2011-05-29T13:40:15Z</time>
      </trkpt>
      <trkpt lat="46.213362" lon="13.916084">
        <ele>923.544</ele>
        <time>2011-05-29T13:43:04Z</time>
      </trkpt>
      <trkpt lat="46.213568" lon="13.916185">
        <ele>925.3728</ele>
        <time>2011-05-29T13:43:26Z</time>
      </trkpt>
      <trkpt lat="46.213694" lon="13.916265">
        <ele>920.496</ele>
        <time>2011-05-29T13:43:35Z</time>
      </trkpt>
      <trkpt lat="46.213782" lon="13.916348">
        <ele>919.2768</ele>
        <time>2011-05-29T13:43:42Z</time>
      </trkpt>
      <trkpt lat="46.213901" lon="13.916441">
        <ele>920.496</ele>
        <time>2011-05-29T13:43:51Z</time>
      </trkpt>
      <trkpt lat="46.214012" lon="13.916509">
        <ele>919.5816</ele>
        <time>2011-05-29T13:43:59Z</time>
      </trkpt>
      <trkpt lat="46.214087" lon="13.916611">
        <ele>922.02</ele>
        <time>2011-05-29T13:44:07Z</time>
      </trkpt>
      <trkpt lat="46.214150" lon="13.916707">
        <ele>924.4584</ele>
        <time>2011-05-29T13:44:15Z</time>
      </trkpt>
      <trkpt lat="46.214232" lon="13.916772">
        <ele>918.0576</ele>
        <time>2011-05-29T13:44:22Z</time>
      </trkpt>
      <trkpt lat="46.214372" lon="13.916888">
        <ele>920.496</ele>
        <time>2011-05-29T13:44:33Z</time>
      </trkpt>
      <trkpt lat="46.214462" lon="13.916955">
        <ele>918.0576</ele>
        <time>2011-05-29T13:44:38Z</time>
      </trkpt>
      <trkpt lat="46.214555" lon="13.917048">
        <ele>916.8384</ele>
        <time>2011-05-29T13:44:47Z</time>
      </trkpt>
      <trkpt lat="46.214635" lon="13.917159">
        <ele>923.8488</ele>
        <time>2011-05-29T13:44:52Z</time>
      </trkpt>
      <trkpt lat="46.214746" lon="13.917348">
        <ele>919.5816</ele>
        <time>2011-05-29T13:45:12Z</time>
      </trkpt>
      <trkpt lat="46.214847" lon="13.917421">
        <ele>917.7528</ele>
        <time>2011-05-29T13:45:35Z</time>
      </trkpt>
      <trkpt lat="46.214934" lon="13.917480">
        <ele>922.6296</ele>
        <time>2011-05-29T13:45:43Z</time>
      </trkpt>
      <trkpt lat="46.215055" lon="13.917530">
        <ele>920.1912</ele>
        <time>2011-05-29T13:45:50Z</time>
      </trkpt>
      <trkpt lat="46.215202" lon="13.917662">
        <ele>919.5816</ele>
        <time>2011-05-29T13:45:58Z</time>
      </trkpt>
      <trkpt lat="46.215325" lon="13.917754">
        <ele>918.0576</ele>
        <time>2011-05-29T13:46:06Z</time>
      </trkpt>
      <trkpt lat="46.215454" lon="13.917854">
        <ele>916.8384</ele>
        <time>2011-05-29T13:46:17Z</time>
      </trkpt>
      <trkpt lat="46.215542" lon="13.917887">
        <ele>922.9344</ele>
        <time>2011-05-29T13:46:24Z</time>
      </trkpt>
      <trkpt lat="46.215631" lon="13.917922">
        <ele>923.544</ele>
        <time>2011-05-29T13:46:30Z</time>
      </trkpt>
      <trkpt lat="46.215696" lon="13.918017">
        <ele>921.4104</ele>
        <time>2011-05-29T13:46:39Z</time>
      </trkpt>
      <trkpt lat="46.215745" lon="13.918126">
        <ele>923.8488</ele>
        <time>2011-05-29T13:46:45Z</time>
      </trkpt>
      <trkpt lat="46.215814" lon="13.918210">
        <ele>921.1056</ele>
        <time>2011-05-29T13:46:52Z</time>
      </trkpt>
      <trkpt lat="46.215893" lon="13.918301">
        <ele>918.0576</ele>
        <time>2011-05-29T13:47:00Z</time>
      </trkpt>
      <trkpt lat="46.215974" lon="13.918359">
        <ele>924.4584</ele>
        <time>2011-05-29T13:47:07Z</time>
      </trkpt>
      <trkpt lat="46.216029" lon="13.918464">
        <ele>920.1912</ele>
        <time>2011-05-29T13:47:15Z</time>
      </trkpt>
      <trkpt lat="46.216065" lon="13.918608">
        <ele>919.5816</ele>
        <time>2011-05-29T13:47:22Z</time>
      </trkpt>
      <trkpt lat="46.216104" lon="13.918729">
        <ele>919.5816</ele>
        <time>2011-05-29T13:47:29Z</time>
      </trkpt>
      <trkpt lat="46.216161" lon="13.918926">
        <ele>920.496</ele>
        <time>2011-05-29T13:47:38Z</time>
      </trkpt>
      <trkpt lat="46.216230" lon="13.919040">
        <ele>921.4104</ele>
        <time>2011-05-29T13:47:46Z</time>
      </trkpt>
      <trkpt lat="46.216297" lon="13.919135">
        <ele>924.4584</ele>
        <time>2011-05-29T13:47:53Z</time>
      </trkpt>
      <trkpt lat="46.216348" lon="13.919260">
        <ele>921.4104</ele>
        <time>2011-05-29T13:48:00Z</time>
      </trkpt>
      <trkpt lat="46.216412" lon="13.919408">
        <ele>919.5816</ele>
        <time>2011-05-29T13:48:08Z</time>
      </trkpt>
      <trkpt lat="46.216513" lon="13.919569">
        <ele>918.6672</ele>
        <time>2011-05-29T13:48:20Z</time>
      </trkpt>
      <trkpt lat="46.216611" lon="13.919760">
        <ele>919.2768</ele>
        <time>2011-05-29T13:48:31Z</time>
      </trkpt>
      <trkpt lat="46.216674" lon="13.919852">
        <ele>921.4104</ele>
        <time>2011-05-29T13:48:37Z</time>
      </trkpt>
      <trkpt lat="46.216754" lon="13.919958">
        <ele>925.3728</ele>
        <time>2011-05-29T13:48:48Z</time>
      </trkpt>
      <trkpt lat="46.216850" lon="13.920020">
        <ele>925.3728</ele>
        <time>2011-05-29T13:48:59Z</time>
      </trkpt>
      <trkpt lat="46.217001" lon="13.920166">
        <ele>921.1056</ele>
        <time>2011-05-29T13:49:11Z</time>
      </trkpt>
      <trkpt lat="46.217108" lon="13.920305">
        <ele>919.2768</ele>
        <time>2011-05-29T13:49:19Z</time>
      </trkpt>
      <trkpt lat="46.217256" lon="13.920477">
        <ele>919.2768</ele>
        <time>2011-05-29T13:49:30Z</time>
      </trkpt>
      <trkpt lat="46.217323" lon="13.920565">
        <ele>922.6296</ele>
        <time>2011-05-29T13:49:37Z</time>
      </trkpt>
      <trkpt lat="46.217444" lon="13.920669">
        <ele>922.02</ele>
        <time>2011-05-29T13:49:46Z</time>
      </trkpt>
      <trkpt lat="46.217498" lon="13.920821">
        <ele>916.8384</ele>
        <time>2011-05-29T13:49:54Z</time>
      </trkpt>
      <trkpt lat="46.217451" lon="13.921062">
        <ele>917.1432</ele>
        <time>2011-05-29T13:50:05Z</time>
      </trkpt>
      <trkpt lat="46.217461" lon="13.921220">
        <ele>921.1056</ele>
        <time>2011-05-29T13:50:16Z</time>
      </trkpt>
      <trkpt lat="46.217482" lon="13.921394">
        <ele>921.4104</ele>
        <time>2011-05-29T13:50:25Z</time>
      </trkpt>
      <trkpt lat="46.217559" lon="13.921518">
        <ele>921.1056</ele>
        <time>2011-05-29T13:50:40Z</time>
      </trkpt>
      <trkpt lat="46.217613" lon="13.921650">
        <ele>922.6296</ele>
        <time>2011-05-29T13:50:48Z</time>
      </trkpt>
      <trkpt lat="46.217640" lon="13.921787">
        <ele>920.496</ele>
        <time>2011-05-29T13:50:55Z</time>
      </trkpt>
      <trkpt lat="46.217697" lon="13.922063">
        <ele>921.4104</ele>
        <time>2011-05-29T13:51:09Z</time>
      </trkpt>
      <trkpt lat="46.217758" lon="13.922292">
        <ele>919.2768</ele>
        <time>2011-05-29T13:51:26Z</time>
      </trkpt>
      <trkpt lat="46.217863" lon="13.922450">
        <ele>922.6296</ele>
        <time>2011-05-29T13:51:37Z</time>
      </trkpt>
      <trkpt lat="46.217942" lon="13.922597">
        <ele>919.2768</ele>
        <time>2011-05-29T13:51:49Z</time>
      </trkpt>
      <trkpt lat="46.217984" lon="13.922770">
        <ele>921.1056</ele>
        <time>2011-05-29T13:51:54Z</time>
      </trkpt>
      <trkpt lat="46.218033" lon="13.922954">
        <ele>921.4104</ele>
        <time>2011-05-29T13:52:01Z</time>
      </trkpt>
      <trkpt lat="46.218065" lon="13.923155">
        <ele>925.3728</ele>
        <time>2011-05-29T13:52:11Z</time>
      </trkpt>
      <trkpt lat="46.218085" lon="13.923303">
        <ele>925.3728</ele>
        <time>2011-05-29T13:52:19Z</time>
      </trkpt>
      <trkpt lat="46.218143" lon="13.923499">
        <ele>926.2872</ele>
        <time>2011-05-29T13:52:31Z</time>
      </trkpt>
      <trkpt lat="46.218171" lon="13.923730">
        <ele>926.2872</ele>
        <time>2011-05-29T13:52:50Z</time>
      </trkpt>
      <trkpt lat="46.218205" lon="13.923888">
        <ele>926.2872</ele>
        <time>2011-05-29T13:53:29Z</time>
      </trkpt>
      <trkpt lat="46.218221" lon="13.924042">
        <ele>925.9824</ele>
        <time>2011-05-29T13:53:37Z</time>
      </trkpt>
      <trkpt lat="46.218233" lon="13.924290">
        <ele>925.068</ele>
        <time>2011-05-29T13:53:49Z</time>
      </trkpt>
      <trkpt lat="46.218248" lon="13.924443">
        <ele>924.4584</ele>
        <time>2011-05-29T13:53:57Z</time>
      </trkpt>
      <trkpt lat="46.218274" lon="13.924645">
        <ele>924.4584</ele>
        <time>2011-05-29T13:54:08Z</time>
      </trkpt>
      <trkpt lat="46.218328" lon="13.924771">
        <ele>924.4584</ele>
        <time>2011-05-29T13:54:16Z</time>
      </trkpt>
      <trkpt lat="46.218353" lon="13.924929">
        <ele>924.4584</ele>
        <time>2011-05-29T13:54:24Z</time>
      </trkpt>
      <trkpt lat="46.218418" lon="13.925070">
        <ele>925.068</ele>
        <time>2011-05-29T13:54:41Z</time>
      </trkpt>
      <trkpt lat="46.218449" lon="13.925263">
        <ele>923.8488</ele>
        <time>2011-05-29T13:54:50Z</time>
      </trkpt>
      <trkpt lat="46.218476" lon="13.925459">
        <ele>924.4584</ele>
        <time>2011-05-29T13:55:01Z</time>
      </trkpt>
      <trkpt lat="46.218520" lon="13.925656">
        <ele>924.4584</ele>
        <time>2011-05-29T13:55:13Z</time>
      </trkpt>
      <trkpt lat="46.218568" lon="13.925834">
        <ele>922.9344</ele>
        <time>2011-05-29T13:55:22Z</time>
      </trkpt>
      <trkpt lat="46.218578" lon="13.926014">
        <ele>924.4584</ele>
        <time>2011-05-29T13:56:41Z</time>
      </trkpt>
      <trkpt lat="46.218573" lon="13.926214">
        <ele>923.8488</ele>
        <time>2011-05-29T13:56:51Z</time>
      </trkpt>
      <trkpt lat="46.218597" lon="13.926412">
        <ele>925.068</ele>
        <time>2011-05-29T13:57:04Z</time>
      </trkpt>
      <trkpt lat="46.218576" lon="13.926739">
        <ele>925.068</ele>
        <time>2011-05-29T13:57:21Z</time>
      </trkpt>
      <trkpt lat="46.218566" lon="13.927035">
        <ele>924.4584</ele>
        <time>2011-05-29T13:57:35Z</time>
      </trkpt>
      <trkpt lat="46.218525" lon="13.927177">
        <ele>924.4584</ele>
        <time>2011-05-29T13:57:44Z</time>
      </trkpt>
      <trkpt lat="46.218491" lon="13.927363">
        <ele>923.544</ele>
        <time>2011-05-29T13:57:54Z</time>
      </trkpt>
      <trkpt lat="46.218438" lon="13.927645">
        <ele>921.1056</ele>
        <time>2011-05-29T13:58:10Z</time>
      </trkpt>
      <trkpt lat="46.218397" lon="13.927819">
        <ele>919.5816</ele>
        <time>2011-05-29T13:58:22Z</time>
      </trkpt>
      <trkpt lat="46.218330" lon="13.928030">
        <ele>917.1432</ele>
        <time>2011-05-29T13:58:34Z</time>
      </trkpt>
      <trkpt lat="46.218269" lon="13.928164">
        <ele>915.924</ele>
        <time>2011-05-29T13:58:42Z</time>
      </trkpt>
      <trkpt lat="46.218212" lon="13.928326">
        <ele>914.7048</ele>
        <time>2011-05-29T13:58:50Z</time>
      </trkpt>
      <trkpt lat="46.218227" lon="13.928603">
        <ele>912.876</ele>
        <time>2011-05-29T13:59:08Z</time>
      </trkpt>
      <trkpt lat="46.218216" lon="13.928762">
        <ele>912.5712</ele>
        <time>2011-05-29T13:59:24Z</time>
      </trkpt>
      <trkpt lat="46.218103" lon="13.928846">
        <ele>913.4856</ele>
        <time>2011-05-29T13:59:36Z</time>
      </trkpt>
      <trkpt lat="46.218031" lon="13.929130">
        <ele>912.5712</ele>
        <time>2011-05-29T14:00:10Z</time>
      </trkpt>
      <trkpt lat="46.218040" lon="13.929302">
        <ele>911.352</ele>
        <time>2011-05-29T14:00:18Z</time>
      </trkpt>
      <trkpt lat="46.218078" lon="13.929427">
        <ele>911.352</ele>
        <time>2011-05-29T14:00:26Z</time>
      </trkpt>
      <trkpt lat="46.218102" lon="13.929644">
        <ele>912.5712</ele>
        <time>2011-05-29T14:00:38Z</time>
      </trkpt>
      <trkpt lat="46.218102" lon="13.929802">
        <ele>911.352</ele>
        <time>2011-05-29T14:00:48Z</time>
      </trkpt>
      <trkpt lat="46.218040" lon="13.930109">
        <ele>913.7904</ele>
        <time>2011-05-29T14:01:04Z</time>
      </trkpt>
      <trkpt lat="46.217975" lon="13.930278">
        <ele>914.4</ele>
        <time>2011-05-29T14:01:15Z</time>
      </trkpt>
      <trkpt lat="46.217921" lon="13.930501">
        <ele>918.0576</ele>
        <time>2011-05-29T14:01:27Z</time>
      </trkpt>
      <trkpt lat="46.217814" lon="13.930703">
        <ele>915.3144</ele>
        <time>2011-05-29T14:01:42Z</time>
      </trkpt>
      <trkpt lat="46.217722" lon="13.930894">
        <ele>916.2288</ele>
        <time>2011-05-29T14:01:54Z</time>
      </trkpt>
      <trkpt lat="46.217730" lon="13.931029">
        <ele>916.2288</ele>
        <time>2011-05-29T14:02:01Z</time>
      </trkpt>
      <trkpt lat="46.217813" lon="13.931123">
        <ele>916.8384</ele>
        <time>2011-05-29T14:02:09Z</time>
      </trkpt>
      <trkpt lat="46.217889" lon="13.931231">
        <ele>916.8384</ele>
        <time>2011-05-29T14:02:17Z</time>
      </trkpt>
      <trkpt lat="46.217955" lon="13.931337">
        <ele>916.2288</ele>
        <time>2011-05-29T14:02:25Z</time>
      </trkpt>
      <trkpt lat="46.218023" lon="13.931495">
        <ele>916.2288</ele>
        <time>2011-05-29T14:02:33Z</time>
      </trkpt>
      <trkpt lat="46.218106" lon="13.931603">
        <ele>917.1432</ele>
        <time>2011-05-29T14:02:41Z</time>
      </trkpt>
      <trkpt lat="46.218233" lon="13.931762">
        <ele>917.7528</ele>
        <time>2011-05-29T14:02:55Z</time>
      </trkpt>
      <trkpt lat="46.218339" lon="13.931974">
        <ele>922.9344</ele>
        <time>2011-05-29T14:03:08Z</time>
      </trkpt>
      <trkpt lat="46.218441" lon="13.932189">
        <ele>920.496</ele>
        <time>2011-05-29T14:03:43Z</time>
      </trkpt>
      <trkpt lat="46.218506" lon="13.932353">
        <ele>921.1056</ele>
        <time>2011-05-29T14:03:51Z</time>
      </trkpt>
      <trkpt lat="46.218544" lon="13.932471">
        <ele>922.02</ele>
        <time>2011-05-29T14:03:59Z</time>
      </trkpt>
      <trkpt lat="46.218597" lon="13.932626">
        <ele>922.6296</ele>
        <time>2011-05-29T14:04:09Z</time>
      </trkpt>
      <trkpt lat="46.218633" lon="13.932837">
        <ele>925.068</ele>
        <time>2011-05-29T14:04:29Z</time>
      </trkpt>
      <trkpt lat="46.218661" lon="13.932971">
        <ele>925.3728</ele>
        <time>2011-05-29T14:04:36Z</time>
      </trkpt>
      <trkpt lat="46.218682" lon="13.933199">
        <ele>925.9824</ele>
        <time>2011-05-29T14:04:44Z</time>
      </trkpt>
      <trkpt lat="46.218733" lon="13.933321">
        <ele>926.8968</ele>
        <time>2011-05-29T14:04:49Z</time>
      </trkpt>
      <trkpt lat="46.218907" lon="13.933391">
        <ele>928.4208</ele>
        <time>2011-05-29T14:05:04Z</time>
      </trkpt>
      <trkpt lat="46.218988" lon="13.933561">
        <ele>928.7256</ele>
        <time>2011-05-29T14:05:19Z</time>
      </trkpt>
      <trkpt lat="46.218932" lon="13.933684">
        <ele>928.4208</ele>
        <time>2011-05-29T14:05:27Z</time>
      </trkpt>
      <trkpt lat="46.218904" lon="13.933815">
        <ele>929.3352</ele>
        <time>2011-05-29T14:05:34Z</time>
      </trkpt>
      <trkpt lat="46.218966" lon="13.933932">
        <ele>930.5544</ele>
        <time>2011-05-29T14:05:45Z</time>
      </trkpt>
      <trkpt lat="46.219154" lon="13.934098">
        <ele>934.212</ele>
        <time>2011-05-29T14:06:04Z</time>
      </trkpt>
      <trkpt lat="46.219254" lon="13.934197">
        <ele>935.4312</ele>
        <time>2011-05-29T14:06:13Z</time>
      </trkpt>
      <trkpt lat="46.219335" lon="13.934327">
        <ele>939.6984</ele>
        <time>2011-05-29T14:06:28Z</time>
      </trkpt>
      <trkpt lat="46.219503" lon="13.934575">
        <ele>935.4312</ele>
        <time>2011-05-29T14:06:45Z</time>
      </trkpt>
      <trkpt lat="46.219593" lon="13.934853">
        <ele>934.212</ele>
        <time>2011-05-29T14:07:18Z</time>
      </trkpt>
      <trkpt lat="46.219405" lon="13.934948">
        <ele>935.1264</ele>
        <time>2011-05-29T14:07:57Z</time>
      </trkpt>
      <trkpt lat="46.219260" lon="13.934937">
        <ele>935.4312</ele>
        <time>2011-05-29T14:08:05Z</time>
      </trkpt>
      <trkpt lat="46.219119" lon="13.935075">
        <ele>935.4312</ele>
        <time>2011-05-29T14:08:20Z</time>
      </trkpt>
      <trkpt lat="46.219099" lon="13.935359">
        <ele>935.1264</ele>
        <time>2011-05-29T14:08:33Z</time>
      </trkpt>
      <trkpt lat="46.219058" lon="13.935511">
        <ele>938.784</ele>
        <time>2011-05-29T14:08:42Z</time>
      </trkpt>
      <trkpt lat="46.219007" lon="13.935661">
        <ele>932.0784</ele>
        <time>2011-05-29T14:08:51Z</time>
      </trkpt>
      <trkpt lat="46.218921" lon="13.935810">
        <ele>932.0784</ele>
        <time>2011-05-29T14:08:59Z</time>
      </trkpt>
      <trkpt lat="46.218873" lon="13.935930">
        <ele>936.3456</ele>
        <time>2011-05-29T14:09:06Z</time>
      </trkpt>
      <trkpt lat="46.218871" lon="13.936063">
        <ele>936.3456</ele>
        <time>2011-05-29T14:09:13Z</time>
      </trkpt>
      <trkpt lat="46.218893" lon="13.936190">
        <ele>931.7736</ele>
        <time>2011-05-29T14:09:18Z</time>
      </trkpt>
      <trkpt lat="46.218946" lon="13.936348">
        <ele>932.688</ele>
        <time>2011-05-29T14:09:26Z</time>
      </trkpt>
      <trkpt lat="46.218997" lon="13.936528">
        <ele>932.0784</ele>
        <time>2011-05-29T14:09:34Z</time>
      </trkpt>
      <trkpt lat="46.219008" lon="13.936805">
        <ele>932.0784</ele>
        <time>2011-05-29T14:09:48Z</time>
      </trkpt>
      <trkpt lat="46.218909" lon="13.936870">
        <ele>936.0408</ele>
        <time>2011-05-29T14:09:57Z</time>
      </trkpt>
      <trkpt lat="46.218804" lon="13.936909">
        <ele>937.5648</ele>
        <time>2011-05-29T14:10:04Z</time>
      </trkpt>
      <trkpt lat="46.218719" lon="13.937031">
        <ele>936.0408</ele>
        <time>2011-05-29T14:10:11Z</time>
      </trkpt>
      <trkpt lat="46.218656" lon="13.937225">
        <ele>934.212</ele>
        <time>2011-05-29T14:10:20Z</time>
      </trkpt>
      <trkpt lat="46.218621" lon="13.937350">
        <ele>937.8696</ele>
        <time>2011-05-29T14:10:27Z</time>
      </trkpt>
      <trkpt lat="46.218597" lon="13.937492">
        <ele>937.5648</ele>
        <time>2011-05-29T14:10:35Z</time>
      </trkpt>
      <trkpt lat="46.218527" lon="13.937643">
        <ele>933.6024</ele>
        <time>2011-05-29T14:10:44Z</time>
      </trkpt>
      <trkpt lat="46.218461" lon="13.937753">
        <ele>935.4312</ele>
        <time>2011-05-29T14:10:51Z</time>
      </trkpt>
      <trkpt lat="46.218416" lon="13.937916">
        <ele>938.784</ele>
        <time>2011-05-29T14:11:01Z</time>
      </trkpt>
      <trkpt lat="46.218432" lon="13.938064">
        <ele>934.5168</ele>
        <time>2011-05-29T14:11:07Z</time>
      </trkpt>
      <trkpt lat="46.218421" lon="13.938276">
        <ele>934.5168</ele>
        <time>2011-05-29T14:11:17Z</time>
      </trkpt>
      <trkpt lat="46.218437" lon="13.938415">
        <ele>934.5168</ele>
        <time>2011-05-29T14:11:48Z</time>
      </trkpt>
      <trkpt lat="46.218465" lon="13.938581">
        <ele>934.212</ele>
        <time>2011-05-29T14:11:55Z</time>
      </trkpt>
      <trkpt lat="46.218466" lon="13.938712">
        <ele>935.4312</ele>
        <time>2011-05-29T14:12:09Z</time>
      </trkpt>
      <trkpt lat="46.218512" lon="13.938882">
        <ele>935.4312</ele>
        <time>2011-05-29T14:12:19Z</time>
      </trkpt>
      <trkpt lat="46.218503" lon="13.939022">
        <ele>938.4792</ele>
        <time>2011-05-29T14:12:26Z</time>
      </trkpt>
      <trkpt lat="46.218579" lon="13.939095">
        <ele>937.8696</ele>
        <time>2011-05-29T14:12:41Z</time>
      </trkpt>
      <trkpt lat="46.218695" lon="13.939051">
        <ele>928.7256</ele>
        <time>2011-05-29T14:12:53Z</time>
      </trkpt>
      <trkpt lat="46.218895" lon="13.939016">
        <ele>935.4312</ele>
        <time>2011-05-29T14:13:08Z</time>
      </trkpt>
      <trkpt lat="46.218985" lon="13.938986">
        <ele>934.5168</ele>
        <time>2011-05-29T14:13:13Z</time>
      </trkpt>
      <trkpt lat="46.219078" lon="13.938992">
        <ele>933.6024</ele>
        <time>2011-05-29T14:13:20Z</time>
      </trkpt>
      <trkpt lat="46.219088" lon="13.939376">
        <ele>934.5168</ele>
        <time>2011-05-29T14:13:39Z</time>
      </trkpt>
      <trkpt lat="46.219146" lon="13.939540">
        <ele>934.212</ele>
        <time>2011-05-29T14:13:49Z</time>
      </trkpt>
      <trkpt lat="46.219202" lon="13.939808">
        <ele>931.7736</ele>
        <time>2011-05-29T14:14:02Z</time>
      </trkpt>
      <trkpt lat="46.219238" lon="13.939968">
        <ele>929.3352</ele>
        <time>2011-05-29T14:14:11Z</time>
      </trkpt>
      <trkpt lat="46.219374" lon="13.940201">
        <ele>928.4208</ele>
        <time>2011-05-29T14:14:24Z</time>
      </trkpt>
      <trkpt lat="46.219340" lon="13.940355">
        <ele>926.8968</ele>
        <time>2011-05-29T14:14:50Z</time>
      </trkpt>
      <trkpt lat="46.219362" lon="13.940494">
        <ele>926.8968</ele>
        <time>2011-05-29T14:14:57Z</time>
      </trkpt>
      <trkpt lat="46.219377" lon="13.940712">
        <ele>925.3728</ele>
        <time>2011-05-29T14:15:08Z</time>
      </trkpt>
      <trkpt lat="46.219387" lon="13.940917">
        <ele>923.8488</ele>
        <time>2011-05-29T14:15:20Z</time>
      </trkpt>
      <trkpt lat="46.219419" lon="13.941111">
        <ele>922.9344</ele>
        <time>2011-05-29T14:15:28Z</time>
      </trkpt>
      <trkpt lat="46.219541" lon="13.941289">
        <ele>923.544</ele>
        <time>2011-05-29T14:15:40Z</time>
      </trkpt>
      <trkpt lat="46.219677" lon="13.941406">
        <ele>922.9344</ele>
        <time>2011-05-29T14:15:50Z</time>
      </trkpt>
      <trkpt lat="46.219683" lon="13.941577">
        <ele>923.8488</ele>
        <time>2011-05-29T14:16:02Z</time>
      </trkpt>
      <trkpt lat="46.219631" lon="13.941755">
        <ele>922.6296</ele>
        <time>2011-05-29T14:16:12Z</time>
      </trkpt>
      <trkpt lat="46.219589" lon="13.941940">
        <ele>922.6296</ele>
        <time>2011-05-29T14:16:27Z</time>
      </trkpt>
      <trkpt lat="46.219569" lon="13.942105">
        <ele>925.9824</ele>
        <time>2011-05-29T14:16:35Z</time>
      </trkpt>
      <trkpt lat="46.219480" lon="13.942350">
        <ele>922.02</ele>
        <time>2011-05-29T14:16:53Z</time>
      </trkpt>
      <trkpt lat="46.219365" lon="13.942499">
        <ele>927.8112</ele>
        <time>2011-05-29T14:17:05Z</time>
      </trkpt>
      <trkpt lat="46.219241" lon="13.942904">
        <ele>920.1912</ele>
        <time>2011-05-29T14:17:27Z</time>
      </trkpt>
      <trkpt lat="46.219224" lon="13.943096">
        <ele>919.5816</ele>
        <time>2011-05-29T14:17:36Z</time>
      </trkpt>
      <trkpt lat="46.219229" lon="13.943250">
        <ele>917.7528</ele>
        <time>2011-05-29T14:17:47Z</time>
      </trkpt>
      <trkpt lat="46.219250" lon="13.943351">
        <ele>918.0576</ele>
        <time>2011-05-29T14:18:56Z</time>
      </trkpt>
      <trkpt lat="46.219164" lon="13.943208">
        <ele>916.2288</ele>
        <time>2011-05-29T14:19:12Z</time>
      </trkpt>
      <trkpt lat="46.219081" lon="13.943018">
        <ele>911.0472</ele>
        <time>2011-05-29T14:19:28Z</time>
      </trkpt>
      <trkpt lat="46.219077" lon="13.942664">
        <ele>907.6944</ele>
        <time>2011-05-29T14:19:54Z</time>
      </trkpt>
      <trkpt lat="46.219128" lon="13.942524">
        <ele>904.6464</ele>
        <time>2011-05-29T14:20:17Z</time>
      </trkpt>
      <trkpt lat="46.219173" lon="13.942398">
        <ele>901.2936</ele>
        <time>2011-05-29T14:20:26Z</time>
      </trkpt>
      <trkpt lat="46.219208" lon="13.942205">
        <ele>898.5504</ele>
        <time>2011-05-29T14:20:40Z</time>
      </trkpt>
      <trkpt lat="46.219254" lon="13.942088">
        <ele>897.636</ele>
        <time>2011-05-29T14:20:45Z</time>
      </trkpt>
      <trkpt lat="46.219293" lon="13.941849">
        <ele>894.588</ele>
        <time>2011-05-29T14:21:01Z</time>
      </trkpt>
      <trkpt lat="46.219285" lon="13.941713">
        <ele>891.8448</ele>
        <time>2011-05-29T14:21:12Z</time>
      </trkpt>
      <trkpt lat="46.219155" lon="13.941705">
        <ele>888.492</ele>
        <time>2011-05-29T14:21:26Z</time>
      </trkpt>
      <trkpt lat="46.219035" lon="13.941704">
        <ele>885.444</ele>
        <time>2011-05-29T14:21:35Z</time>
      </trkpt>
      <trkpt lat="46.218936" lon="13.941679">
        <ele>882.7008</ele>
        <time>2011-05-29T14:21:43Z</time>
      </trkpt>
      <trkpt lat="46.218830" lon="13.941623">
        <ele>880.5672</ele>
        <time>2011-05-29T14:21:51Z</time>
      </trkpt>
      <trkpt lat="46.218726" lon="13.941487">
        <ele>876.9096</ele>
        <time>2011-05-29T14:22:05Z</time>
      </trkpt>
      <trkpt lat="46.218689" lon="13.941345">
        <ele>874.4712</ele>
        <time>2011-05-29T14:22:13Z</time>
      </trkpt>
      <trkpt lat="46.218654" lon="13.941215">
        <ele>873.5568</ele>
        <time>2011-05-29T14:22:18Z</time>
      </trkpt>
      <trkpt lat="46.218630" lon="13.940971">
        <ele>871.4232</ele>
        <time>2011-05-29T14:22:33Z</time>
      </trkpt>
      <trkpt lat="46.218633" lon="13.940760">
        <ele>865.3272</ele>
        <time>2011-05-29T14:22:44Z</time>
      </trkpt>
      <trkpt lat="46.218576" lon="13.940684">
        <ele>871.1184</ele>
        <time>2011-05-29T14:22:59Z</time>
      </trkpt>
      <trkpt lat="46.218454" lon="13.940818">
        <ele>862.8888</ele>
        <time>2011-05-29T14:23:16Z</time>
      </trkpt>
      <trkpt lat="46.218377" lon="13.940910">
        <ele>862.8888</ele>
        <time>2011-05-29T14:23:23Z</time>
      </trkpt>
      <trkpt lat="46.218264" lon="13.940998">
        <ele>861.9744</ele>
        <time>2011-05-29T14:23:37Z</time>
      </trkpt>
      <trkpt lat="46.218182" lon="13.941030">
        <ele>861.06</ele>
        <time>2011-05-29T14:27:03Z</time>
      </trkpt>
      <trkpt lat="46.218258" lon="13.941111">
        <ele>861.06</ele>
        <time>2011-05-29T14:27:11Z</time>
      </trkpt>
      <trkpt lat="46.218374" lon="13.941133">
        <ele>864.7176</ele>
        <time>2011-05-29T14:27:34Z</time>
      </trkpt>
      <trkpt lat="46.218237" lon="13.941056">
        <ele>861.06</ele>
        <time>2011-05-29T14:28:01Z</time>
      </trkpt>
      <trkpt lat="46.218171" lon="13.941131">
        <ele>862.8888</ele>
        <time>2011-05-29T14:29:49Z</time>
      </trkpt>
      <trkpt lat="46.218155" lon="13.941074">
        <ele>864.7176</ele>
        <time>2011-05-29T14:40:02Z</time>
      </trkpt>
      <trkpt lat="46.218106" lon="13.941090">
        <ele>866.2416</ele>
        <time>2011-05-29T14:49:37Z</time>
      </trkpt>
      <trkpt lat="46.217920" lon="13.940979">
        <ele>861.9744</ele>
        <time>2011-05-29T14:52:19Z</time>
      </trkpt>
      <trkpt lat="46.217777" lon="13.941003">
        <ele>860.1456</ele>
        <time>2011-05-29T14:52:27Z</time>
      </trkpt>
      <trkpt lat="46.217679" lon="13.941040">
        <ele>858.6216</ele>
        <time>2011-05-29T14:52:37Z</time>
      </trkpt>
      <trkpt lat="46.217484" lon="13.941329">
        <ele>857.7072</ele>
        <time>2011-05-29T14:52:53Z</time>
      </trkpt>
      <trkpt lat="46.217390" lon="13.941432">
        <ele>852.2208</ele>
        <time>2011-05-29T14:53:00Z</time>
      </trkpt>
      <trkpt lat="46.217203" lon="13.941597">
        <ele>856.1832</ele>
        <time>2011-05-29T14:53:15Z</time>
      </trkpt>
      <trkpt lat="46.217062" lon="13.941520">
        <ele>850.0872</ele>
        <time>2011-05-29T14:53:28Z</time>
      </trkpt>
      <trkpt lat="46.216956" lon="13.941473">
        <ele>846.1248</ele>
        <time>2011-05-29T14:53:35Z</time>
      </trkpt>
      <trkpt lat="46.216859" lon="13.941413">
        <ele>845.2104</ele>
        <time>2011-05-29T14:53:42Z</time>
      </trkpt>
      <trkpt lat="46.216734" lon="13.941375">
        <ele>842.772</ele>
        <time>2011-05-29T14:53:50Z</time>
      </trkpt>
      <trkpt lat="46.216615" lon="13.941319">
        <ele>842.772</ele>
        <time>2011-05-29T14:53:58Z</time>
      </trkpt>
      <trkpt lat="46.216450" lon="13.941267">
        <ele>841.8576</ele>
        <time>2011-05-29T14:54:10Z</time>
      </trkpt>
      <trkpt lat="46.216342" lon="13.941228">
        <ele>838.8096</ele>
        <time>2011-05-29T14:54:17Z</time>
      </trkpt>
      <trkpt lat="46.216134" lon="13.941208">
        <ele>835.152</ele>
        <time>2011-05-29T14:54:30Z</time>
      </trkpt>
      <trkpt lat="46.215997" lon="13.941138">
        <ele>833.0184</ele>
        <time>2011-05-29T14:54:40Z</time>
      </trkpt>
      <trkpt lat="46.215893" lon="13.941072">
        <ele>830.58</ele>
        <time>2011-05-29T14:54:46Z</time>
      </trkpt>
      <trkpt lat="46.215748" lon="13.940938">
        <ele>829.3608</ele>
        <time>2011-05-29T14:54:57Z</time>
      </trkpt>
      <trkpt lat="46.215678" lon="13.940853">
        <ele>827.8368</ele>
        <time>2011-05-29T14:55:04Z</time>
      </trkpt>
      <trkpt lat="46.215570" lon="13.940715">
        <ele>826.3128</ele>
        <time>2011-05-29T14:55:15Z</time>
      </trkpt>
      <trkpt lat="46.215475" lon="13.940680">
        <ele>826.3128</ele>
        <time>2011-05-29T14:55:24Z</time>
      </trkpt>
      <trkpt lat="46.215351" lon="13.940683">
        <ele>824.484</ele>
        <time>2011-05-29T14:55:35Z</time>
      </trkpt>
      <trkpt lat="46.215301" lon="13.940564">
        <ele>825.0936</ele>
        <time>2011-05-29T14:55:44Z</time>
      </trkpt>
      <trkpt lat="46.215275" lon="13.940455">
        <ele>821.436</ele>
        <time>2011-05-29T14:56:37Z</time>
      </trkpt>
      <trkpt lat="46.215193" lon="13.940400">
        <ele>822.0456</ele>
        <time>2011-05-29T14:56:56Z</time>
      </trkpt>
      <trkpt lat="46.215118" lon="13.940301">
        <ele>820.2168</ele>
        <time>2011-05-29T14:57:14Z</time>
      </trkpt>
      <trkpt lat="46.215072" lon="13.940186">
        <ele>824.484</ele>
        <time>2011-05-29T14:57:20Z</time>
      </trkpt>
      <trkpt lat="46.215048" lon="13.940151">
        <ele>822.6552</ele>
        <time>2011-05-29T14:58:40Z</time>
      </trkpt>
    </trkseg>
  </trk>
</gpx>
